[[{"header":{"parameterUnit":"m.s-1","parameterCategory":1,"la1":30.6,"la2":28.766,"lo1":-90.7593,"lo2":-88.6598,"dy":0.0162,"dx":0.0183,"nx":116,"ny":114,"refTime":"2023-03-20T00:00:00:Z","depth":0,"parameterNumber":2,"parameterNumberName":"U-component_of_WINDS"},"data":[0.0,0.0,0.0,0.0,0.0,0.0,0.0,0.0,0.0,0.0,0.0,0.0,0.0,0.0,0.0,0.0,0.0,0.0,0.0,0.0,0.0,0.0,0.0,0.0,0.0,0.0,0.0,0.0,0.0,0.0,0.0,0.0,0.0,0.0,0.0,0.0,0.0,0.0,0.0,0.0,0.0,0.0,0.0,0.0,0.0,0.0,0.0,0.0,0.0,0.0,0.0,0.0,0.0,0.0,0.0,0.0,0.0,0.0,0.0,0.0,0.0,0.0,0.0,0.0,0.0,0.0,0.0,0.0,0.0,0.0,0.0,0.0,0.0,0.0,0.0,0.0,0.0,0.0,0.0,0.0,0.0,0.0,0.0,0.0,0.0,0.0,0.0,0.0,0.0,0.0,0.0,0.0,0.0,0.0,0.0,0.0,0.0,0.0,0.0,0.0,0.0,0.0,0.0,0.0,0.0,0.0,0.0,0.0,0.0,0.0,0.0,0.0,0.0,0.0,0.0,0.0,0.0,0.0,0.0,0.0,0.0,0.0,0.0,0.0,0.0,0.0,0.0,0.0,0.0,0.0,0.0,0.0,0.0,0.0,0.0,0.0,0.0,0.0,0.0,0.0,0.0,0.0,0.0,0.0,0.0,0.0,0.0,0.0,0.0,0.0,0.0,0.0,0.0,0.0,0.0,0.0,0.0,0.0,0.0,0.0,0.0,0.0,0.0,0.0,0.0,0.0,0.0,0.0,0.0,0.0,0.0,0.0,0.0,0.0,0.0,0.0,0.0,0.0,0.0,0.0,0.0,0.0,0.0,0.0,0.0,0.0,0.0,0.0,0.0,0.0,0.0,0.0,0.0,0.0,0.0,0.0,0.0,0.0,0.0,0.0,0.0,0.0,0.0,0.0,0.0,0.0,0.0,0.0,0.0,0.0,0.0,0.0,0.0,0.0,0.0,0.0,0.0,0.0,0.0,0.0,0.0,0.0,0.0,0.0,0.0,0.0,0.0,0.0,0.0,0.0,0.0,0.0,0.0,0.0,0.0,0.0,0.0,0.0,0.0,0.0,0.0,0.0,0.0,0.0,0.0,0.0,0.0,0.0,0.0,0.0,0.0,0.0,0.0,0.0,0.0,0.0,0.0,0.0,0.0,0.0,0.0,0.0,0.0,0.0,0.0,0.0,0.0,0.0,0.0,0.0,0.0,0.0,0.0,0.0,0.0,0.0,0.0,0.0,0.0,0.0,0.0,0.0,0.0,0.0,0.0,0.0,0.0,0.0,0.0,0.0,0.0,0.0,0.0,0.0,0.0,0.0,0.0,0.0,0.0,0.0,0.0,0.0,0.0,0.0,0.0,0.0,0.0,0.0,0.0,0.0,0.0,0.0,0.0,0.0,0.0,0.0,0.0,0.0,0.0,0.0,0.0,0.0,0.0,0.0,0.0,0.0,0.0,0.0,0.0,0.0,0.0,0.0,0.0,0.0,0.0,0.0,0.0,0.0,0.0,0.0,0.0,0.0,0.0,0.0,0.0,0.0,0.0,0.0,0.0,0.0,0.0,0.0,0.0,0.0,0.0,0.0,0.0,0.0,0.0,0.0,0.0,0.0,0.0,0.0,0.0,0.0,0.0,0.0,0.0,0.0,0.0,0.0,0.0,0.0,0.0,0.0,0.0,0.0,0.0,0.0,0.0,0.0,0.0,0.0,0.0,0.0,0.0,0.0,0.0,0.0,0.0,0.0,0.0,0.0,0.0,0.0,0.0,0.0,0.0,0.0,0.0,0.0,0.0,0.0,0.0,0.0,0.0,0.0,0.0,0.0,0.0,0.0,0.0,0.0,0.0,0.0,0.0,0.0,0.0,0.0,0.0,0.0,0.0,0.0,0.0,0.0,0.0,0.0,0.0,0.0,0.0,0.0,0.0,0.0,0.0,0.0,0.0,0.0,0.0,0.0,0.0,0.0,0.0,0.0,0.0,0.0,0.0,0.0,0.0,0.0,0.0,0.0,0.0,0.0,0.0,0.0,0.0,0.0,0.0,0.0,0.0,0.0,0.0,0.0,0.0,0.0,0.0,0.0,0.0,0.0,0.0,0.0,0.0,0.0,0.0,0.0,0.0,0.0,0.0,0.0,0.0,0.0,0.0,0.0,0.0,0.0,0.0,0.0,0.0,0.0,0.0,0.0,0.0,0.0,0.0,0.0,0.0,0.0,0.0,0.0,0.0,0.0,0.0,0.0,0.0,0.0,0.0,0.0,0.0,0.0,0.0,0.0,0.0,0.0,0.0,0.0,0.0,0.0,0.0,0.0,0.0,0.0,0.0,0.0,0.0,0.0,0.0,0.0,0.0,0.0,0.0,0.0,0.0,0.0,0.0,0.0,0.0,0.0,0.0,0.0,0.0,0.0,0.0,0.0,0.0,0.0,0.0,0.0,0.0,0.0,0.0,0.0,0.0,0.0,0.0,0.0,0.0,0.0,0.0,0.0,0.0,0.0,0.0,0.0,0.0,0.0,0.0,0.0,0.0,0.0,0.0,0.0,0.0,0.0,0.0,0.0,0.0,0.0,0.0,0.0,0.0,0.0,0.0,0.0,0.0,0.0,0.0,0.0,0.0,0.0,0.0,0.0,0.0,0.0,0.0,0.0,0.0,0.0,0.0,0.0,0.0,0.0,0.0,0.0,0.0,0.0,0.0,0.0,0.0,0.0,0.0,0.0,0.0,0.0,0.0,0.0,0.0,0.0,0.0,0.0,0.0,0.0,0.0,0.0,0.0,0.0,0.0,0.0,0.0,0.0,0.0,0.0,0.0,0.0,0.0,0.0,0.0,0.0,0.0,0.0,0.0,0.0,0.0,0.0,0.0,0.0,0.0,0.0,0.0,0.0,0.0,0.0,0.0,0.0,0.0,0.0,0.0,0.0,0.0,0.0,0.0,0.0,0.0,0.0,0.0,0.0,0.0,0.0,0.0,0.0,0.0,0.0,0.0,0.0,0.0,0.0,0.0,0.0,0.0,0.0,0.0,0.0,0.0,0.0,0.0,0.0,0.0,0.0,0.0,0.0,0.0,0.0,0.0,0.0,0.0,0.0,0.0,0.0,0.0,0.0,0.0,0.0,0.0,0.0,0.0,0.0,0.0,0.0,0.0,0.0,0.0,0.0,0.0,0.0,0.0,0.0,0.0,0.0,0.0,0.0,0.0,0.0,0.0,0.0,0.0,0.0,0.0,0.0,0.0,0.0,0.0,0.0,0.0,0.0,0.0,0.0,0.0,0.0,0.0,0.0,0.0,0.0,0.0,0.0,0.0,0.0,0.0,0.0,0.0,0.0,0.0,0.0,0.0,0.0,0.0,0.0,0.0,0.0,0.0,0.0,0.0,0.0,0.0,0.0,0.0,0.0,0.0,0.0,0.0,0.0,0.0,0.0,0.0,0.0,0.0,0.0,0.0,0.0,0.0,0.0,0.0,0.0,0.0,0.0,0.0,0.0,0.0,0.0,0.0,0.0,0.0,0.0,0.0,0.0,0.0,0.0,0.0,0.0,0.0,0.0,0.0,0.0,0.0,0.0,0.0,0.0,0.0,0.0,0.0,0.0,0.0,0.0,0.0,0.0,0.0,0.0,0.0,0.0,0.0,0.0,0.0,0.0,0.0,0.0,0.0,0.0,0.0,0.0,0.0,0.0,0.0,0.0,0.0,0.0,0.0,0.0,0.0,0.0,0.0,0.0,0.0,0.0,0.0,0.0,0.0,0.0,0.0,0.0,0.0,0.0,0.0,0.0,0.0,0.0,0.0,0.0,0.0,0.0,0.0,0.0,0.0,0.0,0.0,0.0,0.0,0.0,0.0,0.0,0.0,0.0,0.0,0.0,0.0,0.0,0.0,0.0,0.0,0.0,0.0,0.0,0.0,0.0,0.0,0.0,0.0,0.0,0.0,0.0,0.0,0.0,0.0,0.0,0.0,0.0,0.0,0.0,0.0,0.0,0.0,0.0,0.0,0.0,0.0,0.0,0.0,0.0,0.0,0.0,0.0,0.0,0.0,0.0,0.0,0.0,0.0,0.0,0.0,0.0,0.0,0.0,0.0,0.0,0.0,0.0,0.0,0.0,0.0,0.0,0.0,0.0,0.0,0.0,0.0,0.0,0.0,0.0,0.0,0.0,0.0,0.0,0.0,0.0,0.0,0.0,0.0,0.0,0.0,0.0,0.0,0.0,0.0,0.0,0.0,0.0,0.0,0.0,0.0,0.0,0.0,0.0,0.0,0.0,0.0,0.0,0.0,0.0,0.0,0.0,0.0,0.0,0.0,0.0,0.0,0.0,0.0,0.0,0.0,0.0,0.0,0.0,0.0,0.0,0.0,0.0,0.0,0.0,0.0,0.0,0.0,0.0,0.0,0.0,0.0,0.0,0.0,0.0,0.0,0.0,0.0,0.0,0.0,0.0,0.0,0.0,0.0,0.0,0.0,0.0,0.0,0.0,0.0,0.0,0.0,0.0,0.0,0.0,0.0,0.0,0.0,0.0,0.0,0.0,0.0,0.0,0.0,0.0,0.0,0.0,0.0,0.0,0.0,0.0,0.0,0.0,0.0,0.0,0.0,0.0,0.0,0.0,0.0,0.0,0.0,0.0,0.0,0.0,0.0,0.0,0.0,0.0,0.0,0.0,0.0,0.0,0.0,0.0,0.0,0.0,0.0,0.0,0.0,0.0,0.0,0.0,0.0,0.0,0.0,0.0,0.0,0.0,0.0,0.0,0.0,0.0,0.0,0.0,0.0,0.0,0.0,0.0,0.0,0.0,0.0,0.0,0.0,0.0,0.0,0.0,0.0,0.0,0.0,0.0,0.0,0.0,0.0,0.0,0.0,0.0,0.0,0.0,0.0,0.0,0.0,0.0,0.0,0.0,0.0,0.0,0.0,0.0,0.0,0.0,0.0,0.0,0.0,0.0,0.0,0.0,0.0,0.0,0.0,0.0,0.0,0.0,0.0,0.0,0.0,0.0,0.0,0.0,0.0,0.0,0.0,0.0,0.0,0.0,0.0,0.0,0.0,0.0,0.0,0.0,0.0,0.0,0.0,0.0,0.0,0.0,0.0,0.0,0.0,0.0,0.0,0.0,0.0,0.0,0.0,0.0,0.0,0.0,0.0,0.0,0.0,0.0,0.0,0.0,0.0,0.0,0.0,0.0,0.0,0.0,0.0,0.0,0.0,0.0,0.0,0.0,0.0,0.0,0.0,0.0,0.0,0.0,0.0,0.0,0.0,0.0,0.0,0.0,0.0,0.0,0.0,0.0,0.0,0.0,0.0,0.0,0.0,0.0,0.0,0.0,0.0,0.0,0.0,0.0,0.0,0.0,0.0,0.0,0.0,0.0,0.0,0.0,0.0,0.0,0.0,0.0,0.0,0.0,0.0,0.0,0.0,0.0,0.0,0.0,0.0,0.0,0.0,0.0,0.0,0.0,0.0,0.0,0.0,0.0,0.0,0.0,0.0,0.0,0.0,0.0,0.0,0.0,0.0,0.0,0.0,0.0,0.0,0.0,0.0,0.0,0.0,0.0,0.0,0.0,0.0,0.0,0.0,0.0,0.0,0.0,0.0,0.0,0.0,0.0,0.0,0.0,0.0,0.0,0.0,0.0,0.0,0.0,0.0,0.0,0.0,0.0,0.0,0.0,0.0,0.0,0.0,0.0,0.0,0.0,0.0,0.0,0.0,0.0,0.0,0.0,0.0,0.0,0.0,0.0,0.0,0.0,0.0,0.0,0.0,0.0,0.0,0.0,0.0,0.0,0.0,0.0,0.0,0.0,0.0,0.0,0.0,0.0,0.0,0.0,0.0,0.0,0.0,0.0,0.0,0.0,0.0,0.0,0.0,0.0,0.0,0.0,0.0,0.0,0.0,0.0,0.0,0.0,0.0,0.0,0.0,0.0,0.0,0.0,0.0,0.0,0.0,0.0,0.0,0.0,0.0,0.0,0.0,0.0,0.0,0.0,0.0,0.0,0.0,0.0,0.0,0.0,0.0,0.0,0.0,0.0,0.0,0.0,0.0,0.0,0.0,0.0,0.0,0.0,0.0,0.0,0.0,0.0,0.0,0.0,0.0,0.0,0.0,0.0,-2.627,0.0,0.0,0.0,0.0,0.0,0.0,0.0,0.0,0.0,0.0,0.0,0.0,0.0,0.0,0.0,0.0,0.0,0.0,0.0,0.0,0.0,0.0,0.0,0.0,0.0,0.0,0.0,0.0,0.0,0.0,0.0,0.0,0.0,0.0,0.0,0.0,0.0,0.0,0.0,0.0,0.0,0.0,0.0,0.0,0.0,0.0,0.0,0.0,0.0,0.0,0.0,0.0,0.0,0.0,0.0,0.0,0.0,0.0,0.0,0.0,0.0,0.0,0.0,0.0,0.0,0.0,0.0,0.0,0.0,0.0,0.0,0.0,0.0,0.0,0.0,0.0,0.0,0.0,0.0,0.0,0.0,0.0,0.0,0.0,0.0,0.0,0.0,0.0,0.0,0.0,0.0,0.0,0.0,0.0,0.0,0.0,0.0,0.0,0.0,0.0,0.0,0.0,0.0,0.0,0.0,0.0,0.0,0.0,0.0,0.0,0.0,0.0,0.0,0.0,0.0,0.0,-2.7263,0.0,0.0,0.0,0.0,0.0,0.0,0.0,0.0,0.0,0.0,0.0,0.0,0.0,0.0,0.0,0.0,0.0,0.0,0.0,0.0,0.0,0.0,0.0,0.0,0.0,0.0,0.0,0.0,0.0,0.0,0.0,0.0,0.0,0.0,0.0,0.0,0.0,0.0,0.0,0.0,0.0,0.0,0.0,0.0,0.0,0.0,0.0,0.0,0.0,0.0,0.0,0.0,0.0,0.0,0.0,0.0,0.0,0.0,0.0,0.0,0.0,0.0,0.0,0.0,0.0,0.0,0.0,0.0,0.0,0.0,0.0,0.0,0.0,0.0,0.0,0.0,0.0,0.0,0.0,0.0,0.0,0.0,0.0,0.0,0.0,0.0,0.0,0.0,0.0,0.0,0.0,0.0,0.0,0.0,0.0,0.0,0.0,0.0,0.0,0.0,0.0,0.0,0.0,0.0,0.0,0.0,0.0,0.0,-3.0377,-3.0688,-3.125,-3.125,-3.125,-3.1184,-3.0046,-2.9171,-2.8542,-2.7912,0.0,0.0,0.0,0.0,0.0,0.0,0.0,0.0,0.0,0.0,0.0,0.0,0.0,0.0,0.0,0.0,0.0,0.0,0.0,0.0,0.0,0.0,0.0,0.0,0.0,0.0,0.0,0.0,0.0,0.0,0.0,0.0,0.0,0.0,0.0,0.0,0.0,0.0,-3.8884,-4.0216,-4.0415,-3.9587,-3.7588,0.0,0.0,0.0,0.0,0.0,0.0,0.0,0.0,0.0,0.0,0.0,0.0,0.0,0.0,0.0,0.0,0.0,0.0,0.0,0.0,0.0,0.0,0.0,0.0,0.0,0.0,0.0,0.0,0.0,0.0,0.0,0.0,0.0,0.0,0.0,0.0,0.0,0.0,0.0,0.0,0.0,0.0,0.0,-3.0489,-3.0489,0.0,0.0,0.0,0.0,0.0,0.0,0.0,0.0,0.0,0.0,0.0,0.0,0.0,-3.1139,-3.3061,-3.3116,-3.3458,-3.4154,-3.4154,-3.422,-3.4319,-3.4319,-3.4319,-3.4319,-3.4121,0.0,-2.9251,-2.9185,0.0,0.0,0.0,0.0,0.0,0.0,0.0,0.0,0.0,0.0,0.0,0.0,0.0,0.0,0.0,0.0,0.0,0.0,0.0,0.0,0.0,0.0,0.0,0.0,0.0,0.0,0.0,0.0,0.0,0.0,0.0,0.0,0.0,0.0,0.0,0.0,-3.9328,-4.1011,-4.174,-4.2767,-4.3098,-4.2763,-4.1375,-3.9649,-3.7754,-3.6678,0.0,0.0,0.0,0.0,0.0,0.0,0.0,0.0,0.0,0.0,0.0,0.0,0.0,0.0,0.0,0.0,0.0,0.0,0.0,0.0,0.0,0.0,0.0,0.0,0.0,0.0,0.0,0.0,0.0,0.0,0.0,0.0,0.0,0.0,0.0,0.0,0.0,0.0,0.0,-3.0853,-3.0952,-3.0555,-3.0853,-3.0952,0.0,0.0,0.0,0.0,0.0,0.0,0.0,0.0,0.0,-3.3425,-3.316,-3.3458,-3.4419,-3.4419,-3.4783,-3.5512,-3.5512,-3.5744,-3.6141,-3.6141,-3.6141,-3.6141,-3.6141,-3.4982,-3.2994,-3.1317,-3.0224,-2.9483,0.0,0.0,0.0,0.0,-2.8376,-2.882,0.0,0.0,0.0,0.0,0.0,0.0,0.0,0.0,0.0,0.0,0.0,0.0,0.0,0.0,0.0,-3.8162,0.0,0.0,0.0,0.0,0.0,0.0,0.0,0.0,0.0,0.0,0.0,-3.9023,-4.1939,-4.3827,-4.4724,-4.5682,-4.6013,-4.5781,-4.5052,-4.2804,-3.9493,-3.8195,-3.7334,0.0,0.0,0.0,0.0,0.0,0.0,0.0,0.0,0.0,0.0,0.0,0.0,0.0,0.0,0.0,0.0,0.0,0.0,0.0,0.0,0.0,0.0,0.0,0.0,0.0,0.0,0.0,0.0,0.0,0.0,0.0,0.0,0.0,0.0,0.0,0.0,0.0,0.0,-3.1283,-3.1615,-3.0853,-3.1581,-3.1879,0.0,0.0,0.0,0.0,0.0,0.0,-3.3226,-3.3756,-3.4419,-3.5148,-3.5181,-3.5346,-3.5744,-3.5744,-3.6108,-3.6837,-3.6837,-3.7135,-3.7665,-3.7665,-3.7665,-3.7665,-3.7665,-3.7235,-3.6373,-3.3799,-3.2177,-3.1239,-3.0199,-2.9669,-2.947,-2.9304,-2.9648,-3.0112,0.0,0.0,0.0,0.0,0.0,0.0,0.0,0.0,0.0,0.0,0.0,0.0,0.0,0.0,-4.135,-4.121,-4.1877,-4.174,0.0,0.0,0.0,0.0,0.0,0.0,0.0,0.0,0.0,-4.1243,-4.4191,-4.6378,-4.7802,-4.926,-4.9558,-4.8862,-4.81,-4.6146,-4.3135,-4.0348,-3.9183,-3.8831,0.0,0.0,0.0,0.0,0.0,0.0,0.0,0.0,0.0,0.0,0.0,0.0,0.0,0.0,0.0,0.0,0.0,0.0,0.0,0.0,0.0,0.0,0.0,0.0,0.0,0.0,0.0,0.0,0.0,0.0,0.0,0.0,0.0,0.0,0.0,0.0,0.0,0.0,0.0,-3.1615,-3.2829,0.0,0.0,0.0,0.0,-3.3624,-3.4319,-3.475,-3.4783,-3.4816,-3.5181,-3.5909,-3.5943,-3.6638,-3.8004,-3.803,-3.8394,-3.9149,-3.9149,-3.9149,-3.9183,-3.9183,-3.9183,-3.9183,-3.9183,-3.8758,-3.7996,-3.6439,-3.4916,-3.3624,-3.3557,-3.3094,-3.242,-3.1681,-3.1901,-3.2332,0.0,0.0,0.0,0.0,0.0,0.0,0.0,0.0,0.0,0.0,0.0,0.0,0.0,-4.0729,-4.2261,-4.4059,-4.4026,-4.3297,-4.1839,0.0,0.0,0.0,0.0,0.0,0.0,0.0,-4.2506,-4.4224,-4.8133,-5.032,-5.0817,-5.1347,-5.1479,-5.1148,-4.9955,-4.8564,-4.6908,-4.2999,-4.0845,-3.9785,-3.7096,-3.5869,0.0,0.0,0.0,0.0,0.0,0.0,0.0,0.0,0.0,0.0,0.0,0.0,0.0,0.0,0.0,0.0,0.0,0.0,0.0,0.0,0.0,0.0,0.0,0.0,0.0,0.0,0.0,0.0,0.0,0.0,0.0,0.0,0.0,0.0,0.0,0.0,0.0,-3.4352,-3.4916,0.0,-3.4849,-3.4618,-3.4684,-3.5181,-3.5909,-3.6738,-3.7691,-3.8188,-3.8758,-3.9454,-3.9487,-3.9752,-4.0249,-3.9818,-3.9951,-4.0647,-3.9746,-3.9547,-4.0011,-3.9514,-3.9315,-3.9315,-3.9315,-3.9149,-3.8858,-3.8328,-3.697,-3.5181,-3.4684,-3.4352,-3.4087,-3.3822,-3.4187,-3.4684,0.0,0.0,0.0,0.0,0.0,0.0,0.0,0.0,0.0,0.0,0.0,-3.7873,-4.1152,-4.2638,-4.4278,-4.6344,-4.5491,-4.4271,-4.2969,0.0,0.0,0.0,0.0,0.0,0.0,-4.3098,-4.5582,-4.7272,-5.0949,-5.287,-5.3102,-5.3102,-5.297,-5.2672,-5.1479,-5.0518,-4.9624,-4.6179,-4.3462,-4.1276,-3.8825,-3.7533,-3.6936,0.0,0.0,0.0,0.0,0.0,0.0,0.0,0.0,0.0,0.0,0.0,0.0,0.0,0.0,0.0,0.0,0.0,0.0,0.0,0.0,0.0,0.0,0.0,0.0,0.0,0.0,0.0,0.0,0.0,0.0,0.0,0.0,0.0,0.0,0.0,-3.5545,-3.6274,-3.7036,-3.74,-3.7135,-3.6903,-3.697,-3.7433,-3.8162,-3.899,-3.9951,-4.0448,-4.0945,-4.1409,-4.1409,-4.1409,-4.1409,-4.0945,-4.0945,-4.1409,-4.0448,-4.0249,-4.0713,-4.0011,-3.968,-3.968,-3.9415,-3.9315,-3.9315,-3.9315,-3.8453,-3.7036,-3.6307,-3.5876,-3.5644,-3.5644,-3.5943,-3.6307,0.0,0.0,0.0,0.0,0.0,0.0,0.0,0.0,0.0,0.0,-3.7217,-3.9133,-4.2555,-4.5611,-4.759,-4.8034,-4.6224,-4.465,-4.3671,-3.8939,0.0,0.0,0.0,0.0,-4.148,-4.5185,-4.8133,-5.0286,-5.244,-5.3897,-5.4593,-5.4523,-5.4195,-5.3467,-5.2771,-5.2078,-5.1282,-4.9823,-4.7139,-4.3532,-4.0613,-3.9415,-3.9116,0.0,0.0,0.0,0.0,0.0,0.0,0.0,0.0,0.0,0.0,0.0,0.0,0.0,0.0,0.0,0.0,0.0,0.0,0.0,0.0,0.0,0.0,0.0,0.0,0.0,0.0,0.0,0.0,0.0,0.0,0.0,0.0,0.0,-3.3922,-3.6406,-3.7996,-3.74,-3.9189,-4.0243,-3.9547,-4.0111,-4.0509,-4.0542,-4.1143,-4.148,-4.1541,-4.1541,-4.1541,-4.1508,-4.1508,-4.1508,-4.1508,-4.1446,-4.1446,-4.1508,-4.1413,-4.1413,-4.1413,-4.0713,-4.0409,-4.0376,-3.9613,-3.9315,-3.9315,-3.9315,-3.9315,-3.9249,-3.8526,-3.7798,-3.7168,-3.7168,-3.7168,-3.7168,0.0,0.0,0.0,0.0,0.0,0.0,0.0,0.0,0.0,0.0,-3.714,-3.9826,-4.3585,-4.5793,-4.7704,-4.9393,-4.6618,-4.4479,-4.3649,0.0,0.0,0.0,0.0,0.0,-4.4556,-4.873,-5.1181,-5.1777,-5.446,-5.5885,-5.6084,-5.5554,-5.5487,-5.5719,-5.4494,-5.35,-5.2771,-5.1877,-5.0286,-4.81,-4.4589,-4.1967,-3.9978,0.0,0.0,0.0,0.0,0.0,0.0,0.0,0.0,0.0,0.0,0.0,0.0,0.0,0.0,0.0,0.0,0.0,0.0,0.0,0.0,0.0,0.0,0.0,0.0,0.0,0.0,0.0,0.0,0.0,0.0,0.0,0.0,-3.7003,-3.7003,-3.8162,-3.9686,-4.1579,-4.234,-4.2866,-4.3164,-4.2932,-4.2932,-4.3462,-4.3694,-4.4026,-4.4556,-4.4589,-4.4357,-4.3794,-4.3794,-4.3794,-4.3794,-4.2734,-4.2734,-4.3761,-4.217,-4.1678,-4.2142,-4.0945,-4.0409,-4.0376,-3.9613,-3.9315,-3.9315,-3.9315,-3.9315,-3.9282,-3.9083,-3.8858,-3.8718,-3.8718,-3.8718,-3.8718,0.0,0.0,0.0,0.0,0.0,0.0,0.0,0.0,0.0,0.0,-3.7355,-4.0215,-4.3913,-4.5695,-4.7239,-4.8649,-4.5598,-4.3227,-4.2334,0.0,0.0,0.0,0.0,-4.4907,-4.7139,-5.1181,-5.3434,-5.3732,-5.6017,-5.7144,-5.7144,-5.7044,-5.7044,-5.7111,-5.5951,-5.5024,-5.4258,-5.3599,-5.244,-5.0916,-4.8763,-4.598,-4.2965,-4.1607,-4.058,-3.9719,-3.8659,-3.8692,-3.9116,-3.7823,0.0,0.0,0.0,0.0,0.0,0.0,0.0,0.0,0.0,0.0,0.0,0.0,0.0,0.0,0.0,0.0,0.0,0.0,0.0,0.0,0.0,0.0,0.0,0.0,-3.8593,-3.9885,-4.0779,-4.1011,-4.1839,-4.3827,-4.4324,-4.4688,-4.5119,-4.4787,-4.4688,-4.5119,-4.5152,-4.5351,-4.5781,-4.5781,-4.5582,-4.5152,-4.5152,-4.4986,-4.4688,-4.386,-4.3694,-4.4224,-4.2965,-4.2539,-4.2903,-4.1806,-4.111,-4.0779,-4.0078,-3.958,-3.9315,-3.9315,-3.9315,0.0,0.0,0.0,0.0,0.0,-3.9315,-3.9315,0.0,0.0,0.0,0.0,0.0,0.0,0.0,0.0,0.0,0.0,0.0,-4.011,-4.3387,-4.5055,-4.6001,-4.6288,-4.3624,-4.1445,0.0,0.0,0.0,-4.0805,-4.4299,-4.7235,-4.9425,-5.2937,-5.509,-5.5714,-5.7111,-5.7873,-5.8071,-5.8634,-5.8601,-5.8005,-5.7177,-5.6415,-5.5648,-5.4957,-5.3864,-5.2638,-5.2638,-5.0386,-4.6808,-4.4823,-4.3995,-4.3631,-4.2175,-4.1011,-4.0111,-3.9779,0.0,0.0,0.0,0.0,0.0,0.0,0.0,0.0,0.0,0.0,0.0,0.0,0.0,0.0,0.0,0.0,0.0,0.0,0.0,0.0,0.0,0.0,0.0,0.0,-4.0845,-4.2535,-4.4655,-4.439,-4.4194,-4.4854,-4.5582,-4.6046,-4.6046,-4.6046,-4.6046,-4.6046,-4.6046,-4.6046,-4.6046,0.0,0.0,0.0,0.0,-4.5616,-4.4953,-4.4754,-4.4423,-4.383,-4.3664,-4.3598,-4.3565,-4.2837,-4.2142,-4.1508,-4.0713,-4.0044,-3.9415,-3.9315,-3.9315,-3.9315,-3.9315,-3.9315,-3.9315,-3.9315,-3.9315,-3.9315,0.0,0.0,0.0,0.0,0.0,0.0,0.0,0.0,0.0,-3.4316,-3.6247,-3.8399,-4.0704,-4.2522,-4.3329,-4.2776,-4.1573,-4.0216,0.0,0.0,-4.1619,-4.3685,-4.7251,-5.0007,-5.1711,-5.4725,-5.6349,-5.6481,-5.7376,-5.8403,-5.9562,-5.9098,-5.9131,-5.9529,-5.8171,-5.7177,-5.6448,-5.5719,-5.4924,-5.4096,-5.4096,-5.1578,-4.7736,-4.7305,-4.6411,-4.5185,-4.3698,-4.4158,-4.5052,-4.27,-4.2005,-4.1839,-4.0083,0.0,0.0,0.0,0.0,0.0,0.0,0.0,0.0,0.0,0.0,0.0,0.0,0.0,0.0,0.0,0.0,0.0,0.0,0.0,0.0,-4.164,-4.3098,-4.4622,-4.6245,-4.6344,-4.6311,-4.6444,-4.7139,-4.757,-4.757,-4.757,-4.757,-4.757,-4.757,-4.757,-4.757,-4.757,-4.7305,-4.6709,-4.6676,-4.6609,-4.6477,-4.5284,-4.492,-4.5351,0.0,0.0,-4.3565,-4.2837,-4.2406,-4.2208,-4.0945,-4.0343,-4.0144,-3.9547,-3.9315,-3.9315,-3.9315,-3.9315,-3.9315,-3.9315,-3.9315,-3.9315,0.0,0.0,0.0,0.0,0.0,0.0,0.0,0.0,0.0,0.0,-3.5447,-3.7208,-3.8591,-4.0013,-4.061,-3.9818,-3.8646,0.0,0.0,-4.0324,-4.2532,-4.5355,-4.901,-5.1585,-5.2772,-5.5727,-5.7243,-5.7243,-5.8734,-5.9628,-6.0026,-6.0357,-6.0556,-6.0523,-5.9396,-5.8502,-5.774,-5.6507,-5.5398,-5.4415,-5.4415,-5.2871,-5.0546,-5.0314,-4.9293,-4.7901,-4.7173,-4.6908,-4.6676,-4.5218,-4.4194,-4.3333,-4.1905,-4.0216,-3.8526,0.0,0.0,0.0,0.0,0.0,0.0,0.0,0.0,0.0,0.0,0.0,0.0,0.0,0.0,-3.8427,0.0,0.0,-4.2469,-4.3926,-4.5086,-4.6311,-4.7802,-4.8001,-4.7868,-4.7504,-4.7769,-4.8001,-4.8001,-4.8001,-4.8001,-4.8001,-4.8001,-4.8001,-4.8001,-4.8001,-4.7835,-4.7471,-4.7438,-4.7272,-4.6908,-4.5781,-4.5417,-4.5781,-4.4293,-4.3797,-4.4125,-4.3367,-4.2638,-4.1939,-4.121,-4.0481,-3.9812,-3.9448,-3.9315,-3.9315,-3.9315,-3.9315,-3.9315,-3.9315,-3.9315,-3.9315,0.0,0.0,0.0,0.0,0.0,0.0,0.0,0.0,0.0,0.0,-3.4643,-3.5927,-3.6527,-3.7527,-3.7857,0.0,0.0,0.0,0.0,-4.0907,-4.3485,-4.7114,-5.0755,-5.3134,-5.4052,-5.6659,-5.8071,-5.8237,-6.0026,-6.0655,-6.0258,-6.1417,-6.1649,-6.1086,-6.0191,-5.9529,-5.9025,-5.738,-5.5994,-5.4891,-5.4962,-5.4395,-5.3538,-5.3004,-5.191,-5.0585,-5.032,-4.8696,-4.6709,-4.6841,-4.545,-4.3499,-4.3069,-4.1939,-4.0514,-3.9056,-3.7897,0.0,0.0,0.0,0.0,0.0,0.0,0.0,0.0,0.0,-3.7235,-3.856,-3.952,-4.0481,-4.164,-4.3035,-4.4522,-4.598,-4.6841,-4.7802,-4.9127,-4.9326,-4.9061,-4.8299,-4.8332,-4.8365,-4.8233,-4.8233,-4.8166,-4.8001,-4.8001,-4.8001,-4.8001,-4.8001,-4.8001,-4.8001,-4.8001,-4.7703,-4.7106,-4.6378,-4.5947,-4.5781,-4.4456,-4.4059,-4.4456,-4.3863,-4.2936,-4.1811,-4.1513,-4.068,-3.9514,-3.9348,-3.9315,-3.9315,-3.9315,-3.9315,-3.9315,-3.9315,-3.9315,-3.9315,0.0,0.0,0.0,0.0,0.0,0.0,0.0,0.0,0.0,0.0,0.0,0.0,0.0,0.0,0.0,0.0,0.0,0.0,-3.9118,-4.2435,-4.6166,-5.0303,-5.3455,-5.5806,-5.7252,-5.8263,-5.9098,-5.9761,-5.9993,-6.0423,-6.0986,-6.1152,-6.1185,-6.1053,-5.9628,-5.933,-5.9794,-5.829,-5.7404,-5.7071,-5.7336,-5.6414,-5.4924,-5.4453,-5.34,-5.1976,-5.0684,-4.8365,-4.6013,-4.6676,-4.545,-4.3698,-4.4257,-4.3462,-4.2005,-4.0547,0.0,-3.6936,-3.6108,-3.5446,-3.5313,-3.6539,-3.6439,-3.6671,0.0,0.0,-4.0117,-4.0912,-4.2142,-4.3168,-4.33,-4.4556,-4.6046,-4.7504,-4.8365,-4.916,-4.9988,-5.0088,-4.9823,-4.9061,-4.9558,-4.9723,-4.9061,-4.8995,-4.873,-4.8067,-4.8001,-4.8001,-4.8001,-4.8001,-4.8001,-4.8001,-4.8001,-4.7968,-4.7868,-4.7139,-4.6444,-4.5781,-4.4953,-4.4291,-4.3698,-4.3631,-4.3499,-4.3267,-4.1943,-4.0978,-4.0243,-3.958,-3.9315,-3.9315,-3.9315,-3.9315,-3.9315,-3.9315,-3.9315,-3.9315,0.0,0.0,0.0,0.0,0.0,0.0,0.0,0.0,0.0,0.0,0.0,0.0,0.0,0.0,0.0,0.0,0.0,0.0,-3.9657,-4.2052,-4.534,-4.9831,-5.2629,-5.4713,-5.6214,-5.7986,-5.9065,-5.9363,-6.0622,-6.0986,-6.049,-6.1318,-6.1516,-6.1053,-6.0026,-5.9728,-5.9852,-5.7846,-5.6906,-5.6811,-5.6466,-5.5668,-5.4575,-5.363,-5.2108,-5.0353,-4.9293,-4.7305,0.0,0.0,-4.436,-4.3631,-4.3959,-4.3065,-4.1674,-4.068,-3.9123,0.0,-3.6837,-3.6406,0.0,0.0,-3.8162,-3.909,-4.1143,-4.1607,-4.1939,-4.3098,-4.4158,-4.5019,-4.545,-4.6742,-4.7934,0.0,-4.926,-5.0021,-5.0717,-5.0485,-5.0088,-4.979,-5.0021,-4.9922,-4.9193,-4.873,-4.8498,-4.863,-4.8233,-4.8001,-4.8001,-4.8001,-4.8001,-4.8001,-4.8001,-4.8001,-4.8001,-4.7272,-4.6974,-4.7073,-4.545,-4.4754,-4.4854,-4.3962,-4.3135,-4.2241,-4.1243,-4.0415,-3.9779,-3.9912,-3.968,-3.9315,-3.9315,-3.9315,-3.9315,-3.9315,-3.9315,-3.9315,0.0,0.0,0.0,0.0,0.0,0.0,0.0,0.0,0.0,0.0,0.0,0.0,0.0,0.0,0.0,0.0,0.0,0.0,0.0,-4.094,-4.3853,-4.8132,-5.1205,-5.3363,-5.4505,-5.7192,-5.8547,-5.8502,-6.0407,-6.0721,-5.9728,-6.0788,-6.0986,-6.0456,-5.9728,-5.9496,-5.9554,-5.7626,-5.6661,-5.6316,-5.5848,-5.4865,-5.3506,-5.2017,-4.9988,-4.7835,-4.7272,-4.5284,0.0,0.0,-4.2307,-4.191,-4.2535,-4.1972,-4.1044,-4.0542,-3.9189,-3.7798,-3.7268,0.0,0.0,-3.8825,-4.005,-4.1342,-4.28,-4.3264,-4.3794,-4.5019,-4.5881,-4.6576,-4.7106,-4.8067,-4.8928,-4.9359,-4.9856,-5.0452,-5.1216,-5.0651,-5.0055,-4.9657,-4.9425,-4.916,-4.8829,-4.8498,-4.8431,-4.8763,-4.8299,-4.8001,-4.8001,-4.8001,-4.8001,-4.8001,-4.8001,-4.8001,-4.8001,-4.7471,-4.7371,-4.7669,-4.5847,-4.5152,-4.545,-4.4191,-4.2903,-4.1645,-4.0978,-4.0348,-3.9912,-4.0276,-4.021,-3.9879,-3.968,-3.9613,-3.958,-3.9381,-3.9315,-3.9315,0.0,0.0,0.0,0.0,0.0,0.0,0.0,0.0,0.0,0.0,0.0,0.0,0.0,0.0,0.0,0.0,0.0,0.0,0.0,-3.9259,-4.2328,-4.565,-5.0039,-5.2656,-5.3174,-5.6221,-5.7738,-5.7534,-5.8527,-5.8966,-5.8933,-5.8966,-5.8999,-5.8933,-5.8204,-5.827,-5.8866,-5.8065,-5.7182,-5.6349,-5.6553,-5.482,-5.1874,-4.9941,-4.7371,-4.4821,-4.4787,0.0,0.0,0.0,-3.9056,-3.7665,-3.9846,-4.0475,0.0,-4.0409,-3.8858,0.0,0.0,0.0,-3.8692,-4.0779,-4.1844,-4.2804,-4.4291,-4.5185,-4.5914,-4.6676,-4.7404,-4.7934,-4.7968,-4.8001,-4.8498,-4.9955,-5.0187,-5.0452,-5.1216,-5.0651,-4.969,-4.8233,-4.7438,-4.7272,0.0,-4.8663,-4.8796,-4.81,-4.8001,-4.8001,-4.8001,-4.8001,-4.8001,-4.8001,-4.8001,-4.8001,-4.8001,-4.7968,-4.7636,-4.6908,-4.6146,-4.5384,-4.4688,-4.3959,-4.3168,-4.2406,-4.1707,-4.1375,-4.1309,-4.0647,-4.0779,-4.1276,-4.0613,-4.0376,-4.0276,-3.958,-3.9315,-3.9315,0.0,0.0,0.0,0.0,0.0,0.0,0.0,0.0,0.0,0.0,0.0,0.0,0.0,0.0,0.0,0.0,0.0,0.0,0.0,-3.8163,-4.0481,-4.3334,-4.635,-4.8668,-5.0161,-5.2359,-5.3699,-5.4031,-5.583,-5.6216,-5.5289,-5.6249,-5.6481,-5.5984,-5.5719,-5.6017,-5.668,-5.5918,-5.4868,-5.3687,-5.3258,-5.1303,-4.8392,-4.6251,-4.4257,-4.2204,0.0,0.0,0.0,0.0,0.0,0.0,-3.7665,0.0,0.0,-3.8063,0.0,0.0,0.0,0.0,-4.2075,-4.3297,-4.4887,-4.6411,-4.7404,-4.7802,-4.7934,-4.7669,-4.704,-4.6378,-4.5881,-4.6212,-4.7007,-4.8498,-4.9558,-5.0452,-5.1216,-5.0651,-4.9491,-4.7504,-4.7471,0.0,0.0,0.0,0.0,-4.8663,-4.8299,-4.8001,-4.8001,-4.8001,-4.8001,-4.8001,-4.8001,-4.8001,-4.8001,-4.8001,-4.7868,-4.7636,-4.6378,-4.5152,-4.3959,-4.3201,-4.2738,-4.244,-4.174,-4.1409,-4.1375,-4.068,-4.0542,-4.0647,-3.9945,-3.968,-3.9713,-3.9945,-3.9713,-3.9315,0.0,0.0,0.0,0.0,0.0,0.0,0.0,0.0,0.0,0.0,0.0,0.0,0.0,0.0,0.0,0.0,0.0,0.0,0.0,0.0,-3.7623,-3.9782,-4.2004,-4.3952,-4.5659,-4.7666,-4.8946,-4.9483,-5.1484,-5.2009,-5.1115,-5.234,-5.2638,-5.2175,-5.2175,-5.2428,-5.2836,-5.2116,-5.1292,-5.0371,-4.9383,-4.7539,-4.5086,-4.2899,-4.1143,0.0,0.0,0.0,0.0,0.0,0.0,0.0,0.0,0.0,0.0,0.0,0.0,0.0,0.0,-4.2734,-4.4655,-4.5616,-4.7338,-4.8862,-4.9061,-4.8895,-4.8431,-4.7404,-4.6245,-4.5185,-4.4456,-4.4688,-4.5483,-4.6974,-4.8001,-4.9061,-5.032,-4.9657,-4.8597,-4.7438,-4.7239,-4.6941,0.0,0.0,0.0,-4.863,-4.8531,-4.8299,-4.8001,-4.8266,-4.8266,-4.8001,-4.8001,-4.8001,-4.8001,-4.8001,-4.7736,-4.7206,-4.6245,-4.5019,-4.3565,-4.3102,-4.2738,-4.2473,-4.1976,-4.1778,-4.174,-4.1044,-4.0912,-4.1077,-4.0315,-4.005,-4.0083,-4.058,-4.0448,-4.0017,0.0,0.0,0.0,0.0,0.0,0.0,0.0,0.0,0.0,0.0,0.0,0.0,0.0,0.0,0.0,0.0,0.0,0.0,0.0,0.0,0.0,-3.5312,-3.7391,-3.9007,-4.009,-4.2362,-4.3751,-4.4037,-4.5766,-4.6545,-4.6478,-4.7272,-4.7603,-4.757,-4.7603,-4.7638,-4.7617,-4.7033,-4.6675,-4.6414,-4.5114,-4.3637,-4.191,-3.9852,0.0,0.0,0.0,0.0,0.0,0.0,0.0,0.0,0.0,0.0,0.0,0.0,0.0,-4.0812,-4.2369,-4.439,-4.6411,-4.7835,-4.926,-5.0121,-4.9293,-4.8498,-4.7537,-4.6046,-4.5086,-4.4291,0.0,0.0,-4.3962,-4.5483,-4.5814,-4.6676,-4.8862,-4.7968,-4.7371,0.0,0.0,0.0,0.0,0.0,0.0,-4.8067,0.0,-4.8796,-4.8034,-4.8696,-4.8763,-4.8034,-4.8001,-4.8001,-4.8001,-4.8001,-4.7272,-4.5781,-4.5781,-4.5019,-4.3598,-4.3598,-4.3201,-4.2539,-4.2506,-4.2506,-4.2506,-4.174,-4.1811,-4.2377,-4.165,-4.1352,-4.1352,-4.1385,-4.1385,-4.1253,0.0,0.0,0.0,0.0,0.0,0.0,0.0,0.0,0.0,0.0,0.0,0.0,0.0,0.0,0.0,0.0,0.0,0.0,0.0,0.0,0.0,0.0,0.0,0.0,0.0,0.0,0.0,0.0,0.0,-4.1681,-4.0664,-4.1828,-4.2038,-4.1536,-4.2071,-4.2613,-4.3125,-4.3487,-4.2697,-4.1214,0.0,-3.9511,-3.7533,0.0,0.0,0.0,0.0,0.0,0.0,0.0,0.0,0.0,0.0,0.0,-3.7433,0.0,0.0,-4.2667,-4.5748,-4.8199,-4.9989,-5.0387,-5.1148,-5.1347,-4.9525,-4.81,-4.6742,-4.5284,-4.3529,-4.2038,0.0,0.0,0.0,-4.4655,-4.6344,0.0,-4.969,-5.0055,0.0,-4.8928,0.0,-4.8961,-4.8564,-4.9061,0.0,0.0,-4.9326,-4.8796,-4.8034,-4.8696,-4.8763,-4.8034,-4.8001,-4.8001,-4.8001,-4.8001,-4.7272,-4.5781,-4.5781,-4.5019,-4.3598,-4.3598,-4.3499,-4.3267,-4.2738,-4.2804,-4.3201,-4.191,-4.1551,-4.1694,-4.0915,-4.0622,-4.072,-4.1271,-4.114,-4.0688,0.0,0.0,0.0,0.0,0.0,0.0,0.0,0.0,0.0,0.0,0.0,0.0,0.0,0.0,0.0,0.0,0.0,0.0,0.0,0.0,0.0,0.0,0.0,0.0,0.0,0.0,0.0,0.0,0.0,0.0,0.0,-3.7503,-3.7665,-3.7492,-3.7939,-3.8532,-3.917,-3.9263,0.0,0.0,0.0,0.0,0.0,0.0,0.0,0.0,0.0,0.0,0.0,0.0,0.0,-3.7036,-3.7334,-3.8394,-3.9852,-4.1707,0.0,-4.5516,-4.8233,-5.0551,-5.2142,-5.1879,-5.2075,-5.1746,-4.9193,-4.7471,-4.5814,-4.3694,-4.2038,0.0,0.0,0.0,0.0,0.0,0.0,0.0,-4.9392,-4.979,-4.9889,0.0,-5.0154,0.0,-4.9624,-4.9988,-5.022,0.0,-5.0121,-4.9591,-4.8531,-4.9193,-4.9094,-4.8034,-4.8001,-4.8001,-4.8001,-4.8001,-4.7272,-4.5781,-4.5781,-4.5019,-4.3598,-4.3598,-4.3598,-4.3565,0.0,-4.3201,-4.3499,-4.234,-4.1873,-4.1877,-4.1154,-4.0871,-4.0906,-4.137,-4.1245,-4.0893,0.0,0.0,0.0,0.0,0.0,0.0,0.0,0.0,0.0,0.0,0.0,0.0,0.0,0.0,0.0,0.0,0.0,0.0,0.0,0.0,0.0,0.0,0.0,0.0,0.0,0.0,0.0,0.0,0.0,0.0,0.0,0.0,0.0,0.0,0.0,0.0,0.0,0.0,0.0,0.0,0.0,0.0,0.0,0.0,0.0,0.0,0.0,0.0,0.0,0.0,-3.7731,-3.8626,-3.9322,-4.0978,-4.2969,-4.4655,-4.6477,-4.8398,-5.0286,-5.2142,-5.3434,-5.2804,-5.2373,-5.1347,-4.8498,-4.6411,-4.4324,-4.1674,0.0,-3.9912,-3.9282,0.0,-4.0878,-4.2373,0.0,-4.5121,-4.8763,-4.8796,-4.9193,-5.1216,-5.0883,-5.0485,-5.0485,-5.0485,-5.0485,-5.0485,-5.1082,-5.075,-4.9193,-4.9723,-4.9425,-4.8034,-4.8001,-4.8001,-4.8001,-4.8001,-4.7305,-4.5947,-4.5847,-4.5086,-4.3731,-4.3631,-4.3598,-4.3598,-4.3598,-4.3598,-4.3532,-4.2903,-4.2609,-4.2462,-4.1859,-4.1585,-4.1495,-4.15,-4.1459,-4.1266,0.0,0.0,0.0,0.0,0.0,0.0,0.0,0.0,0.0,0.0,-3.1511,-3.1511,0.0,0.0,0.0,0.0,0.0,0.0,0.0,0.0,0.0,0.0,0.0,0.0,0.0,0.0,0.0,0.0,0.0,0.0,0.0,0.0,0.0,0.0,0.0,0.0,0.0,0.0,0.0,0.0,0.0,0.0,0.0,0.0,0.0,0.0,0.0,0.0,0.0,0.0,-3.8394,-4.0144,-4.0812,-4.2109,-4.3929,-4.6643,-4.7703,-4.8829,-5.2738,-5.4063,-5.4258,-5.4162,-5.234,-4.9988,-4.7636,-4.4092,0.0,0.0,0.0,-3.856,-3.8427,-3.9487,0.0,-4.3069,0.0,0.0,0.0,0.0,-5.1116,0.0,0.0,0.0,0.0,0.0,0.0,0.0,0.0,-5.128,-4.9226,-4.9226,-4.8895,-4.8034,-4.8001,-4.8001,-4.8001,-4.8001,-4.757,-4.6709,-4.6079,-4.5351,-4.4489,-4.3893,-4.3598,-4.3598,-4.3598,0.0,-4.3598,-4.3466,-4.3068,-4.2546,-4.2453,-4.2045,-4.1498,-4.1526,-4.116,-4.0653,0.0,0.0,0.0,0.0,0.0,0.0,0.0,0.0,-3.163,-3.1959,-3.172,-3.1511,-3.1511,-3.1511,0.0,0.0,0.0,0.0,0.0,0.0,0.0,0.0,0.0,0.0,0.0,0.0,0.0,0.0,0.0,0.0,0.0,0.0,0.0,0.0,0.0,0.0,0.0,0.0,0.0,0.0,0.0,0.0,0.0,0.0,0.0,0.0,0.0,0.0,0.0,0.0,-3.856,-4.0575,-4.164,-4.3529,-4.5682,-4.7471,-4.9094,-5.0817,-5.3268,-5.4792,-5.5388,-5.4229,-5.2042,-4.9425,-4.6411,0.0,0.0,0.0,0.0,-3.8328,-3.8692,0.0,0.0,0.0,0.0,0.0,0.0,0.0,0.0,0.0,0.0,0.0,0.0,0.0,0.0,0.0,0.0,-5.1181,-4.9756,-4.8961,-4.8365,-4.8001,-4.8001,-4.8001,-4.8001,-4.8001,-4.7636,-4.6874,-4.6146,-4.5384,-4.4655,-4.3959,-4.3598,-4.3598,-4.3598,0.0,-4.4158,-4.4158,-4.4207,-4.4227,-4.3879,-4.3299,-4.2556,-4.1794,-4.1131,-4.0443,0.0,0.0,0.0,0.0,0.0,0.0,0.0,-3.163,-3.1899,-3.2437,-3.2019,-3.172,-3.172,-3.16,-3.1511,0.0,0.0,0.0,0.0,0.0,0.0,0.0,0.0,0.0,0.0,0.0,0.0,0.0,0.0,0.0,0.0,0.0,0.0,0.0,0.0,0.0,0.0,0.0,0.0,0.0,0.0,0.0,0.0,0.0,0.0,0.0,0.0,0.0,0.0,0.0,-3.8129,-3.9918,-4.1177,-4.3827,-4.6609,-4.7504,-4.9856,-5.2373,-5.3367,-5.5024,-5.5984,-5.393,-5.1413,-4.863,-4.5218,-4.2104,0.0,0.0,-3.8493,-3.8394,-3.8984,0.0,0.0,0.0,0.0,0.0,0.0,0.0,0.0,0.0,0.0,0.0,0.0,0.0,0.0,0.0,0.0,0.0,-5.0021,-4.873,-4.8001,-4.8001,-4.8001,-4.8001,-4.8001,-4.8001,-4.7703,-4.7139,-4.6378,-4.5715,-4.5119,-4.4257,-4.3896,-4.4062,-4.3896,0.0,0.0,-4.492,-4.5284,-4.575,-4.5243,-4.4464,-4.3555,-4.2445,-4.1383,-4.041,0.0,0.0,0.0,0.0,0.0,0.0,0.0,-3.2019,-3.2437,-3.2497,-3.2437,-3.2407,-3.2407,-3.1869,-3.1511,0.0,0.0,0.0,0.0,0.0,0.0,0.0,0.0,0.0,0.0,0.0,0.0,0.0,0.0,0.0,0.0,0.0,0.0,0.0,0.0,0.0,0.0,0.0,0.0,0.0,0.0,0.0,0.0,0.0,0.0,0.0,0.0,0.0,0.0,0.0,0.0,-3.7533,-3.8335,-4.1508,-4.5152,-4.6576,0.0,0.0,-5.3864,-5.5019,-5.5317,-5.3798,-5.0286,-4.6576,-4.4227,0.0,0.0,0.0,-3.7798,-3.8228,-3.8295,-3.8891,-3.9846,0.0,0.0,0.0,0.0,0.0,0.0,0.0,0.0,0.0,0.0,0.0,0.0,0.0,0.0,0.0,-4.9293,-4.8431,-4.8001,-4.8001,-4.8001,-4.8001,-4.8001,-4.8001,-4.7968,-4.7901,-4.7139,-4.6742,-4.6643,-4.5218,-4.4953,-4.5549,-4.4887,0.0,0.0,-4.5682,-4.5715,-4.5781,-4.5719,-4.4854,-4.3585,-4.3447,-4.2164,-4.0417,0.0,0.0,0.0,0.0,0.0,0.0,0.0,-3.172,-3.2168,-3.3006,-3.2378,-3.2198,-3.3006,-3.2138,-3.1511,0.0,0.0,0.0,0.0,0.0,0.0,0.0,0.0,0.0,0.0,0.0,0.0,0.0,0.0,0.0,0.0,0.0,0.0,0.0,0.0,0.0,0.0,0.0,0.0,0.0,0.0,0.0,0.0,0.0,0.0,0.0,0.0,0.0,0.0,0.0,0.0,0.0,-3.5744,-3.7963,0.0,0.0,-4.6344,-4.9127,-5.1313,-5.3069,-5.393,-5.2473,-4.9491,-4.6212,-4.3532,0.0,0.0,-3.7831,-3.7996,-3.8361,-3.8758,-3.9116,-3.9481,0.0,0.0,0.0,0.0,0.0,0.0,0.0,0.0,0.0,0.0,0.0,0.0,0.0,0.0,0.0,-4.9823,-4.9061,-4.8465,-4.8001,-4.8001,-4.8001,-4.8001,-4.8001,-4.8001,-4.8001,-4.7239,-4.6908,-4.6874,-4.5814,-4.5516,-4.5781,-4.5483,0.0,0.0,-4.5734,-4.5731,-4.5747,-4.5747,-4.4859,-4.3542,-4.3091,-4.1908,-4.0416,0.0,0.0,0.0,0.0,0.0,-3.1511,-3.1511,-3.166,-3.2138,-3.3095,-3.2378,-3.2138,-3.3095,-3.2168,-3.1511,-3.1511,0.0,0.0,0.0,0.0,0.0,0.0,0.0,0.0,0.0,0.0,0.0,0.0,0.0,0.0,0.0,0.0,0.0,0.0,0.0,0.0,0.0,0.0,0.0,0.0,0.0,0.0,0.0,0.0,0.0,0.0,0.0,0.0,0.0,0.0,0.0,0.0,0.0,0.0,0.0,0.0,-4.3628,-4.6709,-4.8962,-5.0949,-5.2175,-5.0949,-4.8431,-4.5483,0.0,0.0,-3.8394,-3.7937,-3.8228,-3.8659,-3.9216,-3.9315,-3.9315,0.0,0.0,0.0,0.0,0.0,0.0,0.0,0.0,0.0,0.0,0.0,0.0,0.0,0.0,0.0,-5.0253,-4.9723,-4.8995,-4.8034,-4.8001,-4.8001,-4.8001,-4.8001,-4.8001,-4.8001,-4.7471,-4.7239,-4.7206,-4.6245,-4.6046,-4.6411,-4.5726,0.0,0.0,-4.5778,-4.5684,-4.5665,-4.5476,-4.4638,-4.3474,-4.2762,-4.1633,-4.04,0.0,0.0,0.0,0.0,0.0,0.0,0.0,-3.2049,-3.2467,-3.2497,-3.2527,-3.2467,-3.2497,-3.1899,-3.1511,-3.1511,0.0,0.0,0.0,0.0,0.0,0.0,0.0,0.0,0.0,0.0,-3.1511,-3.1511,-3.1511,0.0,0.0,0.0,0.0,0.0,0.0,0.0,0.0,0.0,0.0,0.0,0.0,0.0,0.0,0.0,0.0,0.0,0.0,0.0,0.0,0.0,0.0,0.0,0.0,0.0,0.0,0.0,-4.1309,-4.5185,-4.7404,-4.9094,-5.0055,-4.9326,-4.6908,-4.3989,0.0,0.0,-3.8884,-3.74,-3.8261,-3.9282,-3.9315,-3.9315,-3.9315,-3.9315,0.0,0.0,0.0,0.0,0.0,0.0,0.0,0.0,0.0,0.0,0.0,0.0,0.0,0.0,-5.0286,-5.022,-4.9525,-4.8067,-4.8001,-4.8001,-4.8001,-4.8001,-4.8001,-4.8001,-4.8001,-4.8001,-4.7934,-4.6477,-4.6609,-4.7869,0.0,0.0,0.0,-4.5989,-4.5697,-4.5634,-4.4974,-4.4225,-4.3402,-4.2761,-4.1614,-4.0397,0.0,0.0,0.0,0.0,0.0,0.0,0.0,-3.169,-3.1959,-3.2467,-3.2079,-3.1989,-3.2437,-3.1899,-3.1511,-3.1511,0.0,0.0,0.0,0.0,0.0,0.0,0.0,0.0,0.0,0.0,-3.1511,-3.1511,-3.1511,-3.1511,-3.1511,0.0,0.0,0.0,0.0,0.0,0.0,0.0,0.0,0.0,0.0,0.0,0.0,0.0,0.0,0.0,0.0,0.0,0.0,0.0,0.0,0.0,0.0,0.0,0.0,0.0,0.0,0.0,-4.3032,-4.4589,-4.5518,-4.4757,-4.3529,-4.1839,-3.9454,0.0,-3.8261,-3.7301,-3.7864,-3.8692,-3.9216,-3.9315,-3.9315,-3.9315,-3.9315,0.0,0.0,0.0,0.0,0.0,0.0,0.0,0.0,0.0,0.0,0.0,0.0,0.0,-5.0286,-5.022,-4.9525,-4.8067,-4.8001,-4.8001,-4.8001,-4.8001,-4.8001,-4.8001,-4.8001,-4.8001,-4.7968,-4.7504,-4.757,0.0,0.0,0.0,0.0,-4.5805,-4.5073,-4.4021,-4.3388,-4.269,-4.201,-4.1314,-4.0497,-3.9738,0.0,0.0,0.0,0.0,0.0,0.0,0.0,-3.1511,-3.166,-3.2049,-3.175,-3.166,-3.2079,-3.175,-3.1511,-3.1511,0.0,0.0,0.0,0.0,0.0,0.0,0.0,0.0,0.0,-3.1511,-3.1511,-3.1511,-3.175,-3.1869,-3.1869,-3.1869,-3.1869,0.0,0.0,0.0,0.0,0.0,0.0,0.0,0.0,0.0,-3.2355,0.0,0.0,0.0,0.0,0.0,0.0,0.0,0.0,0.0,0.0,0.0,0.0,0.0,0.0,0.0,0.0,-4.1475,-4.2303,-4.1839,-4.1143,0.0,0.0,0.0,-3.7731,-3.7566,-3.7871,-3.8427,-3.9183,-3.9315,-3.9315,-3.9315,-3.9315,0.0,0.0,0.0,0.0,0.0,0.0,0.0,0.0,0.0,0.0,0.0,0.0,0.0,-4.9856,-4.979,-4.926,-4.8034,-4.8001,-4.8001,-4.8001,-4.8001,-4.8001,-4.8001,-4.8001,-4.8001,-4.7968,-4.7404,-4.7471,0.0,0.0,0.0,0.0,-4.5478,-4.4662,-4.3642,-4.2496,-4.1782,-4.1265,-4.0367,-3.9768,-3.9373,0.0,0.0,0.0,0.0,0.0,0.0,0.0,0.0,0.0,-3.1511,-3.1511,-3.1511,-3.1511,-3.1511,-3.1511,0.0,0.0,0.0,0.0,0.0,0.0,0.0,0.0,0.0,0.0,-3.1511,-3.1511,-3.1511,-3.2108,-3.2437,-3.2437,-3.2437,-3.2437,-3.2378,-3.178,-3.1511,-3.1511,-3.1451,-3.1092,-3.0642,-3.1241,-3.1824,0.0,0.0,0.0,0.0,0.0,0.0,0.0,0.0,0.0,0.0,0.0,0.0,0.0,0.0,0.0,0.0,0.0,0.0,0.0,0.0,0.0,0.0,0.0,0.0,0.0,-3.8037,-3.8162,-3.8361,-3.9149,-3.9315,-3.9315,-3.9315,0.0,0.0,0.0,0.0,0.0,0.0,0.0,0.0,0.0,0.0,0.0,0.0,0.0,0.0,-4.916,-4.9094,-4.8763,-4.8034,-4.8001,-4.8001,-4.8001,-4.8001,-4.8001,-4.8001,-4.8001,-4.8001,-4.7968,-4.6576,-4.6709,0.0,0.0,0.0,0.0,-4.5159,-4.4486,-4.425,-4.2206,-4.1354,-4.1145,-3.9888,-3.9373,-3.9373,0.0,0.0,0.0,0.0,0.0,0.0,0.0,0.0,0.0,0.0,-3.1511,-3.1511,-3.1511,-3.1511,-3.1511,0.0,0.0,0.0,0.0,0.0,0.0,0.0,0.0,0.0,0.0,-3.1511,-3.1511,-3.1511,-3.166,-3.175,-3.175,-3.175,-3.175,-3.172,-3.157,-3.1511,-3.1481,-3.0943,-3.0943,-3.1271,-3.1451,-3.1597,0.0,0.0,0.0,0.0,-3.2656,-3.3324,0.0,0.0,0.0,0.0,0.0,0.0,0.0,0.0,-3.5015,0.0,-3.5777,0.0,-3.6903,-3.634,0.0,0.0,0.0,0.0,0.0,0.0,0.0,0.0,0.0,0.0,0.0,0.0,0.0,0.0,0.0,0.0,0.0,0.0,0.0,0.0,0.0,0.0,0.0,0.0,0.0,-4.9889,-4.916,-4.9094,-4.8763,-4.8034,-4.8001,-4.8001,-4.8001,-4.8001,-4.8001,-4.8001,-4.8001,-4.8001,-4.8001,-4.7636,-4.7669,0.0,0.0,0.0,-4.6694,-4.5203,-4.4226,-4.3574,-4.2025,-4.1085,-4.0516,-3.9709,-3.9373,-3.9373,0.0,0.0,0.0,0.0,0.0,0.0,0.0,0.0,0.0,0.0,0.0,0.0,0.0,0.0,0.0,0.0,0.0,0.0,0.0,0.0,0.0,0.0,0.0,0.0,-3.1511,-3.1511,-3.1511,-3.1511,-3.1809,-3.2108,-3.2407,-3.2079,-3.2108,-3.2378,-3.178,-3.1511,-3.1481,-3.1092,-3.1152,-3.1511,-3.1511,0.0,0.0,0.0,0.0,0.0,-3.2382,-3.314,0.0,-3.4101,-3.4448,-3.4883,0.0,0.0,0.0,0.0,-3.4883,-3.4883,-3.4883,-3.5446,-3.5909,-3.5512,-3.5711,-3.6108,0.0,0.0,0.0,0.0,0.0,0.0,0.0,0.0,0.0,0.0,0.0,0.0,0.0,0.0,0.0,0.0,0.0,0.0,0.0,0.0,0.0,0.0,0.0,-4.8454,-4.8061,-4.8028,-4.7728,-4.6963,-4.727,-4.7438,-4.7438,-4.7836,-4.7638,-4.6963,-4.7671,-4.7638,-4.6931,-4.6683,-4.6881,0.0,0.0,0.0,-4.6243,-4.4779,-4.372,-4.2898,-4.1482,-4.0726,-4.0337,-3.9679,-3.9373,-3.9373,0.0,0.0,0.0,0.0,0.0,0.0,0.0,0.0,0.0,0.0,0.0,0.0,0.0,0.0,0.0,0.0,0.0,0.0,0.0,0.0,0.0,0.0,0.0,-3.1511,-3.1511,-3.1511,-3.1511,-3.1511,-3.2168,-3.2796,-3.3335,-3.2886,-3.2916,-3.3275,-3.2049,-3.1511,-3.1511,-3.1511,-3.1511,-3.1511,-3.1511,0.0,0.0,0.0,0.0,0.0,0.0,0.0,0.0,-3.3848,-3.4275,-3.4763,-3.4667,0.0,0.0,0.0,0.0,0.0,-3.5048,-3.5611,-3.6108,-3.5876,-3.6009,-3.634,0.0,0.0,0.0,0.0,0.0,0.0,0.0,0.0,0.0,0.0,0.0,0.0,0.0,0.0,0.0,0.0,0.0,0.0,0.0,0.0,0.0,0.0,0.0,-4.6759,-4.6655,-4.6622,-4.6375,-4.5733,-4.6304,-4.6521,-4.6287,-4.7204,-4.6997,-4.5697,-4.6902,-4.6801,-4.5543,-4.4902,-4.5236,-4.6203,0.0,0.0,-4.5364,-4.3876,-4.2899,-4.2227,-4.0909,-4.0337,-4.0187,-3.9619,-3.9373,-3.9373,0.0,0.0,0.0,0.0,0.0,0.0,0.0,0.0,0.0,0.0,0.0,0.0,0.0,0.0,0.0,0.0,0.0,0.0,0.0,0.0,0.0,0.0,-3.1511,-3.1511,-3.1511,-3.1511,-3.1511,-3.1511,-3.2168,-3.2557,-3.2677,-3.3125,-3.3095,-3.2647,-3.1839,-3.1511,-3.1511,-3.1511,-3.1511,-3.1511,-3.1511,0.0,0.0,0.0,0.0,0.0,0.0,0.0,0.0,-3.2656,-3.3351,-3.4118,-3.363,0.0,0.0,0.0,0.0,0.0,-3.5644,-3.6373,-3.6638,-3.5379,-3.6009,-3.697,0.0,0.0,0.0,0.0,0.0,0.0,0.0,0.0,0.0,0.0,0.0,0.0,0.0,0.0,0.0,0.0,0.0,0.0,0.0,0.0,0.0,0.0,0.0,-4.655,-4.5913,-4.5877,-4.5805,-4.5697,-4.5805,-4.5268,-4.4018,-4.5376,-4.5949,-4.5697,-4.5345,-4.5059,-4.4816,-4.4167,-4.3981,-4.414,0.0,-4.3248,-4.3881,-4.2358,-4.1758,-4.1648,-4.0758,-4.0068,-3.9559,-3.9469,-3.9373,-3.9337,0.0,0.0,0.0,0.0,0.0,0.0,0.0,0.0,0.0,0.0,0.0,0.0,0.0,0.0,0.0,0.0,0.0,0.0,0.0,0.0,0.0,-3.1511,-3.1511,-3.1511,-3.1511,-3.1839,-3.2019,-3.2019,-3.2706,-3.3215,-3.3574,-3.3514,-3.2946,-3.1959,-3.163,-3.1511,-3.1511,-3.1511,-3.1511,-3.1511,0.0,0.0,0.0,0.0,0.0,0.0,0.0,0.0,0.0,0.0,-3.2953,-3.3553,-3.3287,0.0,0.0,0.0,0.0,0.0,-3.5241,-3.5943,-3.634,-3.5678,-3.6605,-3.7599,0.0,0.0,0.0,0.0,0.0,0.0,0.0,0.0,0.0,0.0,0.0,0.0,0.0,0.0,0.0,0.0,0.0,0.0,0.0,0.0,0.0,0.0,0.0,0.0,-4.5073,-4.5073,-4.4732,-4.3949,-4.4291,-4.3834,-4.2372,-4.3019,-4.3543,-4.3919,-4.4082,-4.3921,-4.3457,-4.2847,-4.2747,-4.2993,0.0,-4.19,-4.2462,-4.1361,-4.0729,-4.037,-4.0004,-3.9679,-3.9373,-3.9373,-3.9373,-3.9337,0.0,0.0,0.0,0.0,0.0,0.0,0.0,0.0,0.0,0.0,0.0,0.0,0.0,0.0,0.0,0.0,0.0,0.0,0.0,0.0,-3.1511,-3.1511,-3.1511,-3.157,-3.172,-3.2228,-3.2587,-3.2736,-3.3395,-3.3993,-3.4503,-3.3814,-3.2886,-3.172,-3.157,-3.1511,-3.1511,-3.1482,-3.1482,-3.1511,0.0,0.0,0.0,0.0,0.0,0.0,0.0,0.0,0.0,0.0,0.0,0.0,0.0,0.0,0.0,-3.3764,-3.3892,-3.4025,-3.4767,-3.5276,-3.5603,-3.5603,0.0,0.0,0.0,0.0,0.0,0.0,0.0,0.0,0.0,0.0,0.0,0.0,0.0,0.0,0.0,0.0,0.0,0.0,0.0,0.0,0.0,0.0,0.0,0.0,0.0,0.0,-4.4205,-4.4083,-4.351,-4.241,-4.2773,-4.2416,-4.1183,-4.1145,-4.1512,-4.2171,-4.268,-4.2582,-4.1901,-4.1365,-4.1342,-4.174,-4.0694,-4.0541,-4.1071,-4.048,-3.9915,-3.9373,-3.9373,-3.9373,-3.9337,-3.9337,-3.939,-3.9437,0.0,0.0,0.0,0.0,0.0,0.0,0.0,0.0,0.0,0.0,0.0,0.0,0.0,0.0,0.0,0.0,0.0,0.0,0.0,0.0,-3.1511,-3.1511,-3.1511,-3.178,-3.2407,-3.2497,-3.2796,-3.3425,-3.4114,-3.4444,-3.4503,-3.3814,-3.3125,-3.2378,-3.178,-3.1511,-3.1511,-3.1365,-3.1365,-3.1511,-3.1336,0.0,0.0,0.0,0.0,0.0,0.0,0.0,0.0,0.0,0.0,0.0,0.0,0.0,-3.3209,-3.3235,-3.3261,-3.3524,-3.4743,-3.4759,-3.4446,-3.4446,-3.5825,0.0,-3.8851,-3.9149,0.0,-4.0079,0.0,0.0,0.0,0.0,0.0,0.0,0.0,0.0,0.0,0.0,0.0,0.0,0.0,0.0,0.0,0.0,0.0,0.0,0.0,0.0,-4.3448,-4.2878,-4.2479,-4.241,-4.185,-4.122,-4.0487,-4.0457,-4.0816,-4.1482,-4.0898,-4.0598,-4.0516,-3.9835,-3.9571,-3.9631,-3.9511,-3.9511,-3.9541,-3.9511,-3.9445,-3.9373,-3.9373,-3.9301,-3.909,-3.909,-3.9395,-3.9652,0.0,0.0,0.0,0.0,0.0,0.0,0.0,0.0,0.0,0.0,0.0,0.0,0.0,0.0,0.0,0.0,0.0,0.0,0.0,0.0,-3.1511,-3.1511,-3.1511,-3.1809,-3.2497,-3.2916,-3.3455,-3.4113,-3.4675,-3.4795,-3.4503,-3.3691,-3.3003,-3.2348,-3.1663,-3.1336,-3.1249,-3.119,-3.119,-3.1249,-3.119,-3.119,0.0,0.0,0.0,0.0,0.0,0.0,0.0,0.0,-3.1625,-3.1796,0.0,-3.1796,-3.2216,-3.2571,-3.268,-3.2877,-3.3715,-3.407,-3.4352,-3.4822,-3.5441,0.0,0.0,-3.8728,-3.9888,-3.9746,0.0,0.0,0.0,0.0,0.0,0.0,0.0,0.0,0.0,0.0,0.0,0.0,0.0,0.0,0.0,0.0,0.0,0.0,0.0,0.0,-4.28,-4.253,-4.2021,-4.1175,-4.0905,-4.0457,-3.9798,-3.9798,-3.9918,-4.0157,-3.9918,-4.0008,-4.0367,-3.9709,-3.9373,-3.9373,-3.9373,-3.9373,-3.9373,-3.9373,-3.9373,-3.9373,-3.9373,-3.9265,-3.909,-3.909,-3.9158,-3.9113,0.0,0.0,0.0,0.0,0.0,0.0,0.0,0.0,0.0,0.0,0.0,0.0,0.0,0.0,0.0,0.0,0.0,0.0,-3.1511,-3.1482,-3.1482,-3.1511,-3.1511,-3.178,-3.2408,-3.3064,-3.3721,-3.4409,-3.4966,-3.4847,-3.411,-3.3716,-3.3059,-3.2197,-3.1723,-3.1457,-3.1368,-3.1102,-3.1043,-3.1073,-3.1014,-3.1014,0.0,0.0,0.0,0.0,0.0,0.0,0.0,0.0,-3.1482,0.0,0.0,0.0,0.0,0.0,-3.2274,-3.2244,-3.2788,-3.3131,-3.3494,-3.4234,0.0,0.0,-3.6132,-3.824,-4.0035,0.0,0.0,0.0,0.0,0.0,0.0,0.0,0.0,0.0,0.0,0.0,0.0,0.0,0.0,0.0,0.0,0.0,0.0,0.0,0.0,0.0,0.0,-4.1901,-4.1324,-4.0427,-4.0187,-3.9858,-3.9373,-3.9373,-3.9373,-3.9373,-3.92,-3.9439,-4.0068,-3.9619,-3.9373,-3.9373,-3.9373,-3.9373,-3.9373,-3.9373,-3.9373,-3.9373,-3.9373,-3.9228,-3.9017,-3.9017,-3.8981,-3.8906,0.0,0.0,0.0,0.0,0.0,0.0,0.0,0.0,0.0,0.0,0.0,0.0,0.0,0.0,0.0,0.0,0.0,0.0,-3.1511,-3.1365,-3.1336,-3.1511,-3.1511,-3.1751,-3.2287,-3.2881,-3.3535,-3.4188,-3.4872,-3.4545,-3.3328,-3.3891,-3.3411,-3.2015,-3.2015,-3.1985,-3.1926,-3.1129,-3.0925,-3.1073,-3.0895,-3.0806,-3.0806,0.0,0.0,0.0,0.0,0.0,0.0,0.0,0.0,0.0,0.0,0.0,0.0,-3.2219,-3.1966,-3.1655,-3.2247,-3.1966,-3.166,0.0,0.0,0.0,-3.6192,-3.7984,-3.9908,0.0,0.0,0.0,0.0,0.0,0.0,0.0,0.0,0.0,0.0,0.0,0.0,0.0,0.0,0.0,0.0,0.0,0.0,0.0,0.0,0.0,0.0,-4.0756,-4.0397,-4.0397,-3.9768,-3.9373,-3.9373,-3.9373,-3.9373,-3.9409,-3.8721,-3.8751,-3.9373,-3.9373,-3.9373,-3.9373,-3.9373,-3.9373,-3.9373,-3.9373,-3.9373,-3.9373,-3.9373,-3.9156,-3.8797,-3.8797,-3.8948,-3.9102,0.0,0.0,0.0,0.0,0.0,0.0,0.0,0.0,0.0,0.0,0.0,0.0,0.0,0.0,0.0,0.0,0.0,0.0,-3.1336,-3.1307,-3.1307,-3.1336,-3.1336,-3.1396,-3.1457,-3.1956,-3.281,-3.4058,-3.4136,-3.3782,-3.3083,-3.3103,-3.292,-3.2566,-3.2505,-3.218,-3.162,-3.1384,-3.1065,-3.0746,-3.0657,-3.0657,-3.0657,0.0,0.0,0.0,0.0,0.0,0.0,0.0,0.0,0.0,0.0,0.0,0.0,-3.171,-3.1625,-3.1539,-3.171,-3.1985,0.0,0.0,0.0,0.0,0.0,0.0,0.0,0.0,0.0,0.0,0.0,0.0,0.0,0.0,0.0,0.0,0.0,0.0,0.0,0.0,0.0,0.0,0.0,0.0,0.0,0.0,0.0,0.0,0.0,-4.0516,-4.0187,-3.9738,-3.9529,-3.9373,-3.9373,-3.9373,-3.917,-3.8691,-3.8482,-3.8751,-3.9373,-3.8901,-3.896,-3.9373,-3.9373,-3.9373,-3.9373,-3.9373,-3.9373,-3.9373,-3.9373,-3.9156,-3.8797,-3.8797,-3.8655,-3.8463,0.0,0.0,0.0,0.0,0.0,0.0,0.0,0.0,0.0,0.0,0.0,0.0,0.0,0.0,0.0,0.0,0.0,0.0,0.0,-3.1131,-3.1131,-3.122,-3.122,-3.1279,-3.1366,-3.186,-3.2384,-3.3006,-3.3238,-3.3064,-3.2544,-3.2915,-3.2937,-3.2701,-3.2934,-3.2608,-3.1872,-3.1611,-3.1293,-3.0945,-3.0945,-3.0945,-3.0945,0.0,0.0,0.0,0.0,0.0,0.0,0.0,0.0,0.0,0.0,0.0,0.0,-3.1336,-3.1336,-3.1336,-3.1336,0.0,0.0,0.0,0.0,0.0,0.0,0.0,0.0,0.0,0.0,0.0,0.0,0.0,0.0,0.0,0.0,0.0,0.0,0.0,0.0,0.0,0.0,0.0,0.0,0.0,0.0,0.0,0.0,0.0,0.0,-4.0008,-3.9828,-3.9403,-3.9373,-3.9373,-3.9373,-3.9373,-3.908,-3.8392,-3.8123,-3.8212,-3.8601,-3.8452,-3.8631,-3.902,-3.9254,-3.926,-3.902,-3.902,-3.902,-3.902,-3.902,-3.8924,-3.8797,-3.8797,-3.8538,-3.8202,0.0,0.0,0.0,0.0,0.0,0.0,0.0,0.0,0.0,0.0,0.0,0.0,0.0,0.0,0.0,0.0,0.0,0.0,0.0,0.0,-3.0895,-3.1043,-3.1102,-3.1366,-3.186,-3.2227,-3.2104,-3.1495,-3.2292,-3.2357,-3.1714,-3.2969,-3.3197,-3.2542,-3.3213,-3.3122,-3.2452,-3.1785,-3.1466,-3.1438,-3.1438,-3.1438,-3.1438,-3.1438,0.0,0.0,0.0,0.0,0.0,0.0,0.0,0.0,0.0,-3.1073,-3.1102,-3.1102,-3.1102,-3.1102,-3.1102,0.0,0.0,0.0,0.0,0.0,0.0,0.0,0.0,0.0,0.0,0.0,0.0,0.0,0.0,0.0,0.0,0.0,0.0,0.0,0.0,0.0,0.0,0.0,0.0,0.0,0.0,0.0,0.0,0.0,0.0,-3.932,-3.932,-3.932,-3.926,-3.926,-3.932,-3.926,-3.8901,-3.8212,-3.7614,-3.7285,-3.7221,-3.7913,-3.8242,-3.8332,-3.908,-3.902,-3.8392,-3.8452,-3.8482,-3.8482,-3.8482,-3.8627,-3.8797,-3.8797,-3.8538,-3.8202,0.0,0.0,0.0,0.0,0.0,0.0,0.0,0.0,0.0,0.0,0.0,0.0,0.0,0.0,0.0,0.0,0.0,0.0,0.0,0.0,-3.0836,-3.0866,-3.1213,-3.1735,-3.2341,-3.1932,-3.164,-3.1495,-3.1702,-3.1471,-3.089,-3.2169,-3.269,-3.2542,-3.3213,-3.3122,-3.2452,-3.1785,-3.1235,-3.0801,-3.0801,-3.0801,-3.0801,-3.0801,-3.0714,0.0,0.0,0.0,0.0,0.0,0.0,0.0,-3.0866,-3.0984,-3.1102,-3.1102,-3.1102,-3.1102,0.0,-3.1574,0.0,0.0,0.0,0.0,0.0,0.0,0.0,0.0,0.0,0.0,0.0,0.0,0.0,0.0,0.0,0.0,0.0,0.0,0.0,0.0,0.0,0.0,0.0,0.0,0.0,0.0,0.0,0.0,-3.8661,-3.8601,-3.8601,-3.8601,-3.8123,-3.8093,-3.8601,-3.8093,-3.7524,0.0,-3.6746,-3.635,-3.5677,-3.6529,-3.7165,-3.7674,-3.8901,-3.902,-3.8422,-3.896,-3.92,-3.92,-3.92,-3.9007,-3.8797,-3.8797,-3.8538,-3.8202,0.0,0.0,0.0,0.0,0.0,0.0,0.0,0.0,0.0,0.0,0.0,0.0,0.0,0.0,0.0,0.0,0.0,0.0,0.0,0.0,0.0,-3.1094,-3.1673,-3.1988,-3.2017,-3.1988,-3.17,-3.1061,-3.1061,-3.1061,-3.1032,-3.2048,-3.2687,-3.2977,-3.3358,-3.3122,-3.2452,-3.1785,-3.1526,-3.1467,-3.1148,-3.1206,-3.1467,-3.1148,-3.0829,-3.0598,0.0,0.0,0.0,0.0,0.0,0.0,0.0,0.0,-3.0866,-3.0866,-3.0866,-3.0866,0.0,0.0,0.0,0.0,0.0,0.0,0.0,0.0,0.0,0.0,0.0,0.0,0.0,0.0,0.0,0.0,0.0,0.0,0.0,0.0,0.0,0.0,0.0,0.0,0.0,0.0,0.0,0.0,0.0,-3.8631,-3.7973,-3.8212,-3.8242,-3.7943,-3.7584,-3.7584,-3.7913,-3.7584,-3.7105,-3.6477,-3.6477,-3.6018,-3.5228,-3.6011,-3.6637,-3.7223,-3.7977,-3.8167,-3.7868,-3.8227,-3.8519,-3.8788,-3.8788,-3.8713,-3.8649,-3.8649,-3.8464,-3.8202,0.0,0.0,0.0,0.0,0.0,0.0,0.0,0.0,0.0,0.0,0.0,0.0,0.0,0.0,0.0,0.0,0.0,0.0,0.0,0.0,0.0,-3.164,-3.2338,-3.2483,-3.1988,-3.2454,-3.2106,-3.0946,-3.0946,0.0,0.0,0.0,-3.2861,-3.3503,-3.3503,-3.3122,-3.2452,-3.1785,-3.1756,-3.2135,-3.1584,-3.17,-3.2106,-3.1555,-3.1032,-3.0598,-3.0598,0.0,0.0,0.0,0.0,0.0,0.0,0.0,-3.0598,-3.0598,-3.0598,-3.0598,0.0,0.0,0.0,0.0,0.0,0.0,0.0,0.0,0.0,0.0,0.0,0.0,0.0,0.0,0.0,0.0,0.0,0.0,0.0,0.0,0.0,0.0,0.0,0.0,0.0,0.0,0.0,0.0,0.0,-3.7908,-3.7285,-3.7729,-3.7789,-3.7255,-3.7135,-3.7135,-3.7255,-3.7135,-3.6836,-3.6327,-3.6231,-3.5863,-3.5162,-3.5726,-3.6191,-3.6561,-3.7001,-3.7099,-3.6976,-3.7099,-3.751,-3.8068,-3.8068,-3.8237,-3.8493,-3.8493,-3.8352,-3.8202,0.0,0.0,0.0,0.0,0.0,0.0,0.0,0.0,0.0,0.0,0.0,0.0,0.0,0.0,0.0,0.0,0.0,0.0,0.0,0.0,0.0,-3.2367,-3.3006,-3.3558,-3.4022,-3.3587,-3.2977,-3.2251,0.0,0.0,0.0,0.0,0.0,-3.3503,0.0,-3.3122,-3.2452,-3.1785,-3.1264,-3.0859,-3.0772,-3.0772,-3.0859,-3.0772,-3.0685,0.0,0.0,0.0,0.0,0.0,0.0,0.0,0.0,0.0,0.0,-3.0598,-3.0598,-3.0598,0.0,0.0,0.0,0.0,0.0,0.0,0.0,0.0,0.0,0.0,0.0,0.0,0.0,0.0,0.0,0.0,0.0,0.0,0.0,0.0,0.0,0.0,0.0,0.0,0.0,0.0,0.0,0.0,-3.7386,-3.7148,-3.6656,-3.6552,-3.6518,-3.6596,-3.6058,-3.6028,-3.6596,-3.6058,-3.5729,-3.5639,-3.5281,-3.5056,-3.4935,-3.4919,-3.5007,-3.5226,-3.6414,-3.6625,-3.6119,-3.6714,-3.7334,-3.7955,-3.7955,-3.8157,-3.8493,-3.8493,-3.8352,-3.8202,0.0,0.0,0.0,0.0,0.0,0.0,0.0,0.0,0.0,0.0,0.0,0.0,0.0,0.0,0.0,0.0,0.0,0.0,0.0,0.0,0.0,0.0,-3.2774,-3.3238,-3.3877,-3.3267,-3.26,-3.193,0.0,0.0,0.0,-3.2481,-3.3064,0.0,0.0,0.0,0.0,-3.1785,-3.1351,-3.1061,-3.0743,-3.0801,0.0,0.0,0.0,0.0,0.0,0.0,0.0,0.0,0.0,0.0,0.0,0.0,0.0,0.0,0.0,0.0,0.0,0.0,0.0,0.0,0.0,0.0,0.0,0.0,0.0,0.0,0.0,0.0,0.0,0.0,0.0,0.0,0.0,0.0,0.0,0.0,0.0,0.0,0.0,0.0,0.0,0.0,0.0,0.0,-3.6285,-3.6225,-3.564,-3.59,-3.59,-3.5611,-3.5442,-3.5442,-3.5611,-3.5541,-3.5424,-3.5326,-3.5034,-3.4868,-3.4769,-3.4631,-3.4534,-3.4664,-3.5351,-3.5712,-3.58,-3.6129,-3.6834,-3.7709,-3.7709,-3.7982,-3.8315,-3.8315,-3.8277,-3.8202,0.0,0.0,0.0,0.0,0.0,0.0,0.0,0.0,0.0,0.0,0.0,0.0,0.0,0.0,0.0,0.0,0.0,0.0,0.0,0.0,0.0,0.0,0.0,-3.2977,-3.3503,-3.3006,-3.2338,0.0,0.0,0.0,-3.251,-3.2829,-3.3467,0.0,-3.3906,-3.3354,0.0,0.0,0.0,0.0,0.0,0.0,0.0,0.0,0.0,0.0,0.0,0.0,0.0,0.0,0.0,0.0,0.0,0.0,0.0,0.0,0.0,0.0,0.0,0.0,0.0,0.0,0.0,0.0,0.0,0.0,0.0,0.0,0.0,0.0,0.0,0.0,0.0,0.0,0.0,0.0,0.0,0.0,0.0,0.0,0.0,0.0,0.0,0.0,0.0,0.0,-3.531,-3.5369,-3.4931,-3.5339,-3.5369,-3.4902,-3.5034,-3.5034,-3.4902,-3.5195,-3.5261,-3.51,-3.4935,-3.4802,-3.4698,-3.4496,-3.4399,-3.4399,-3.4563,-3.4893,-3.5395,-3.5541,-3.6184,-3.7061,-3.7207,-3.7565,-3.797,-3.797,-3.8057,-3.8202,0.0,0.0,0.0,0.0,0.0,0.0,0.0,0.0,0.0,0.0,0.0,0.0,0.0,0.0,-3.3213,-3.2571,0.0,0.0,0.0,0.0,0.0,0.0,0.0,0.0,-3.3503,-3.3474,0.0,0.0,0.0,0.0,-3.2542,-3.3761,-3.4341,-3.4399,-3.437,-3.4022,-3.3416,0.0,0.0,0.0,0.0,0.0,0.0,0.0,0.0,0.0,0.0,0.0,0.0,0.0,0.0,0.0,0.0,0.0,0.0,0.0,0.0,0.0,0.0,0.0,0.0,0.0,0.0,0.0,0.0,0.0,0.0,0.0,0.0,0.0,0.0,0.0,0.0,0.0,0.0,0.0,0.0,0.0,0.0,0.0,0.0,0.0,0.0,0.0,0.0,0.0,-3.4798,-3.4794,-3.4902,-3.4827,-3.4794,-3.4902,-3.4902,-3.4902,-3.4902,-3.4935,-3.4935,-3.4902,-3.4798,-3.4698,-3.4698,-3.4496,-3.4399,-3.4399,-3.4399,-3.4428,-3.4516,-3.5131,-3.5421,-3.5566,-3.6148,-3.678,-3.736,-3.736,-3.7709,-3.8202,0.0,0.0,0.0,0.0,0.0,0.0,0.0,0.0,0.0,0.0,0.0,0.0,0.0,-3.408,-3.3993,-3.3761,-3.2774,0.0,0.0,0.0,0.0,0.0,0.0,0.0,0.0,0.0,0.0,0.0,0.0,-3.1932,-3.251,-3.2945,-3.3645,-3.4399,-3.4399,-3.4051,-3.3474,-3.3242,0.0,0.0,0.0,0.0,0.0,0.0,0.0,0.0,0.0,0.0,0.0,0.0,0.0,0.0,0.0,0.0,0.0,0.0,0.0,0.0,0.0,0.0,0.0,0.0,0.0,0.0,0.0,0.0,0.0,0.0,0.0,0.0,0.0,0.0,0.0,0.0,0.0,0.0,0.0,0.0,0.0,0.0,0.0,0.0,0.0,0.0,0.0,0.0,0.0,-3.453,-3.4568,-3.4534,-3.453,-3.4568,-3.4702,-3.4802,-3.4902,-3.4802,-3.4798,-3.4798,-3.4731,-3.4631,-3.453,-3.4428,-3.4399,-3.4399,-3.4399,-3.4399,-3.4428,-3.4661,-3.5241,-3.5996,-3.6228,-3.6722,-3.736,-3.7738,-3.7767,-3.768,0.0,0.0,0.0,0.0,0.0,0.0,0.0,0.0,0.0,0.0,0.0,0.0,0.0,0.0,-3.4341,-3.4109,-3.3325,-3.2542,-3.1872,-3.1467,0.0,0.0,0.0,0.0,0.0,0.0,0.0,0.0,0.0,0.0,0.0,-3.2745,-3.3412,-3.4399,-3.4399,-3.4196,0.0,0.0,0.0,-3.2832,0.0,0.0,-3.2452,0.0,0.0,0.0,0.0,0.0,0.0,0.0,0.0,0.0,0.0,0.0,0.0,0.0,0.0,0.0,0.0,0.0,0.0,0.0,0.0,0.0,0.0,0.0,0.0,0.0,0.0,0.0,0.0,0.0,0.0,0.0,0.0,0.0,0.0,0.0,0.0,0.0,0.0,0.0,0.0,0.0,0.0,0.0,0.0,0.0,-3.4399,-3.4399,-3.4399,-3.4399,-3.453,-3.4664,-3.4735,-3.4635,-3.4597,-3.4597,-3.4597,-3.453,-3.4399,-3.4399,-3.4399,-3.4399,-3.4399,-3.4399,-3.4428,-3.4632,-3.5212,-3.6025,-3.6228,-3.6577,-3.7041,-3.768,-3.7651,-3.7389,0.0,0.0,0.0,0.0,0.0,0.0,0.0,0.0,0.0,0.0,0.0,0.0,0.0,0.0,0.0,-3.359,-3.3503,-3.3209,-3.2568,-3.251,0.0,0.0,0.0,0.0,0.0,0.0,0.0,0.0,0.0,0.0,0.0,0.0,-3.379,-3.4399,-3.4399,-3.4399,-3.437,0.0,-3.3532,-3.3503,0.0,-3.2568,-3.2568,0.0,0.0,0.0,-3.251,-3.251,0.0,0.0,0.0,0.0,0.0,0.0,0.0,0.0,0.0,0.0,0.0,0.0,0.0,0.0,0.0,0.0,0.0,0.0,0.0,0.0,0.0,0.0,0.0,0.0,0.0,0.0,0.0,0.0,0.0,0.0,0.0,0.0,0.0,0.0,0.0,0.0,0.0,0.0,-3.4399,-3.4399,-3.4399,-3.4399,-3.4399,-3.4399,-3.4399,-3.4399,-3.4399,-3.4399,-3.4399,-3.4399,-3.4399,-3.4399,-3.4399,-3.4399,-3.4399,-3.4399,-3.4399,-3.4399,-3.4457,-3.5101,-3.5392,-3.545,-3.6025,-3.6286,-3.6373,-3.707,-3.7302,-3.7389,0.0,0.0,0.0,0.0,0.0,0.0,0.0,0.0,0.0,0.0,0.0,0.0,0.0,0.0,-3.4341,-3.4167,-3.3765,-3.3416,-3.3242,-3.2774,-3.2803,-3.3474,-3.3503,-3.3707,0.0,0.0,0.0,0.0,0.0,0.0,0.0,0.0,0.0,0.0,-3.4399,-3.4399,-3.4399,-3.4225,0.0,0.0,-3.4138,-3.4167,0.0,0.0,0.0,0.0,0.0,-3.2803,-3.3122,0.0,-3.2716,-3.2774,0.0,0.0,0.0,0.0,0.0,0.0,-3.0598,0.0,0.0,0.0,0.0,0.0,0.0,0.0,0.0,0.0,0.0,0.0,0.0,0.0,0.0,0.0,0.0,0.0,0.0,0.0,0.0,0.0,0.0,0.0,0.0,0.0,0.0,0.0,-3.4399,-3.4399,-3.4399,-3.4399,-3.4399,-3.4399,-3.4399,-3.4399,-3.4399,-3.4399,-3.4399,-3.4399,-3.4399,-3.4399,-3.4399,-3.4399,-3.4399,-3.4399,-3.4399,-3.4399,-3.4428,-3.4603,-3.4951,-3.5421,-3.5595,-3.5909,-3.6373,-3.707,-3.7302,-3.7389,0.0,0.0,0.0,0.0,0.0,0.0,0.0,0.0,0.0,0.0,0.0,0.0,0.0,0.0,0.0,-3.4399,-3.408,-3.3877,-3.3877,-3.3499,-3.347,-3.3848,-3.3877,-3.4022,-3.4399,0.0,0.0,0.0,0.0,0.0,0.0,0.0,0.0,0.0,0.0,0.0,0.0,0.0,0.0,0.0,-3.4574,0.0,0.0,-3.4138,-3.3877,0.0,0.0,0.0,-3.3819,-3.3441,-3.3383,0.0,0.0,0.0,0.0,0.0,0.0,0.0,0.0,0.0,0.0,0.0,0.0,0.0,-3.1756,-3.1988,-3.2193,0.0,0.0,0.0,0.0,0.0,0.0,0.0,0.0,0.0,0.0,0.0,0.0,0.0,0.0,0.0,0.0,-3.4399,-3.4399,-3.4399,-3.4399,-3.4399,-3.4399,-3.4399,-3.4399,-3.4399,-3.4399,-3.4399,-3.4399,-3.4399,-3.4399,-3.4399,-3.4399,-3.4399,-3.4399,-3.4399,-3.4399,-3.4399,-3.4399,-3.4399,-3.4399,-3.4399,-3.4806,-3.5392,-3.5392,-3.5799,-3.6373,-3.707,-3.7302,-3.7389,0.0,0.0,0.0,0.0,0.0,0.0,0.0,0.0,0.0,0.0,0.0,0.0,0.0,0.0,0.0,0.0,-3.4399,-3.4399,-3.4399,-3.4399,-3.4399,-3.4399,-3.4399,-3.4399,-3.4399,-3.3848,0.0,0.0,0.0,0.0,0.0,0.0,0.0,0.0,0.0,0.0,0.0,0.0,0.0,-3.4399,-3.4399,-3.4457,0.0,0.0,-3.4399,0.0,-3.4399,-3.4399,-3.4399,-3.4399,-3.3993,0.0,0.0,0.0,0.0,0.0,-3.1613,0.0,0.0,0.0,0.0,0.0,0.0,0.0,-3.2249,-3.1988,-3.1582,-3.1526,0.0,0.0,0.0,0.0,0.0,0.0,0.0,0.0,0.0,0.0,0.0,0.0,0.0,0.0,-3.4399,-3.4399,-3.4399,-3.4399,-3.4399,-3.4399,-3.4399,-3.4399,-3.4399,-3.4399,-3.4399,-3.4399,-3.4399,-3.4399,-3.4399,-3.4399,-3.4399,-3.4399,-3.4399,-3.4399,-3.4399,-3.4399,-3.4399,-3.4399,-3.4399,-3.4399,-3.4748,-3.5305,-3.5305,-3.5677,-3.6373,-3.6983,-3.7273,-3.7476,0.0,0.0,0.0,0.0,0.0,0.0,0.0,0.0,0.0,0.0,0.0,0.0,0.0,0.0,0.0,0.0,-3.4399,-3.4399,-3.4399,-3.4399,-3.4399,-3.4399,-3.4399,-3.4399,-3.4399,-3.4283,-3.3993,0.0,0.0,0.0,0.0,0.0,0.0,0.0,0.0,0.0,0.0,0.0,0.0,-3.4399,-3.4399,0.0,-3.516,-3.4603,-3.4399,-3.4399,-3.4399,-3.4399,-3.4399,0.0,-3.3993,-3.3445,0.0,0.0,0.0,0.0,0.0,0.0,0.0,0.0,0.0,0.0,0.0,0.0,-3.1785,-3.1988,-3.2133,0.0,0.0,0.0,0.0,0.0,0.0,0.0,0.0,0.0,0.0,0.0,0.0,0.0,0.0,0.0,-3.4399,-3.4399,-3.4399,-3.4399,-3.4399,-3.4399,-3.4399,-3.4399,-3.4399,-3.4399,-3.4399,-3.4399,-3.4399,-3.4399,-3.4399,-3.4399,-3.4399,-3.4399,-3.4399,-3.4399,-3.4399,-3.4399,-3.4399,-3.4399,-3.4399,-3.4399,-3.4486,-3.4603,-3.4603,-3.5299,-3.6315,-3.646,-3.7157,-3.8057,0.0,0.0,0.0,0.0,0.0,0.0,0.0,0.0,0.0,0.0,0.0,0.0,0.0,0.0,0.0,0.0,0.0,0.0,0.0,0.0,-3.4748,-3.4428,-3.4399,-3.4574,-3.4864,-3.4574,-3.4428,-3.4462,0.0,0.0,0.0,0.0,0.0,0.0,0.0,0.0,0.0,0.0,-3.4399,-3.4399,-3.4399,0.0,-3.4864,-3.4545,-3.4399,-3.4399,-3.4399,-3.4399,-3.4399,-3.4399,-3.4196,0.0,0.0,-3.347,-3.3293,0.0,-3.2977,-3.3383,0.0,0.0,0.0,-3.347,0.0,0.0,0.0,-3.2251,-3.1988,0.0,0.0,0.0,0.0,0.0,0.0,0.0,0.0,0.0,0.0,0.0,0.0,0.0,0.0,0.0,-3.4399,-3.4399,-3.4399,-3.4399,-3.4399,-3.4399,-3.4399,-3.4399,-3.4399,-3.4399,-3.4399,-3.4399,-3.4399,-3.4399,-3.4399,-3.4399,-3.4399,-3.4399,-3.4399,-3.4399,-3.4399,-3.4399,-3.4399,-3.4399,-3.4399,-3.4399,-3.4399,-3.4399,-3.4399,-3.5183,-3.6315,-3.6315,-3.7099,-3.8202,0.0,0.0,0.0,0.0,0.0,0.0,0.0,0.0,0.0,0.0,0.0,0.0,0.0,0.0,0.0,0.0,0.0,0.0,0.0,0.0,-3.4985,-3.4428,-3.4399,-3.4661,-3.5218,-3.469,-3.4661,-3.5218,0.0,0.0,0.0,0.0,0.0,0.0,0.0,0.0,0.0,0.0,0.0,-3.4574,0.0,-3.4399,-3.4399,-3.4399,-3.4399,-3.4399,-3.4399,-3.4399,-3.4399,-3.4399,0.0,-3.4312,-3.3819,-3.3993,0.0,0.0,0.0,0.0,0.0,0.0,0.0,0.0,0.0,-3.3649,0.0,0.0,0.0,0.0,0.0,0.0,0.0,0.0,0.0,0.0,0.0,0.0,0.0,0.0,0.0,0.0,0.0,0.0,0.0,-3.4399,-3.4399,-3.4399,-3.4399,-3.4399,-3.4399,-3.4399,-3.4399,-3.4399,-3.4399,-3.4399,-3.4399,-3.4399,-3.4399,-3.4399,-3.4399,-3.4399,-3.4399,-3.4399,-3.4399,-3.4399,-3.4399,-3.4399,-3.4399,-3.4399,-3.4399,-3.4399,-3.4399,-3.5125,-3.6141,-3.6257,-3.7041,-3.8057,-3.0895,-3.2046,0.0,0.0,0.0,0.0,0.0,0.0,0.0,0.0,0.0,0.0,0.0,0.0,0.0,0.0,0.0,0.0,-3.5247,0.0,0.0,-3.4399,-3.4399,-3.4457,-3.4516,-3.4457,-3.4457,-3.4516,0.0,0.0,0.0,0.0,0.0,0.0,-3.4399,0.0,0.0,0.0,-3.4748,0.0,-3.4632,-3.4399,0.0,-3.4399,-3.4399,-3.4399,-3.4399,-3.4399,-3.4399,0.0,-3.4399,-3.4399,0.0,-3.4341,0.0,0.0,0.0,0.0,0.0,0.0,0.0,0.0,-3.437,0.0,0.0,0.0,-3.3155,0.0,0.0,0.0,0.0,0.0,0.0,0.0,0.0,0.0,0.0,0.0,0.0,0.0,0.0,0.0,0.0,-3.4399,-3.4399,-3.4399,-3.4399,-3.4399,-3.4399,-3.4399,-3.4399,-3.4399,-3.4399,-3.4399,-3.4399,-3.4399,-3.4399,-3.4399,-3.4399,-3.4399,-3.4399,-3.4399,-3.4399,-3.4399,-3.4399,-3.4399,-3.4399,-3.4399,-3.4399,-3.4399,-3.4399,-3.4835,-3.5566,-3.6112,-3.678,-3.7476,0.0,0.0,0.0,0.0,0.0,0.0,0.0,0.0,0.0,0.0,0.0,0.0,0.0,0.0,0.0,0.0,0.0,-3.588,0.0,0.0,0.0,0.0,-3.5503,0.0,-3.5503,-3.5154,-3.4985,-3.4985,-3.4603,0.0,0.0,0.0,0.0,0.0,-3.4574,0.0,-3.5392,0.0,0.0,0.0,0.0,0.0,0.0,-3.4399,-3.4399,-3.4399,-3.4399,-3.4399,-3.4399,0.0,-3.4399,0.0,0.0,0.0,0.0,0.0,0.0,0.0,0.0,0.0,0.0,0.0,0.0,0.0,-3.408,0.0,-3.3532,0.0,0.0,0.0,0.0,0.0,0.0,0.0,0.0,0.0,0.0,0.0,0.0,0.0,0.0,0.0,0.0,0.0,0.0,0.0,-3.396,-3.4254,-3.3877,-3.4225,-3.4399,-3.4399,-3.4399,-3.4399,-3.4399,-3.4399,-3.4399,-3.4399,-3.4399,-3.4399,-3.4399,-3.4399,-3.4399,-3.4399,-3.4399,-3.4399,-3.4399,-3.4399,-3.4399,-3.4399,-3.4399,-3.4806,-3.5479,-3.6083,-3.6722,-3.7389,0.0,0.0,0.0,0.0,0.0,0.0,0.0,0.0,0.0,0.0,0.0,0.0,-3.977,-3.945,0.0,0.0,-3.7651,-3.707,0.0,0.0,-3.6141,0.0,0.0,0.0,0.0,-3.5625,-3.5392,-3.5392,-3.4719,0.0,0.0,0.0,0.0,0.0,0.0,-3.5038,-3.5654,0.0,0.0,-3.469,-3.498,-3.4835,-3.4399,-3.4399,-3.4399,-3.4399,-3.4399,-3.4399,-3.4399,-3.4399,-3.4399,0.0,-3.4399,0.0,0.0,0.0,0.0,0.0,-3.4399,0.0,0.0,0.0,0.0,0.0,0.0,0.0,0.0,0.0,0.0,0.0,0.0,0.0,0.0,0.0,0.0,0.0,0.0,0.0,0.0,0.0,0.0,0.0,0.0,0.0,0.0,-3.2832,-3.3645,-3.3964,-3.3532,-3.3906,-3.4225,-3.4399,-3.4399,-3.4399,-3.4399,-3.4399,-3.4399,-3.4399,-3.4399,-3.4399,-3.4399,-3.4399,-3.4399,-3.4399,-3.4399,-3.4399,-3.4399,-3.4399,-3.4399,-3.4428,-3.4603,-3.4951,-3.5479,-3.6083,-3.6722,-3.7389,-2.9972,-3.1033,0.0,0.0,0.0,0.0,0.0,0.0,0.0,0.0,0.0,0.0,0.0,0.0,0.0,0.0,0.0,-3.7912,-3.7273,0.0,-3.5764,0.0,0.0,-3.6025,0.0,0.0,0.0,-3.5392,0.0,0.0,0.0,0.0,0.0,0.0,0.0,-3.5677,-3.6228,-3.5654,-3.5392,-3.5305,-3.469,-3.4428,-3.4399,0.0,-3.4399,-3.4399,-3.4399,0.0,0.0,-3.4399,-3.4399,0.0,0.0,0.0,0.0,0.0,0.0,0.0,0.0,0.0,0.0,-3.4399,0.0,0.0,0.0,0.0,-3.4399,0.0,0.0,0.0,0.0,0.0,0.0,0.0,0.0,0.0,0.0,0.0,0.0,0.0,0.0,0.0,0.0,0.0,0.0,-3.3503,-3.3503,-3.3532,-3.3503,-3.3532,-3.3823,-3.4399,-3.4399,-3.4399,-3.4399,-3.4399,-3.4399,-3.4399,-3.4399,-3.4399,-3.4399,-3.4399,-3.4399,-3.4399,-3.4399,-3.4399,-3.4399,-3.4399,-3.4399,-3.4457,-3.5131,-3.5363,-3.5479,-3.6083,-3.6722,-3.7389,0.0,0.0,0.0,0.0,0.0,0.0,0.0,-3.6302,0.0,0.0,0.0,0.0,0.0,-4.2382,-4.2034,0.0,0.0,-4.0321,-3.9218,-3.8928,0.0,0.0,0.0,-3.7941,0.0,0.0,0.0,0.0,0.0,0.0,0.0,0.0,0.0,0.0,0.0,-3.6519,0.0,0.0,0.0,0.0,0.0,-3.4661,-3.498,0.0,0.0,-3.4399,-3.4399,-3.4399,0.0,-3.4399,-3.4399,-3.4399,-3.4399,-3.4399,-3.4399,-3.4399,-3.4399,0.0,0.0,0.0,-3.4399,-3.4399,0.0,0.0,0.0,0.0,0.0,0.0,0.0,0.0,0.0,0.0,0.0,0.0,0.0,0.0,0.0,0.0,0.0,0.0,0.0,0.0,0.0,0.0,0.0,-3.1673,-3.2338,-3.2832,-3.2832,-3.3271,-3.3794,-3.4399,-3.4399,-3.4399,-3.4399,-3.4399,-3.4399,-3.4399,-3.4399,-3.4399,-3.4399,-3.4399,-3.4399,-3.4399,-3.4399,-3.4399,-3.4399,-3.4399,-3.4399,-3.4486,-3.516,-3.5654,-3.6054,-3.6722,-3.7099,-3.7389,-3.1309,0.0,0.0,0.0,0.0,0.0,0.0,0.0,0.0,0.0,-4.2179,0.0,-4.4501,0.0,-4.4472,0.0,-4.3079,-4.244,-4.0902,-4.0583,0.0,-3.8609,-3.9102,0.0,0.0,0.0,0.0,0.0,0.0,-3.6983,0.0,0.0,0.0,0.0,0.0,0.0,-3.6025,0.0,-3.5967,0.0,0.0,-3.4661,0.0,0.0,-3.4545,-3.4719,0.0,-3.4399,-3.4399,-3.4399,-3.4399,-3.4399,-3.4399,-3.4399,-3.4399,-3.4399,-3.4399,-3.4399,-3.4399,-3.4399,0.0,-3.4399,-3.4399,0.0,-3.4399,0.0,0.0,0.0,0.0,0.0,0.0,0.0,0.0,0.0,0.0,0.0,0.0,0.0,0.0,0.0,0.0,0.0,0.0,0.0,-3.2309,-3.1003,-3.1903,-3.2481,0.0,0.0,-3.3794,-3.4399,-3.4399,-3.4399,-3.4399,-3.4399,-3.4399,-3.4399,-3.4399,-3.4399,-3.4399,-3.4399,-3.4399,-3.4399,-3.4399,-3.4399,-3.4399,-3.4399,-3.4399,-3.4486,-3.5357,-3.5938,-3.6373,-3.707,-3.7447,-3.768,0.0,0.0,0.0,0.0,-3.6445,0.0,0.0,0.0,-4.1171,0.0,-4.4153,-4.5198,-4.5895,-4.6534,-4.6388,-4.514,-4.4995,0.0,-4.2411,-4.1657,0.0,0.0,-3.8725,-3.8057,-3.736,0.0,0.0,0.0,0.0,0.0,0.0,0.0,0.0,0.0,-3.7651,0.0,-3.5479,-3.6083,-3.5619,-3.4399,-3.4399,-3.4428,-3.4457,-3.4428,-3.4806,-3.5305,-3.4632,-3.4399,-3.4399,-3.4399,-3.4399,-3.4399,-3.4399,-3.4399,-3.4399,-3.4399,-3.4399,-3.4399,-3.4399,-3.4399,-3.4399,-3.4399,0.0,0.0,0.0,0.0,-3.4399,0.0,0.0,0.0,0.0,0.0,0.0,0.0,0.0,0.0,0.0,0.0,0.0,0.0,0.0,0.0,0.0,0.0,-3.2864,-3.1524,-3.2046,0.0,0.0,0.0,-3.3732,-3.4399,-3.4399,-3.4399,-3.4399,-3.4399,-3.4399,-3.4399,-3.4399,-3.4399,-3.4399,-3.4399,-3.4399,-3.4399,-3.4399,-3.4399,-3.4399,-3.4399,-3.4399,-3.4545,-3.5822,-3.6344,-3.6489,-3.7128,-3.7709,-3.8202,-3.3005,-3.4169,-3.5463,0.0,-3.5981,-3.6243,0.0,0.0,0.0,0.0,-4.485,-4.604,-4.7172,-4.7433,-4.7404,-4.7056,-4.6592,0.0,0.0,0.0,0.0,-4.0699,-4.0931,-4.0118,-3.8028,-3.8463,0.0,-3.9131,0.0,0.0,-3.9596,0.0,0.0,0.0,0.0,0.0,-3.6112,-3.678,-3.6025,-3.4399,-3.4399,-3.469,0.0,0.0,-3.4806,-3.5305,-3.4632,-3.4399,-3.4399,-3.4399,-3.4399,-3.4399,-3.4399,-3.4399,-3.4399,-3.4399,-3.4399,-3.4399,-3.4399,-3.4399,-3.4399,-3.4399,-3.4399,-3.4399,0.0,0.0,0.0,0.0,0.0,0.0,0.0,0.0,0.0,0.0,0.0,0.0,0.0,0.0,0.0,0.0,0.0,0.0,0.0,0.0,-3.1671,-3.0887,-3.1004,0.0,0.0,0.0,0.0,-3.437,-3.4399,-3.4399,-3.4399,-3.4399,-3.4399,-3.4399,-3.4399,-3.4399,-3.4399,-3.4399,-3.4399,-3.4399,-3.4399,-3.4399,-3.4399,-3.4399,-3.4399,-3.4545,-3.5822,-3.6896,-3.7738,-3.7912,-3.8057,-3.8202,-3.4058,0.0,0.0,-3.7849,0.0,0.0,-3.962,0.0,0.0,-4.4891,-4.633,0.0,-4.7724,-4.8043,-4.7956,-4.7404,-4.7027,0.0,-4.5924,0.0,0.0,-4.244,-4.1918,-4.0699,-3.8667,-3.8725,0.0,-3.887,0.0,0.0,-3.9683,0.0,0.0,0.0,0.0,-3.7854,0.0,-3.6402,-3.5822,-3.4806,-3.4516,0.0,0.0,-3.4545,-3.4632,-3.4893,-3.4545,-3.4399,-3.4399,-3.4399,-3.4399,-3.4399,-3.4399,-3.4399,-3.4399,-3.4399,-3.4399,-3.4399,-3.4399,-3.4399,-3.4399,-3.4399,-3.4399,-3.4399,-3.4399,-3.4399,-3.4399,0.0,0.0,0.0,0.0,0.0,0.0,0.0,0.0,0.0,0.0,0.0,0.0,0.0,0.0,0.0,0.0,0.0,-3.1264,0.0,0.0,0.0,0.0,0.0,0.0,-3.4399,-3.469,-3.469,-3.4399,-3.469,-3.469,-3.4399,-3.4399,-3.4399,-3.4399,-3.4399,-3.4574,-3.4835,-3.4835,-3.4835,-3.4835,-3.4835,-3.4835,-3.4951,-3.6257,-3.7331,-3.8202,-3.8202,-3.8202,-3.8202,0.0,0.0,0.0,0.0,0.0,0.0,0.0,-4.306,0.0,-4.6628,0.0,-4.8653,-4.8101,-4.8449,-4.8228,-4.7126,0.0,-4.6592,-4.604,-4.5372,-4.4705,-4.4037,-4.2295,-4.0699,-3.9363,-3.8667,0.0,0.0,0.0,0.0,0.0,0.0,0.0,0.0,0.0,0.0,0.0,-3.5857,-3.5537,-3.5363,-3.4748,-3.4545,-3.4516,-3.4457,-3.4399,-3.4399,-3.4399,-3.4399,-3.4399,-3.4399,-3.4399,-3.4399,-3.4399,-3.4399,-3.4399,-3.4399,-3.4399,-3.4399,-3.4399,-3.4399,-3.4399,-3.4399,-3.4399,-3.4399,-3.4399,-3.4399,-3.4399,-3.4399,-3.4399,-3.4399,0.0,0.0,0.0,0.0,0.0,0.0,0.0,0.0,0.0,0.0,0.0,0.0,0.0,0.0,0.0,0.0,0.0,0.0,0.0,0.0,0.0,-3.4399,-3.4985,-3.5072,-3.4661,0.0,-3.5038,-3.4661,-3.4574,-3.4545,-3.4545,-3.4632,-3.498,-3.5537,-3.5537,-3.5537,-3.5537,-3.5537,-3.5566,-3.577,-3.6867,-3.768,-3.8202,-3.8202,-3.8202,-3.8202,0.0,0.0,0.0,0.0,0.0,-4.2257,-4.4425,-4.5155,-4.5974,-4.7433,-4.8711,-4.9465,-4.9398,-4.8972,-4.8576,-4.8373,-4.7387,0.0,0.0,0.0,0.0,-4.4037,-4.3137,-4.1802,-3.9973,-3.9334,-3.9218,0.0,0.0,0.0,0.0,0.0,0.0,0.0,0.0,0.0,-3.6344,-3.678,0.0,-3.5392,-3.5276,-3.5218,-3.516,-3.4603,-3.4399,-3.4399,-3.4399,-3.4399,-3.4399,-3.4399,-3.4399,-3.4399,-3.4399,-3.4399,-3.4399,-3.4399,-3.4399,-3.4399,-3.4399,-3.4399,-3.4399,-3.4399,-3.4399,-3.4399,-3.4399,-3.4399,-3.4399,-3.4399,-3.4399,-3.4399,-3.4399,0.0,0.0,0.0,0.0,0.0,0.0,0.0,0.0,0.0,0.0,0.0,0.0,0.0,0.0,0.0,0.0,0.0,0.0,0.0,0.0,0.0,-3.4516,0.0,0.0,0.0,-3.5038,-3.5967,-3.5444,-3.5218,-3.5247,-3.5735,-3.6025,-3.6141,-3.6141,-3.6141,-3.6141,-3.6141,-3.646,-3.6983,-3.7215,-3.768,-3.8202,-3.8202,-3.8202,-3.8202,0.0,0.0,0.0,0.0,0.0,0.0,0.0,-4.6749,0.0,-4.7695,-4.8595,-4.8798,-4.7811,-4.8014,-4.7985,-4.7317,-4.6708,-4.633,-4.633,-4.604,-4.5314,-4.4037,-4.3689,0.0,-4.0147,-3.916,-3.8986,-3.9625,0.0,0.0,0.0,0.0,0.0,0.0,0.0,-3.7389,0.0,0.0,0.0,-3.5851,-3.5851,-3.5851,-3.5793,-3.5154,-3.4893,-3.4864,-3.4516,-3.4399,-3.4399,-3.4399,-3.4399,-3.4399,-3.4399,-3.4399,-3.4399,-3.4399,-3.4399,-3.4399,-3.4399,-3.4399,-3.4399,-3.4399,-3.4399,-3.4399,-3.4399,-3.4399,-3.4399,-3.4399,-3.4399,-3.4399,-3.4399,-3.4399,0.0,0.0,0.0,0.0,0.0,0.0,0.0,0.0,0.0,0.0,0.0,0.0,0.0,0.0,0.0,0.0,0.0,0.0,0.0,0.0,0.0,0.0,0.0,0.0,0.0,-3.5822,-3.5537,-3.5566,-3.588,-3.617,-3.6489,-3.6838,-3.6838,-3.6838,-3.6838,-3.6838,-3.7012,-3.7331,-3.7651,-3.7941,-3.8202,-3.8202,-3.8202,-3.8202,0.0,-3.912,0.0,0.0,-4.3731,0.0,-4.746,-4.7898,-4.8014,-4.8159,-4.8391,-4.8014,-4.665,-4.7143,-4.7172,-4.6185,-4.5953,-4.5895,-4.5895,-4.575,-4.5169,-4.4037,-4.3863,-4.2702,-4.035,-3.9189,-3.8725,0.0,0.0,0.0,0.0,0.0,0.0,0.0,0.0,0.0,0.0,0.0,-3.678,-3.6519,-3.6519,-3.6519,-3.646,-3.5857,-3.5508,-3.5334,-3.4806,-3.4516,-3.4399,-3.4399,-3.4399,-3.4399,-3.4399,-3.4399,-3.4399,-3.4399,-3.4399,-3.4399,-3.4399,-3.4399,-3.4399,-3.4399,-3.4399,-3.4399,-3.4399,-3.4399,-3.4399,-3.4399,-3.4399,-3.4399,-3.4399,-3.4399,0.0,0.0,0.0,0.0,0.0,0.0,0.0,0.0,0.0,0.0,0.0,0.0,0.0,0.0,0.0,0.0,0.0,0.0,0.0,0.0,0.0,-3.5038,-3.4806,0.0,-3.5392,-3.5799,-3.5654,-3.5909,-3.6519,-3.6664,-3.6983,-3.7506,-3.7506,-3.7506,-3.7506,-3.7506,-3.7506,-3.7535,-3.8028,-3.8202,-3.8202,-3.8202,-3.8202,-3.8202,0.0,0.0,0.0,0.0,0.0,0.0,-4.7612,-4.8275,-4.8856,-4.9436,-4.8537,-4.8014,-4.842,-4.7503,-4.6882,-4.672,-4.6214,-4.5895,-4.5895,-4.5314,-4.4676,-4.4037,-4.3398,-4.244,-4.1047,-4.0292,-3.9392,0.0,0.0,0.0,0.0,0.0,0.0,0.0,0.0,0.0,0.0,-3.8202,-3.826,-3.7215,-3.7215,-3.7215,-3.7128,-3.6489,-3.588,-3.5392,-3.5334,-3.4893,-3.4399,-3.4399,-3.4399,-3.4399,-3.4399,-3.4399,-3.4399,-3.4399,-3.4399,-3.4399,-3.4399,-3.4399,-3.4399,-3.4399,-3.4399,-3.4399,-3.4399,-3.4399,-3.4399,-3.4399,-3.4399,-3.4399,-3.4399,-3.4399,-3.4399,0.0,0.0,0.0,0.0,0.0,0.0,0.0,0.0,0.0,0.0,0.0,0.0,0.0,0.0,0.0,0.0,0.0,0.0,-3.4399,0.0,-3.5038,-3.6112,-3.5038,-3.5386,-3.7099,-3.6519,-3.6577,-3.7215,-3.7767,-3.8057,-3.8115,-3.8115,-3.8115,-3.8115,-3.8115,-3.8115,-3.8115,-3.8173,-3.8202,-3.8202,-3.8202,-3.8202,-3.8202,0.0,0.0,0.0,0.0,0.0,0.0,0.0,-4.7927,-4.7811,-4.8449,-4.8101,-4.7579,-4.7085,-4.6911,-4.6633,-4.6301,-4.604,-4.5895,-4.5895,-4.5634,-4.5024,-4.4037,-4.3747,-4.2818,-4.1134,-4.0089,-3.9479,0.0,0.0,0.0,0.0,0.0,0.0,0.0,0.0,-3.7622,-3.6954,-3.7738,-3.7767,-3.7331,-3.7709,-3.7854,-3.7767,-3.7157,-3.6751,-3.6489,-3.6083,-3.5532,-3.498,-3.498,-3.4719,-3.4399,-3.4399,-3.4399,-3.4486,-3.4864,-3.4719,-3.4486,-3.4864,-3.4719,-3.4399,-3.4399,-3.4399,-3.4399,-3.4399,-3.4399,-3.4399,-3.4399,-3.4399,-3.4399,-3.4399,-3.4399,-3.4399,0.0,0.0,0.0,0.0,0.0,0.0,0.0,0.0,0.0,0.0,0.0,0.0,0.0,0.0,0.0,0.0,0.0,0.0,-3.4399,0.0,-3.4661,-3.5154,-3.5038,-3.5561,-3.6722,-3.6838,-3.7244,-3.7854,-3.8086,-3.8202,-3.8202,-3.8202,-3.8202,-3.8202,-3.8202,-3.8202,-3.8202,-3.8202,-3.8202,-3.826,-3.8667,-3.8551,-3.826,-4.2744,0.0,-4.391,0.0,-4.6026,-4.6291,-4.7901,-4.7358,-4.694,-4.7172,-4.723,-4.694,-4.6243,-4.6388,-4.6359,-4.5924,-4.5895,-4.5895,-4.5895,-4.5692,-4.5111,-4.4037,-4.3805,0.0,-4.1424,-4.0321,-3.977,-3.9828,-3.977,0.0,0.0,0.0,0.0,0.0,-3.7767,-3.7476,-3.7331,-3.7506,-3.7564,-3.7622,-3.8028,-3.8202,-3.8144,-3.7738,-3.7447,-3.7244,-3.678,-3.6054,-3.5421,-3.5595,-3.5096,-3.4457,-3.4632,-3.4574,-3.4574,-3.5415,-3.5183,-3.4806,-3.5276,-3.5072,-3.469,-3.469,-3.4545,-3.4457,-3.4661,-3.4545,-3.4399,-3.4399,-3.4399,-3.4399,-3.4399,-3.4399,-3.4399,-3.4399,0.0,0.0,0.0,0.0,0.0,0.0,0.0,-3.4399,-3.4399,0.0,0.0,0.0,0.0,0.0,0.0,0.0,0.0,0.0,0.0,0.0,-3.4399,-3.5072,-3.5712,-3.6315,-3.6983,-3.7622,-3.8202,-3.8202,-3.8202,-3.8202,-3.8202,-3.8202,-3.8202,-3.8202,-3.8202,-3.8202,-3.8202,-3.8202,-3.8289,-3.8957,-3.8783,-3.8318,-4.2598,-4.3606,-4.4789,-4.6478,-4.6778,-4.6778,-4.6807,-4.6807,-4.6621,-4.5982,-4.5895,-4.6127,-4.672,-4.6272,-4.5895,-4.5895,-4.5895,-4.5895,-4.5895,-4.5256,-4.4618,0.0,0.0,-4.2702,-4.2092,-4.1424,-4.0466,-3.9218,0.0,0.0,-3.6373,0.0,-3.7651,-3.8202,-3.8202,-3.7854,-3.7331,-3.7941,-3.8202,-3.8202,-3.8202,-3.8202,-3.8202,-3.8202,-3.7825,-3.7302,-3.7302,-3.646,-3.5479,-3.6083,-3.5473,-3.4516,-3.5189,-3.4922,-3.4661,-3.5938,-3.5851,-3.5392,-3.5392,-3.5392,-3.5392,-3.5392,-3.4864,-3.4574,-3.5247,-3.4864,-3.4399,-3.4399,-3.4399,-3.4399,-3.4399,-3.4399,-3.4399,-3.4399,0.0,0.0,0.0,0.0,0.0,0.0,-3.4399,-3.4399,-3.4399,0.0,0.0,0.0,0.0,0.0,0.0,0.0,0.0,-3.4399,-3.4399,0.0,-3.4399,-3.5072,-3.5712,-3.6315,-3.6983,-3.7622,-3.8202,-3.8202,-3.8202,-3.8202,-3.8202,-3.8202,-3.8202,-3.8202,-3.8202,-3.8202,-3.8202,-3.8202,-3.8289,-3.8957,-3.8783,-3.8376,-4.2744,-4.3081,-4.38,-4.5487,-4.5401,-4.5259,-4.5685,-4.6034,-4.5871,-4.4926,-4.5458,-4.5953,-4.6156,-4.6011,-4.5895,0.0,-4.5895,-4.5895,0.0,-4.5256,-4.4618,-4.4008,-4.334,-4.2702,-4.2121,-4.1424,-4.0902,-4.0495,0.0,0.0,0.0,-3.9334,-3.8841,-3.8202,-3.8202,-3.8086,-3.7941,-3.8115,-3.8202,-3.8202,-3.8202,-3.8202,-3.8202,-3.8202,-3.8086,-3.7912,-3.7912,-3.7389,-3.6722,-3.6925,-3.6431,-3.5822,-3.6489,-3.5938,-3.5328,-3.6606,-3.6519,-3.6112,-3.6577,-3.6344,-3.5996,-3.5996,-3.5851,-3.5764,-3.5967,-3.5503,-3.4922,-3.4516,-3.4399,-3.4399,-3.4399,-3.4399,-3.4399,-3.4399,-3.4399,0.0,0.0,0.0,0.0,0.0,-3.4399,-3.4399,0.0,-3.4399,0.0,0.0,0.0,0.0,0.0,0.0,0.0,0.0,-3.4399,0.0,-3.5101,-3.5677,-3.6344,-3.6983,-3.7622,-3.826,-3.887,-3.887,-3.887,-3.887,-3.887,-3.8609,-3.8202,-3.8202,-3.8202,-3.8202,-3.8202,-3.8202,-3.8347,-3.9421,-3.9421,-3.9073,-4.3367,-4.347,-4.3889,-4.5572,-4.5195,-4.4828,-4.5448,-4.5763,-4.564,-4.4989,-4.5475,-4.5895,-4.5895,-4.5895,0.0,-4.5895,-4.5895,-4.5895,-4.5895,-4.5488,-4.4879,-4.4037,-4.3602,-4.2963,-4.2121,-4.1686,0.0,-4.1105,-4.1279,-4.1134,-4.0699,-4.0292,-3.9538,-3.858,-3.858,-3.8434,-3.8202,-3.8202,-3.8202,-3.8202,-3.8202,-3.8202,-3.8202,-3.8202,-3.8202,-3.8202,-3.8202,-3.7825,-3.7331,-3.7564,-3.7041,-3.646,-3.736,-3.6925,-3.6286,-3.7331,-3.7186,-3.678,-3.7186,-3.6983,-3.6693,-3.6693,-3.6489,-3.6315,-3.6315,-3.5996,-3.559,-3.5212,-3.5125,-3.5038,-3.4806,-3.4777,-3.469,-3.4457,-3.4399,-3.4399,-3.4399,0.0,0.0,0.0,0.0,0.0,0.0,-3.4399,-3.4574,0.0,0.0,0.0,0.0,0.0,0.0,-3.4748,-3.4777,0.0,-3.5741,-3.6373,-3.6896,-3.7331,-3.8173,-3.8783,-3.9218,-3.9421,-3.9421,-3.9189,-3.9189,-3.8812,-3.8202,-3.8202,-3.8202,-3.8202,-3.8202,-3.8347,-3.8696,-3.9712,-3.9712,-3.9392,-4.399,-4.4199,-4.4611,0.0,-4.5638,0.0,-4.5636,-4.5805,-4.5895,-4.5776,-4.5821,-4.5895,-4.5895,-4.5895,-4.5895,-4.5895,0.0,0.0,0.0,-4.5837,-4.5256,-4.4037,-4.395,-4.334,-4.2121,-4.2092,-4.1773,-4.1163,-4.0495,-4.0176,-4.0176,-4.0118,-3.977,-3.9189,-3.9189,-3.8841,-3.8202,-3.8202,-3.8202,-3.8202,-3.8202,-3.8202,-3.8202,-3.8202,-3.8202,-3.8202,-3.8202,-3.7854,-3.7447,-3.7999,-3.7418,-3.6635,-3.7825,-3.7825,-3.7476,-3.8028,-3.7796,-3.736,-3.736,-3.736,-3.736,-3.736,-3.6896,-3.6431,-3.6373,-3.6373,-3.6373,-3.6315,-3.6315,-3.6141,-3.5566,-3.5421,-3.5218,-3.4574,-3.4428,-3.4399,-3.4399,0.0,0.0,0.0,0.0,0.0,0.0,-3.4399,-3.4428,0.0,0.0,0.0,0.0,0.0,-3.4748,-3.5363,-3.545,-3.577,-3.6373,-3.6983,-3.736,-3.7447,-3.8667,-3.9305,-3.9363,-3.9915,-3.9857,-3.9334,-3.9334,-3.8928,-3.826,-3.826,-3.8231,-3.8202,-3.826,-3.8667,-3.9276,-3.9915,-3.9799,-3.9509,0.0,0.0,-4.1673,-4.2404,-4.2982,-4.3389,-4.3539,-4.4879,-4.5595,-4.4805,-4.5384,-4.5895,-4.5895,-4.5895,-4.5895,-4.5895,-4.5895,-4.5895,-4.5895,-4.5401,-4.4792,-4.4037,-4.3515,-4.2876,-4.2121,-4.2092,-4.2005,-4.186,-4.1192,-4.0873,-4.0844,-4.035,-3.977,-3.9189,-3.9189,-3.8841,-3.8202,-3.8202,-3.8202,-3.8202,-3.8202,-3.8202,-3.8202,-3.8202,-3.8202,-3.8202,-3.8202,-3.8115,-3.7999,-3.8144,-3.7999,-3.7796,-3.8115,-3.8115,-3.8028,-3.8173,-3.8115,-3.7999,-3.7999,-3.7999,-3.7999,-3.7999,-3.7883,-3.7622,-3.7186,-3.707,-3.6925,-3.6402,-3.6315,-3.6257,-3.6112,-3.5712,-3.5363,-3.5189,-3.4719,-3.4399,-3.4399,-3.4399,0.0,0.0,-3.4399,-3.4399,-3.4399,-3.4399,-3.4603,0.0,0.0,0.0,0.0,-3.516,-3.5247,-3.5392,-3.5822,-3.6402,-3.707,-3.7215,-3.7796,-3.8754,-3.9509,-4.0147,-4.0641,-4.0786,-4.0786,-4.0641,-4.0641,-4.0002,-3.8957,-3.8957,-3.8667,-3.826,-3.8754,-3.9073,-3.9334,-4.0437,-4.0757,-4.0699,-4.2202,-4.2206,-4.2424,-4.3667,-4.4409,-4.4706,-4.4629,-4.5584,-4.6003,-4.5138,-4.5549,-4.5895,-4.5895,-4.5895,-4.5895,-4.5895,-4.5895,-4.5895,-4.5895,-4.5547,-4.5053,-4.4414,-4.3805,-4.3166,-4.2528,-4.2237,-4.2092,-4.2092,-4.1744,-4.1541,-4.1541,-4.1192,-4.067,-4.006,-3.9741,-3.9247,-3.8638,-3.8347,-3.8202,-3.8202,-3.8202,-3.8202,-3.8202,-3.8202,-3.8202,-3.8202,-3.8202,-3.8202,-3.8202,-3.8202,-3.8202,-3.826,-3.8551,-3.8463,-3.826,-3.858,-3.8434,-3.8202,-3.8202,-3.8202,-3.8202,-3.8202,-3.8202,-3.8115,-3.7796,-3.7709,-3.7622,-3.7244,-3.7186,-3.7099,-3.6809,-3.6228,-3.5741,-3.545,-3.4835,-3.4399,-3.4399,-3.4399,0.0,-3.4806,-3.4864,-3.4951,-3.5241,-3.527,-3.5299,-3.5392,-3.5328,0.0,-3.5392,-3.6235,-3.6402,-3.5822,-3.6693,-3.7506,-3.8173,-3.8434,-3.8928,-3.9625,-4.0263,-4.0757,-4.1105,-4.1424,-4.1395,-4.1105,-4.1105,-4.0379,-3.9189,-3.9189,-3.8986,-3.8696,-3.9073,-3.9567,-4.0147,-4.0844,-4.1105,-4.1105,-4.395,-4.3932,-4.4125,-4.5903,-4.6273,-4.628,-4.6101,-4.6153,-4.6016,-4.5516,-4.5549,-4.564,-4.564,-4.5776,-4.5895,-4.5895,-4.5895,-4.5895,-4.5895,-4.5895,-4.5576,-4.4908,-4.4385,-4.3776,-4.3021,-4.2411,-4.2092,-4.2092,-4.2092,-4.2092,-4.2092,-4.2092,-4.1744,-4.1076,-4.0495,-3.9915,-3.9305,-3.8638,-3.8347,-3.8347,-3.8231,-3.8202,-3.8202,-3.8202,-3.826,-3.8347,-3.8347,-3.8405,-3.8492,-3.8492,-3.8492,-3.858,-3.916,-3.8957,-3.8609,-3.916,-3.8928,-3.8463,-3.8376,-3.8405,-3.8463,-3.8376,-3.8434,-3.8492,-3.8492,-3.8405,-3.8347,-3.8347,-3.826,-3.8057,-3.7535,-3.6896,-3.6286,-3.577,-3.5038,-3.4545,-3.4545,0.0,-3.4748,-3.5334,-3.5479,-3.5741,-3.6257,-3.6315,-3.6141,-3.5712,-3.6054,-3.6141,-3.5857,-3.7331,-3.7767,-3.678,-3.7883,-3.8754,-3.9334,-3.9944,-4.0263,-4.0263,-4.0931,-4.125,-4.1279,-4.1831,-4.1773,-4.125,-4.125,-4.0583,-3.9479,-3.9479,-3.9421,-3.9363,-3.945,-4.0147,-4.1105,-4.1221,-4.125,-4.1221,-4.2507,-4.2511,-4.2417,-4.2202,-4.2554,-4.2878,-4.2844,-4.3155,-4.3383,-4.3273,-4.4031,-4.4545,-4.4545,-4.5338,-4.5895,-4.5895,-4.5895,-4.5895,-4.5895,-4.5895,-4.5576,-4.4908,-4.4792,-4.4182,-4.3021,-4.2411,-4.2092,-4.2092,-4.2092,-4.2092,-4.2092,-4.2092,-4.1744,-4.1105,-4.0989,-4.0583,-3.9915,-3.9305,-3.9044,-3.9015,-3.8434,-3.8202,-3.8202,-3.8202,-3.8551,-3.9044,-3.9044,-3.9363,-3.9799,-3.9799,-3.9799,-3.9828,-3.9915,-3.9886,-3.9828,-3.9915,-3.9886,-3.9683,-3.9189,-3.9421,-3.9683,-3.916,-3.9421,-3.9799,-3.9799,-3.9421,-3.9044,-3.9044,-3.858,-3.8173,-3.8086,-3.7564,-3.7128,-3.7012,-3.5996,-3.5247,-3.5247,0.0,-3.5276,-3.5392,-3.5822,-3.6199,-3.6286,-3.6315,-3.6489,-3.6983,-3.6577,-3.6722,-3.7709,-3.8028,-3.8376,-3.8754,-3.945,-3.9857,-3.9944,-4.0612,-4.0931,-4.096,-4.1628,-4.1947,-4.1947,-4.2063,-4.2034,-4.1947,-4.1947,-4.1512,-4.0815,-4.0815,-4.0466,-4.0031,-4.0583,-4.0931,-4.1163,-4.1744,-4.1947,-4.186,-4.259,-4.2881,-4.3085,-4.3108,-4.3809,-4.4142,-4.3552,-4.3633,-4.3525,-4.2873,-4.3225,-4.3701,-4.4266,-4.4759,-4.5293,-4.585,-4.5895,-4.5895,-4.5895,-4.5895,-4.575,-4.543,-4.5082,-4.4298,-4.3021,-4.2411,-4.2092,-4.2092,-4.2092,-4.2092,-4.2092,-4.2092,-4.1918,-4.1628,-4.125,-4.0931,-4.0583,-3.9944,-3.9683,-3.9654,-3.9363,-3.9218,-3.9218,-3.9218,-3.9421,-3.9683,-3.9683,-3.9857,-4.0089,-4.0089,-4.0089,-4.0147,-4.0525,-4.0379,-4.0176,-4.0525,-4.0379,-4.0031,-3.977,-3.9886,-4.0031,-3.9741,-3.9886,-4.0089,-4.0089,-3.9886,-3.9683,-3.9683,-3.945,-3.9131,-3.8812,-3.8231,-3.7796,-3.7796,-3.6722,0.0,0.0,-3.6112,-3.5996,-3.6373,-3.6664,-3.7128,-3.7796,-3.7854,-3.7999,-3.8289,-3.8347,-3.8463,-3.8725,-3.9392,-3.9915,-4.0205,-4.0495,-4.0815,-4.1163,-4.1482,-4.1628,-4.1628,-4.1947,-4.2092,-4.2092,-4.2092,-4.2092,-4.2092,-4.2092,-4.1715,-4.1105,-4.1105,-4.0931,-4.067,-4.0989,-4.1308,-4.1686,-4.1976,-4.2092,-4.2063,-4.2886,-4.3355,-4.3771,-4.4212,-4.5076,-4.5361,-4.4364,-4.4296,-4.3936,-4.2587,-4.2647,-4.2985,-4.3531,-4.3796,-4.4359,-4.5458,-4.5549,-4.564,-4.5895,-4.5895,-4.5895,-4.5895,-4.5111,-4.4211,-4.3253,-4.2498,-4.2092,-4.2092,-4.2092,-4.2092,-4.2092,-4.2092,-4.2092,-4.2063,-4.157,-4.1337,-4.1279,-4.0612,-4.0321,-4.0321,-4.0147,-4.0089,-4.0089,-4.0089,-4.0205,-4.0321,-4.0321,-4.0437,-4.0554,-4.0554,-4.0554,-4.0641,-4.1163,-4.0989,-4.067,-4.1163,-4.096,-4.0495,-4.0176,-4.0321,-4.0525,-4.0379,-4.0437,-4.0554,-4.0554,-4.0437,-4.0321,-4.0321,-4.0205,-3.9944,-3.9479,-3.8986,-3.8609,-3.8463,0.0,0.0,0.0,-3.707,-3.6983,-3.768,-3.7883,-3.8347,-3.9305,-3.9421,-3.9421,-3.9421,-3.9828,-3.9973,-3.9654,-4.0554,-4.1163,-4.1337,-4.1337,-4.157,-4.2092,-4.2092,-4.2092,-4.2092,-4.2092,-4.2092,-4.2092,-4.2092,-4.2092,-4.2092,-4.2092,-4.1802,-4.1337,-4.1337,-4.1337,-4.1337,-4.1337,-4.1657,-4.2092,-4.2092,-4.2092,-4.2092,-4.2961,-4.3048,-4.3078,-4.3129,-4.3579,-4.3756,-4.3101,-4.3443,-4.3152,-4.1547,-4.2208,-4.2452,-4.1518,-4.2306,-4.3321,-4.4312,-4.4406,-4.4851,-4.5821,-4.5895,-4.5895,-4.5895,-4.4705,-4.4008,-4.3921,-4.2731,-4.2092,-4.2092,-4.2092,-4.2092,-4.2092,-4.2092,-4.2092,-4.2092,-4.2034,-4.2034,-4.1976,-4.1308,-4.1018,-4.096,-4.035,-4.0089,-4.0089,-4.0089,-4.0495,-4.1018,-4.1018,-4.1424,-4.1947,-4.1947,-4.1947,-4.1947,-4.2005,-4.1976,-4.1947,-4.2005,-4.1976,-4.1686,-4.0437,-4.1018,-4.1802,-4.1163,-4.1482,-4.1947,-4.1947,-4.1453,-4.1018,-4.1018,-4.0525,-4.0089,-4.0031,-3.9973,-3.977,-3.9218,0.0,0.0,-3.8115,-3.8086,-3.8318,-3.8986,-3.9538,-3.9915,-4.0031,-4.0031,-4.0031,-4.0031,-4.006,-4.035,-4.0931,-4.1047,-4.1366,-4.2005,-4.2034,-4.2063,-4.2092,-4.2092,-4.2092,-4.2092,-4.2092,-4.2092,-4.2092,-4.2092,-4.2092,-4.2092,-4.2092,-4.2063,-4.2034,-4.2034,-4.2034,-4.2034,-4.2034,-4.2063,-4.2092,-4.2092,-4.2092,-4.2092,-4.2986,-4.2986,-4.2986,-4.2986,-4.3174,-4.3092,-4.2557,-4.265,-4.2395,-4.1384,-4.224,-4.2592,-4.1871,-4.2721,-4.3366,-4.3348,-4.3368,-4.3796,-4.4851,-4.4897,-4.5201,-4.5895,-4.5024,-4.4356,-4.4008,-4.3108,-4.2469,-4.2092,-4.2092,-4.2092,-4.2092,-4.2092,-4.2092,-4.2092,-4.2092,-4.2092,-4.2063,-4.1831,-4.1715,-4.1686,-4.1424,-4.1337,-4.1337,-4.1337,-4.1482,-4.1715,-4.1715,-4.1889,-4.2092,-4.2092,-4.2092,-4.2092,-4.2092,-4.2092,-4.2092,-4.2092,-4.2092,-4.1976,-4.1482,-4.1715,-4.2034,-4.1773,-4.1918,-4.2092,-4.2092,-4.1889,-4.1715,-4.1715,-4.1512,-4.1221,-4.0786,-4.0728,-4.0641,-4.0408,0.0,-3.9509,-3.9944,-3.9625,-3.9479,-3.9741,-3.9973,-4.0263,-4.067,-4.0728,-4.0873,-4.1308,-4.1337,-4.1453,-4.1715,-4.1715,-4.1831,-4.2092,-4.2092,-4.2092,-4.2092,-4.2092,-4.2092,-4.2092,-4.2092,-4.2092,-4.2092,-4.2092,-4.2092,-4.2092,-4.2092,-4.2092,-4.2092,-4.2092,-4.2092,-4.2092,-4.2092,-4.2092,-4.2092,-4.2092,-4.2092,-4.2092,-4.2986,-4.2986,-4.2986,-4.2986,-4.3295,-4.3314,-4.278,-4.2977,-4.2879,-4.1915,-4.25,-4.2788,-4.2422,-4.2543,-4.2831,-4.3069,-4.2609,-4.2716,-4.3748,-4.4125,-4.4666,-4.5384,-4.478,-4.4101,-4.3332,-4.2968,-4.2582,-4.218,-4.2505,-4.2702,-4.2673,-4.2469,-4.2498,-4.2673,-4.2469,-4.2498,-4.2673,-4.2469,-4.2382,-4.2353,-4.2179,-4.2092,-4.2092,-4.2092,-4.2092,-4.2092,-4.2092,-4.2092,-4.2092,-4.2092,-4.2092,-4.2092,-4.2092,-4.2092,-4.2092,-4.2092,-4.2092,-4.2092,-4.2092,-4.2092,-4.2092,-4.2092,-4.2092,-4.2092,-4.2092,-4.2092,-4.2092,-4.2092,-4.2092,-4.1947,-4.1482,-4.1395,-4.1337,-4.1134,-4.0699,-4.0583,-4.1047,-4.0699,-4.0495,-4.0699,-4.0728,-4.0902,-4.1366,-4.1395,-4.1599,-4.2063,-4.2092,-4.2092,-4.2092,-4.2092,-4.2092,-4.2092,-4.2092,-4.2092,-4.2092,-4.2092,-4.2092,-4.2092,-4.2092,-4.2092,-4.2092,-4.2092,-4.2092,-4.2092,-4.2092,-4.2092,-4.2092,-4.2009,-4.198,-4.198,-4.198,-4.198,-4.198,-4.2092,-4.2051,-4.198,-4.2986,-4.2986,-4.2986,-4.2986,-4.3932,-4.4487,-4.3831,-4.4649,-4.4772,-4.3101,-4.2892,-4.2919,-4.297,-4.1487,-4.1363,-4.3463,-4.2133,-4.1667,-4.2744,-4.3748,-4.4266,-4.4266,-4.3722,-4.2925,-4.1869,-4.2177,-4.2396,-4.2396,-4.3472,-4.3979,-4.3979,-4.3311,-4.334,-4.395,-4.3282,-4.3369,-4.395,-4.3282,-4.2992,-4.2963,-4.2353,-4.2121,-4.2121,-4.2121,-4.2092,-4.2092,-4.2092,-4.2092,-4.2092,-4.2092,-4.2092,-4.2092,-4.2092,-4.2121,-4.2121,-4.2121,-4.2121,-4.2121,-4.2121,-4.2121,-4.2121,-4.2092,-4.2092,-4.2092,-4.2092,-4.2092,-4.2121,-4.2121,-4.2121,-4.2121,-4.2121,-4.2121,-4.1889,-4.1221,-4.1105,-4.1105,-4.1105,-4.1105,-4.1337,-4.2005,-4.2092,-4.2092,-4.2092,-4.2092,-4.2092,-4.2092,-4.2092,-4.2092,-4.2092,-4.2092,-4.2092,-4.2092,-4.2092,-4.2092,-4.2092,-4.2092,-4.2092,-4.2092,-4.2092,-4.2092,-4.2092,-4.2092,-4.2092,-4.2092,-4.2092,-4.2092,-4.2092,-4.1785,-4.1702,-4.1702,-4.1702,-4.1702,-4.1744,-4.2009,-4.1939,-4.1702,-4.2986,-4.2986,-4.2986,-4.2986,-4.3295,-4.3466,-4.3233,-4.3512,-4.357,-4.3034,-4.3635,-4.354,-4.1968,-4.2083,-4.1905,-4.0977,-4.0415,-4.0567,-4.1617,-4.2668,-4.2909,-4.2133,-4.3365,-4.3696,-4.2925,-4.2315,-4.1781,-4.1351,-4.1672,-4.1809,-4.1854,-4.2334,-4.2672,-4.2887,-4.3445,-4.3805,-4.3979,-4.3776,-4.3689,-4.3689,-4.3515,-4.3137,-4.2731,-4.2731,-4.2469,-4.2092,-4.2092,-4.2092,-4.2092,-4.2092,-4.2092,-4.2179,-4.2586,-4.2731,-4.2818,-4.3282,-4.3079,-4.2818,-4.3311,-4.3079,-4.2615,-4.2208,-4.2092,-4.2092,-4.2092,-4.2411,-4.2731,-4.2731,-4.3108,-4.3427,-4.3427,-4.305,-4.2673,-4.2469,-4.2063,-4.1802,-4.1802,-4.1802,-4.1819,-4.1827,-4.2009,-4.2051,-4.1856,-4.198,-4.2092,-4.2092,-4.2092,-4.2092,-4.2092,-4.2092,-4.2092,-4.2092,-4.2092,-4.2092,-4.2092,-4.2092,-4.2092,-4.2092,-4.1897,-4.1897,-4.2092,-4.1897,-4.1939,-4.2092,-4.2092,-4.198,-4.1785,-4.1744,-4.1619,-4.148,-4.148,-4.1577,-4.1702,-4.1647,-4.1647,-4.1702,-4.2986,-4.2986,-4.2986,-4.2986,-4.2986,-4.2986,-4.2986,-4.2986,-4.2986,-4.2986,-4.3628,-4.3676,-4.2738,-4.2441,-4.1954,-4.108,-4.0182,-4.0134,-4.1119,-4.1815,-4.2061,-4.1864,-4.262,-4.289,-4.2535,-4.1887,-4.1582,-4.1659,-4.1659,-4.1659,-4.1659,-4.2021,-4.2325,-4.2593,-4.2964,-4.3262,-4.3489,-4.3234,-4.3373,-4.3728,-4.347,-4.3373,-4.3398,-4.3398,-4.3166,-4.2847,-4.2847,-4.2847,-4.2847,-4.2847,-4.2847,-4.2905,-4.3282,-4.3398,-4.3456,-4.3863,-4.3689,-4.3485,-4.3892,-4.3689,-4.3311,-4.2934,-4.2847,-4.2847,-4.2847,-4.3137,-4.3398,-4.3398,-4.3718,-4.3979,-4.3849,-4.3531,-4.3199,-4.3113,-4.2867,-4.2634,-4.2344,-4.2399,-4.2312,-4.1926,-4.1897,-4.1984,-4.2048,-4.2231,-4.2473,-4.2818,-4.2615,-4.244,-4.244,-4.2237,-4.2092,-4.2092,-4.2092,-4.2092,-4.2092,-4.198,-4.1939,-4.1939,-4.1785,-4.1744,-4.1843,-4.1647,-4.1689,-4.1843,-4.1843,-4.1731,-4.1577,-4.1493,-4.1367,-4.1241,-4.1241,-4.1325,-4.1423,-4.1438,-4.1409,-4.1381,-4.2986,-4.2986,-4.2986,-4.2986,-4.2986,-4.2986,-4.2986,-4.2986,-4.2986,-4.2986,-4.2986,-4.3381,-4.4346,-4.2582,-4.1707,-4.271,-4.0874,-4.0083,-4.1019,-4.1069,-4.1518,-4.2501,-4.1568,-4.1119,-4.1219,-4.1119,-4.1518,-4.2501,-4.2501,-4.2501,-4.2523,-4.2004,-4.2058,-4.262,-4.2195,-4.2297,-4.2765,-4.2215,-4.2516,-4.3276,-4.2761,-4.3117,-4.3936,-4.4023,-4.4037,-4.3979,-4.3979,-4.3979,-4.3979,-4.3979,-4.3979,-4.4008,-4.4066,-4.4066,-4.4066,-4.4153,-4.4124,-4.4066,-4.4153,-4.4124,-4.4066,-4.4153,-4.4153,-4.4124,-4.4008,-4.4037,-4.4066,-4.4066,-4.4124,-4.411,-4.3848,-4.3747,-4.3631,-4.3338,-4.3486,-4.3358,-4.2696,-4.278,-4.2747,-4.2196,-4.1943,-4.2019,-4.261,-4.2696,-4.3041,-4.3864,-4.3385,-4.3037,-4.3037,-4.2515,-4.2266,-4.2266,-4.2208,-4.2179,-4.2138,-4.1843,-4.1702,-4.1702,-4.166,-4.1535,-4.1396,-4.1396,-4.1396,-4.1396,-4.1396,-4.1396,-4.1354,-4.1085,-4.1001,-4.0958,-4.0958,-4.1001,-4.1043,-4.1241,-4.1198,-4.1001,-4.2986,-4.2986,-4.2986,-4.2986,-4.2986,-4.2986,-4.2986,-4.2986,-4.2986,-4.2986,-4.2986,-4.2922,-4.2743,-4.1893,-4.1207,-4.1071,-4.023,-3.98,-4.0032,-4.0032,-4.0134,-4.0364,-4.0134,-4.0415,-4.1169,-4.0415,-4.0134,-4.0364,-4.0364,-4.0364,-4.0364,-4.1039,-4.1386,-4.1617,-4.3108,-4.3421,-4.284,-4.3488,-4.3432,-4.2958,-4.365,-4.373,-4.3624,-4.4411,-4.4414,-4.3979,-4.3979,-4.3979,-4.3979,-4.3979,-4.3979,-4.4066,-4.4531,-4.4705,-4.4792,-4.5314,-4.5111,-4.4821,-4.5343,-4.5082,-4.4821,-4.5343,-4.5325,-4.4976,-4.4168,-4.4356,-4.4705,-4.4705,-4.5111,-4.5488,-4.5415,-4.4831,-4.4352,-4.4307,-4.3728,-4.3068,-4.2439,-4.2396,-4.2381,-4.2281,-4.2408,-4.2667,-4.3126,-4.3096,-4.3154,-4.3341,-4.3226,-4.3227,-4.3445,-4.3329,-4.3358,-4.3573,-4.3079,-4.2734,-4.2565,-4.2003,-4.1702,-4.1702,-4.1339,-4.1241,-4.1396,-4.1198,-4.1198,-4.1396,-4.1396,-4.1283,-4.1085,-4.1043,-4.0916,-4.0773,-4.0773,-4.083,-4.1001,-4.0901,-4.0901,-4.1001,-4.2986,-4.2986,-4.2986,-4.2986,-4.2986,-4.2986,-4.2986,-4.2986,-4.2986,-4.2986,-4.2986,-4.2861,-4.264,-4.2057,-4.1404,-4.0576,-4.0023,-3.9697,-3.9697,-3.9697,-3.9697,-3.9697,-3.9697,-3.9929,-4.0465,-3.9981,-3.9929,-4.0415,-3.9929,-3.9697,-3.9697,-4.0211,-4.0743,-4.1269,-4.2328,-4.2523,-4.211,-4.315,-4.3273,-4.284,-4.3368,-4.3695,-4.3835,-4.3881,-4.3684,-4.3431,-4.3431,-4.3749,-4.4228,-4.4746,-4.4908,-4.4937,-4.5256,-4.5372,-4.543,-4.5779,-4.5634,-4.543,-4.5779,-4.5634,-4.5459,-4.5808,-4.5685,-4.5376,-4.5009,-4.5051,-4.5209,-4.5372,-4.5634,-4.585,-4.573,-4.5245,-4.4834,-4.4698,-4.4276,-4.3759,-4.3089,-4.3136,-4.311,-4.2796,-4.2767,-4.3024,-4.3519,-4.3877,-4.4093,-4.4093,-4.3836,-4.3754,-4.3887,-4.3556,-4.3544,-4.3806,-4.3459,-4.3242,-4.3142,-4.2395,-4.2066,-4.2253,-4.1412,-4.1001,-4.1057,-4.0944,-4.0944,-4.11,-4.11,-4.0986,-4.0859,-4.0859,-4.0816,-4.0688,-4.0688,-4.0773,-4.0859,-4.073,-4.0773,-4.0859,-4.2986,-4.2986,-4.2986,-4.2986,-4.2986,-4.2986,-4.2986,-4.2986,-4.2986,-4.2986,-4.2986,-4.2986,-4.2986,-4.2539,-4.1706,-4.0601,-4.0099,-3.9798,-3.9697,-3.9697,-3.9697,-3.9697,-3.9697,-3.9697,-3.9697,-3.9697,-4.0134,-4.0945,-4.0134,-3.9697,-3.9697,-3.9697,-4.0134,-4.0945,-4.1119,-4.1069,-4.1019,-4.2061,-4.255,-4.255,-4.2744,-4.3416,-4.4219,-4.3368,-4.3081,-4.3033,-4.284,-4.3368,-4.4219,-4.5247,-4.564,-4.564,-4.5821,-4.5895,-4.5895,-4.5895,-4.5895,-4.5895,-4.585,-4.585,-4.585,-4.585,-4.564,-4.5504,-4.5776,-4.5595,-4.5504,-4.573,-4.5776,-4.573,-4.5549,-4.5321,-4.5092,-4.489,-4.4844,-4.4571,-4.3828,-4.3925,-4.3906,-4.3348,-4.3243,-4.3437,-4.3976,-4.4624,-4.5,-4.5,-4.4516,-4.4276,-4.4322,-4.3792,-4.3595,-4.3861,-4.3746,-4.3688,-4.3644,-4.281,-4.2536,-4.2855,-4.1779,-4.1113,-4.0856,-4.0744,-4.0688,-4.0688,-4.0688,-4.0688,-4.0688,-4.0688,-4.0688,-4.0688,-4.0688,-4.0688,-4.0688,-4.0688,-4.0688,-4.0688,-4.2986,-4.2986,-4.2986,-4.2986,-4.2986,-4.2986,-4.2986,-4.2986,-4.2986,-4.2986,-4.2986,-4.2986,-4.2986,-4.2539,-4.1706,-4.0601,-4.045,-4.0199,-3.9722,-3.9697,-3.9697,-3.9697,-3.9697,-3.9697,-3.9697,-3.9697,-3.98,-3.9878,-3.98,-3.9697,-3.9697,-3.9697,-3.98,-3.9929,-4.0794,-4.0693,-3.9981,-4.0995,-4.1419,-4.1518,-4.2452,-4.3416,-4.4312,-4.4172,-4.4125,-4.3984,-4.3129,-4.2889,-4.3177,-4.4172,-4.4499,-4.4666,-4.5595,-4.5895,-4.5895,-4.5895,-4.5895,-4.585,-4.5595,-4.5549,-4.5549,-4.5549,-4.5367,-4.523,-4.5504,-4.5367,-4.5155,-4.523,-4.5413,-4.5549,-4.5504,-4.5458,-4.5367,-4.5092,-4.4908,-4.4525,-4.3673,-4.3589,-4.3624,-4.3692,-4.4202,-4.4571,-4.4656,-4.4555,-4.449,-4.449,-4.4434,-4.447,-4.4702,-4.4617,-4.4652,-4.4881,-4.4383,-4.4008,-4.3783,-4.3114,-4.277,-4.266,-4.2446,-4.2081,-4.1474,-4.094,-4.0688,-4.0688,-4.0688,-4.0688,-4.0688,-4.0688,-4.0688,-4.0688,-4.0688,-4.0688,-4.0688,-4.0688,-4.0688,-4.0688,-4.2986,-4.2986,-4.2986,-4.2986,-4.2986,-4.2986,-4.2986,-4.2986,-4.2986,-4.2986,-4.2986,-4.2986,-4.2986,-4.2539,-4.1831,-4.1,-4.0701,-4.04,-4.0174,-4.0149,-4.0149,-4.0149,-4.0149,-3.9998,-3.9697,-3.9697,-3.9697,-3.9697,-3.9697,-3.9697,-3.9697,-3.9697,-3.9981,-4.0541,-4.0969,-4.0945,-4.0618,-4.1667,-4.1766,-4.1219,-4.1716,-4.255,-4.3368,-4.2159,-4.2084,-4.2523,-4.2061,-4.1914,-4.2061,-4.3129,-4.3464,-4.3654,-4.4666,-4.4989,-4.511,-4.573,-4.5895,-4.5895,-4.573,-4.5595,-4.5504,-4.5504,-4.523,-4.4954,-4.5092,-4.4462,-4.4059,-4.4926,-4.5184,-4.5321,-4.5458,-4.5367,-4.5321,-4.5321,-4.5,-4.4666,-4.4291,-4.4096,-4.405,-4.4114,-4.4535,-4.4751,-4.4612,-4.4612,-4.4565,-4.4425,-4.4425,-4.4472,-4.4565,-4.4612,-4.4705,-4.4908,-4.4652,-4.451,-4.4372,-4.3721,-4.3472,-4.361,-4.2907,-4.243,-4.2149,-4.1868,-4.1755,-4.1727,-4.1362,-4.1193,-4.1193,-4.0828,-4.0688,-4.0688,-4.0688,-4.0688,-4.0688,-4.0688,-4.0688,-4.0688]},{"header":{"parameterUnit":"m.s-1","parameterCategory":1,"la1":30.6,"la2":28.766,"lo1":-90.7593,"lo2":-88.6598,"dy":0.0162,"dx":0.0183,"nx":116,"ny":114,"refTime":"2023-03-20T00:00:00:Z","depth":0,"parameterNumber":3,"parameterNumberName":"V-component_of_WINDS"},"data":[0.0,0.0,0.0,0.0,0.0,0.0,0.0,0.0,0.0,0.0,0.0,0.0,0.0,0.0,0.0,0.0,0.0,0.0,0.0,0.0,0.0,0.0,0.0,0.0,0.0,0.0,0.0,0.0,0.0,0.0,0.0,0.0,0.0,0.0,0.0,0.0,0.0,0.0,0.0,0.0,0.0,0.0,0.0,0.0,0.0,0.0,0.0,0.0,0.0,0.0,0.0,0.0,0.0,0.0,0.0,0.0,0.0,0.0,0.0,0.0,0.0,0.0,0.0,0.0,0.0,0.0,0.0,0.0,0.0,0.0,0.0,0.0,0.0,0.0,0.0,0.0,0.0,0.0,0.0,0.0,0.0,0.0,0.0,0.0,0.0,0.0,0.0,0.0,0.0,0.0,0.0,0.0,0.0,0.0,0.0,0.0,0.0,0.0,0.0,0.0,0.0,0.0,0.0,0.0,0.0,0.0,0.0,0.0,0.0,0.0,0.0,0.0,0.0,0.0,0.0,0.0,0.0,0.0,0.0,0.0,0.0,0.0,0.0,0.0,0.0,0.0,0.0,0.0,0.0,0.0,0.0,0.0,0.0,0.0,0.0,0.0,0.0,0.0,0.0,0.0,0.0,0.0,0.0,0.0,0.0,0.0,0.0,0.0,0.0,0.0,0.0,0.0,0.0,0.0,0.0,0.0,0.0,0.0,0.0,0.0,0.0,0.0,0.0,0.0,0.0,0.0,0.0,0.0,0.0,0.0,0.0,0.0,0.0,0.0,0.0,0.0,0.0,0.0,0.0,0.0,0.0,0.0,0.0,0.0,0.0,0.0,0.0,0.0,0.0,0.0,0.0,0.0,0.0,0.0,0.0,0.0,0.0,0.0,0.0,0.0,0.0,0.0,0.0,0.0,0.0,0.0,0.0,0.0,0.0,0.0,0.0,0.0,0.0,0.0,0.0,0.0,0.0,0.0,0.0,0.0,0.0,0.0,0.0,0.0,0.0,0.0,0.0,0.0,0.0,0.0,0.0,0.0,0.0,0.0,0.0,0.0,0.0,0.0,0.0,0.0,0.0,0.0,0.0,0.0,0.0,0.0,0.0,0.0,0.0,0.0,0.0,0.0,0.0,0.0,0.0,0.0,0.0,0.0,0.0,0.0,0.0,0.0,0.0,0.0,0.0,0.0,0.0,0.0,0.0,0.0,0.0,0.0,0.0,0.0,0.0,0.0,0.0,0.0,0.0,0.0,0.0,0.0,0.0,0.0,0.0,0.0,0.0,0.0,0.0,0.0,0.0,0.0,0.0,0.0,0.0,0.0,0.0,0.0,0.0,0.0,0.0,0.0,0.0,0.0,0.0,0.0,0.0,0.0,0.0,0.0,0.0,0.0,0.0,0.0,0.0,0.0,0.0,0.0,0.0,0.0,0.0,0.0,0.0,0.0,0.0,0.0,0.0,0.0,0.0,0.0,0.0,0.0,0.0,0.0,0.0,0.0,0.0,0.0,0.0,0.0,0.0,0.0,0.0,0.0,0.0,0.0,0.0,0.0,0.0,0.0,0.0,0.0,0.0,0.0,0.0,0.0,0.0,0.0,0.0,0.0,0.0,0.0,0.0,0.0,0.0,0.0,0.0,0.0,0.0,0.0,0.0,0.0,0.0,0.0,0.0,0.0,0.0,0.0,0.0,0.0,0.0,0.0,0.0,0.0,0.0,0.0,0.0,0.0,0.0,0.0,0.0,0.0,0.0,0.0,0.0,0.0,0.0,0.0,0.0,0.0,0.0,0.0,0.0,0.0,0.0,0.0,0.0,0.0,0.0,0.0,0.0,0.0,0.0,0.0,0.0,0.0,0.0,0.0,0.0,0.0,0.0,0.0,0.0,0.0,0.0,0.0,0.0,0.0,0.0,0.0,0.0,0.0,0.0,0.0,0.0,0.0,0.0,0.0,0.0,0.0,0.0,0.0,0.0,0.0,0.0,0.0,0.0,0.0,0.0,0.0,0.0,0.0,0.0,0.0,0.0,0.0,0.0,0.0,0.0,0.0,0.0,0.0,0.0,0.0,0.0,0.0,0.0,0.0,0.0,0.0,0.0,0.0,0.0,0.0,0.0,0.0,0.0,0.0,0.0,0.0,0.0,0.0,0.0,0.0,0.0,0.0,0.0,0.0,0.0,0.0,0.0,0.0,0.0,0.0,0.0,0.0,0.0,0.0,0.0,0.0,0.0,0.0,0.0,0.0,0.0,0.0,0.0,0.0,0.0,0.0,0.0,0.0,0.0,0.0,0.0,0.0,0.0,0.0,0.0,0.0,0.0,0.0,0.0,0.0,0.0,0.0,0.0,0.0,0.0,0.0,0.0,0.0,0.0,0.0,0.0,0.0,0.0,0.0,0.0,0.0,0.0,0.0,0.0,0.0,0.0,0.0,0.0,0.0,0.0,0.0,0.0,0.0,0.0,0.0,0.0,0.0,0.0,0.0,0.0,0.0,0.0,0.0,0.0,0.0,0.0,0.0,0.0,0.0,0.0,0.0,0.0,0.0,0.0,0.0,0.0,0.0,0.0,0.0,0.0,0.0,0.0,0.0,0.0,0.0,0.0,0.0,0.0,0.0,0.0,0.0,0.0,0.0,0.0,0.0,0.0,0.0,0.0,0.0,0.0,0.0,0.0,0.0,0.0,0.0,0.0,0.0,0.0,0.0,0.0,0.0,0.0,0.0,0.0,0.0,0.0,0.0,0.0,0.0,0.0,0.0,0.0,0.0,0.0,0.0,0.0,0.0,0.0,0.0,0.0,0.0,0.0,0.0,0.0,0.0,0.0,0.0,0.0,0.0,0.0,0.0,0.0,0.0,0.0,0.0,0.0,0.0,0.0,0.0,0.0,0.0,0.0,0.0,0.0,0.0,0.0,0.0,0.0,0.0,0.0,0.0,0.0,0.0,0.0,0.0,0.0,0.0,0.0,0.0,0.0,0.0,0.0,0.0,0.0,0.0,0.0,0.0,0.0,0.0,0.0,0.0,0.0,0.0,0.0,0.0,0.0,0.0,0.0,0.0,0.0,0.0,0.0,0.0,0.0,0.0,0.0,0.0,0.0,0.0,0.0,0.0,0.0,0.0,0.0,0.0,0.0,0.0,0.0,0.0,0.0,0.0,0.0,0.0,0.0,0.0,0.0,0.0,0.0,0.0,0.0,0.0,0.0,0.0,0.0,0.0,0.0,0.0,0.0,0.0,0.0,0.0,0.0,0.0,0.0,0.0,0.0,0.0,0.0,0.0,0.0,0.0,0.0,0.0,0.0,0.0,0.0,0.0,0.0,0.0,0.0,0.0,0.0,0.0,0.0,0.0,0.0,0.0,0.0,0.0,0.0,0.0,0.0,0.0,0.0,0.0,0.0,0.0,0.0,0.0,0.0,0.0,0.0,0.0,0.0,0.0,0.0,0.0,0.0,0.0,0.0,0.0,0.0,0.0,0.0,0.0,0.0,0.0,0.0,0.0,0.0,0.0,0.0,0.0,0.0,0.0,0.0,0.0,0.0,0.0,0.0,0.0,0.0,0.0,0.0,0.0,0.0,0.0,0.0,0.0,0.0,0.0,0.0,0.0,0.0,0.0,0.0,0.0,0.0,0.0,0.0,0.0,0.0,0.0,0.0,0.0,0.0,0.0,0.0,0.0,0.0,0.0,0.0,0.0,0.0,0.0,0.0,0.0,0.0,0.0,0.0,0.0,0.0,0.0,0.0,0.0,0.0,0.0,0.0,0.0,0.0,0.0,0.0,0.0,0.0,0.0,0.0,0.0,0.0,0.0,0.0,0.0,0.0,0.0,0.0,0.0,0.0,0.0,0.0,0.0,0.0,0.0,0.0,0.0,0.0,0.0,0.0,0.0,0.0,0.0,0.0,0.0,0.0,0.0,0.0,0.0,0.0,0.0,0.0,0.0,0.0,0.0,0.0,0.0,0.0,0.0,0.0,0.0,0.0,0.0,0.0,0.0,0.0,0.0,0.0,0.0,0.0,0.0,0.0,0.0,0.0,0.0,0.0,0.0,0.0,0.0,0.0,0.0,0.0,0.0,0.0,0.0,0.0,0.0,0.0,0.0,0.0,0.0,0.0,0.0,0.0,0.0,0.0,0.0,0.0,0.0,0.0,0.0,0.0,0.0,0.0,0.0,0.0,0.0,0.0,0.0,0.0,0.0,0.0,0.0,0.0,0.0,0.0,0.0,0.0,0.0,0.0,0.0,0.0,0.0,0.0,0.0,0.0,0.0,0.0,0.0,0.0,0.0,0.0,0.0,0.0,0.0,0.0,0.0,0.0,0.0,0.0,0.0,0.0,0.0,0.0,0.0,0.0,0.0,0.0,0.0,0.0,0.0,0.0,0.0,0.0,0.0,0.0,0.0,0.0,0.0,0.0,0.0,0.0,0.0,0.0,0.0,0.0,0.0,0.0,0.0,0.0,0.0,0.0,0.0,0.0,0.0,0.0,0.0,0.0,0.0,0.0,0.0,0.0,0.0,0.0,0.0,0.0,0.0,0.0,0.0,0.0,0.0,0.0,0.0,0.0,0.0,0.0,0.0,0.0,0.0,0.0,0.0,0.0,0.0,0.0,0.0,0.0,0.0,0.0,0.0,0.0,0.0,0.0,0.0,0.0,0.0,0.0,0.0,0.0,0.0,0.0,0.0,0.0,0.0,0.0,0.0,0.0,0.0,0.0,0.0,0.0,0.0,0.0,0.0,0.0,0.0,0.0,0.0,0.0,0.0,0.0,0.0,0.0,0.0,0.0,0.0,0.0,0.0,0.0,0.0,0.0,0.0,0.0,0.0,0.0,0.0,0.0,0.0,0.0,0.0,0.0,0.0,0.0,0.0,0.0,0.0,0.0,0.0,0.0,0.0,0.0,0.0,0.0,0.0,0.0,0.0,0.0,0.0,0.0,0.0,0.0,0.0,0.0,0.0,0.0,0.0,0.0,0.0,0.0,0.0,0.0,0.0,0.0,0.0,0.0,0.0,0.0,0.0,0.0,0.0,0.0,0.0,0.0,0.0,0.0,0.0,0.0,0.0,0.0,0.0,0.0,0.0,0.0,0.0,0.0,0.0,0.0,0.0,0.0,0.0,0.0,0.0,0.0,0.0,0.0,0.0,0.0,0.0,0.0,0.0,0.0,0.0,0.0,0.0,0.0,0.0,0.0,0.0,0.0,0.0,0.0,0.0,0.0,0.0,0.0,0.0,0.0,0.0,0.0,0.0,0.0,0.0,0.0,0.0,0.0,0.0,0.0,0.0,0.0,0.0,0.0,0.0,0.0,0.0,0.0,0.0,0.0,0.0,0.0,0.0,0.0,0.0,0.0,0.0,0.0,0.0,0.0,0.0,0.0,0.0,0.0,0.0,0.0,0.0,0.0,0.0,0.0,0.0,0.0,0.0,0.0,0.0,0.0,0.0,0.0,0.0,0.0,0.0,0.0,0.0,0.0,0.0,0.0,0.0,0.0,0.0,0.0,0.0,0.0,0.0,0.0,0.0,0.0,0.0,0.0,0.0,0.0,0.0,0.0,0.0,0.0,0.0,0.0,0.0,0.0,0.0,0.0,0.0,0.0,0.0,0.0,0.0,0.0,0.0,0.0,0.0,0.0,0.0,0.0,0.0,0.0,0.0,0.0,0.0,0.0,0.0,0.0,0.0,0.0,0.0,0.0,0.0,0.0,0.0,0.0,0.0,0.0,0.0,0.0,0.0,0.0,0.0,0.0,0.0,0.0,0.0,0.0,0.0,0.0,0.0,0.0,0.0,0.0,0.0,0.0,0.0,0.0,0.0,0.0,0.0,0.0,0.0,0.0,0.0,0.0,0.0,0.0,0.0,0.0,0.0,0.0,0.0,0.0,0.0,0.0,0.0,0.0,0.0,0.0,0.0,0.0,0.0,0.0,0.0,0.0,0.0,0.0,0.0,0.0,0.0,0.0,0.0,0.0,0.0,0.0,0.0,0.0,0.0,0.0,0.0,0.0,0.0,0.0,0.0,0.0,0.0,0.0,0.0,0.0,0.0,0.0,0.0,0.0,0.0,0.0,0.0,0.0,0.0,0.0,0.0,0.0,0.0,0.0,0.0,0.0,0.0,1.6415,0.0,0.0,0.0,0.0,0.0,0.0,0.0,0.0,0.0,0.0,0.0,0.0,0.0,0.0,0.0,0.0,0.0,0.0,0.0,0.0,0.0,0.0,0.0,0.0,0.0,0.0,0.0,0.0,0.0,0.0,0.0,0.0,0.0,0.0,0.0,0.0,0.0,0.0,0.0,0.0,0.0,0.0,0.0,0.0,0.0,0.0,0.0,0.0,0.0,0.0,0.0,0.0,0.0,0.0,0.0,0.0,0.0,0.0,0.0,0.0,0.0,0.0,0.0,0.0,0.0,0.0,0.0,0.0,0.0,0.0,0.0,0.0,0.0,0.0,0.0,0.0,0.0,0.0,0.0,0.0,0.0,0.0,0.0,0.0,0.0,0.0,0.0,0.0,0.0,0.0,0.0,0.0,0.0,0.0,0.0,0.0,0.0,0.0,0.0,0.0,0.0,0.0,0.0,0.0,0.0,0.0,0.0,0.0,0.0,0.0,0.0,0.0,0.0,0.0,0.0,0.0,1.7036,0.0,0.0,0.0,0.0,0.0,0.0,0.0,0.0,0.0,0.0,0.0,0.0,0.0,0.0,0.0,0.0,0.0,0.0,0.0,0.0,0.0,0.0,0.0,0.0,0.0,0.0,0.0,0.0,0.0,0.0,0.0,0.0,0.0,0.0,0.0,0.0,0.0,0.0,0.0,0.0,0.0,0.0,0.0,0.0,0.0,0.0,0.0,0.0,0.0,0.0,0.0,0.0,0.0,0.0,0.0,0.0,0.0,0.0,0.0,0.0,0.0,0.0,0.0,0.0,0.0,0.0,0.0,0.0,0.0,0.0,0.0,0.0,0.0,0.0,0.0,0.0,0.0,0.0,0.0,0.0,0.0,0.0,0.0,0.0,0.0,0.0,0.0,0.0,0.0,0.0,0.0,0.0,0.0,0.0,0.0,0.0,0.0,0.0,0.0,0.0,0.0,0.0,0.0,0.0,0.0,0.0,0.0,0.0,1.8982,1.9222,1.9575,1.9575,1.9575,1.9533,1.8775,1.8184,1.7792,1.7399,0.0,0.0,0.0,0.0,0.0,0.0,0.0,0.0,0.0,0.0,0.0,0.0,0.0,0.0,0.0,0.0,0.0,0.0,0.0,0.0,0.0,0.0,0.0,0.0,0.0,0.0,0.0,0.0,0.0,0.0,0.0,0.0,0.0,0.0,0.0,0.0,0.0,0.0,2.4239,2.513,2.5254,2.4736,2.3659,0.0,0.0,0.0,0.0,0.0,0.0,0.0,0.0,0.0,0.0,0.0,0.0,0.0,0.0,0.0,0.0,0.0,0.0,0.0,0.0,0.0,0.0,0.0,0.0,0.0,0.0,0.0,0.0,0.0,0.0,0.0,0.0,0.0,0.0,0.0,0.0,0.0,0.0,0.0,0.0,0.0,0.0,0.0,1.9098,1.9098,0.0,0.0,0.0,0.0,0.0,0.0,0.0,0.0,0.0,0.0,0.0,0.0,0.0,1.9458,2.0659,2.0643,2.0907,2.1342,2.1342,2.1383,2.1445,2.1445,2.1445,2.1445,2.1321,0.0,1.8278,1.8237,0.0,0.0,0.0,0.0,0.0,0.0,0.0,0.0,0.0,0.0,0.0,0.0,0.0,0.0,0.0,0.0,0.0,0.0,0.0,0.0,0.0,0.0,0.0,0.0,0.0,0.0,0.0,0.0,0.0,0.0,0.0,0.0,0.0,0.0,0.0,0.0,2.4634,2.5627,2.6082,2.6724,2.6931,2.6656,2.5854,2.5077,2.4343,2.3705,0.0,0.0,0.0,0.0,0.0,0.0,0.0,0.0,0.0,0.0,0.0,0.0,0.0,0.0,0.0,0.0,0.0,0.0,0.0,0.0,0.0,0.0,0.0,0.0,0.0,0.0,0.0,0.0,0.0,0.0,0.0,0.0,0.0,0.0,0.0,0.0,0.0,0.0,0.0,1.9326,1.9388,1.9139,1.9326,1.9388,0.0,0.0,0.0,0.0,0.0,0.0,0.0,0.0,0.0,2.0886,2.0721,2.0907,2.1507,2.1507,2.1735,2.219,2.219,2.2335,2.2584,2.2584,2.2584,2.2584,2.2584,2.1859,2.0617,1.9616,1.8932,1.8423,0.0,0.0,0.0,0.0,1.7688,1.8009,0.0,0.0,0.0,0.0,0.0,0.0,0.0,0.0,0.0,0.0,0.0,0.0,0.0,0.0,0.0,2.3846,0.0,0.0,0.0,0.0,0.0,0.0,0.0,0.0,0.0,0.0,0.0,2.4385,2.6206,2.7386,2.8014,2.8545,2.8752,2.8607,2.8152,2.6812,2.4738,2.3867,2.3329,0.0,0.0,0.0,0.0,0.0,0.0,0.0,0.0,0.0,0.0,0.0,0.0,0.0,0.0,0.0,0.0,0.0,0.0,0.0,0.0,0.0,0.0,0.0,0.0,0.0,0.0,0.0,0.0,0.0,0.0,0.0,0.0,0.0,0.0,0.0,0.0,0.0,0.0,1.9596,1.9803,1.9326,1.9782,1.9969,0.0,0.0,0.0,0.0,0.0,0.0,2.0762,2.1093,2.1507,2.1963,2.1983,2.2087,2.2335,2.2335,2.2563,2.3018,2.3018,2.3205,2.3536,2.3536,2.3536,2.3536,2.3536,2.3267,2.2729,2.1172,2.0155,1.952,1.8825,1.8494,1.837,1.8267,1.8526,1.8816,0.0,0.0,0.0,0.0,0.0,0.0,0.0,0.0,0.0,0.0,0.0,0.0,0.0,0.0,2.5526,2.5751,2.6231,2.6082,0.0,0.0,0.0,0.0,0.0,0.0,0.0,0.0,0.0,2.5771,2.7614,2.898,2.987,3.0781,3.0967,3.0532,3.0056,2.8835,2.7019,2.5213,2.4425,2.4323,0.0,0.0,0.0,0.0,0.0,0.0,0.0,0.0,0.0,0.0,0.0,0.0,0.0,0.0,0.0,0.0,0.0,0.0,0.0,0.0,0.0,0.0,0.0,0.0,0.0,0.0,0.0,0.0,0.0,0.0,0.0,0.0,0.0,0.0,0.0,0.0,0.0,0.0,0.0,1.9803,2.0514,0.0,0.0,0.0,0.0,2.101,2.1445,2.1714,2.1735,2.1756,2.1983,2.2439,2.2459,2.2894,2.3805,2.3764,2.3991,2.4404,2.4404,2.4404,2.4425,2.4425,2.4425,2.4425,2.4425,2.4219,2.3743,2.277,2.1818,2.101,2.0969,2.0679,2.0209,1.9844,1.9934,2.0203,0.0,0.0,0.0,0.0,0.0,0.0,0.0,0.0,0.0,0.0,0.0,0.0,0.0,2.5636,2.628,2.7531,2.751,2.7055,2.6144,0.0,0.0,0.0,0.0,0.0,0.0,0.0,2.6625,2.7634,3.0077,3.1443,3.1754,3.2085,3.2168,3.1961,3.1215,3.0346,2.9311,2.6868,2.5523,2.4861,2.3633,2.2796,0.0,0.0,0.0,0.0,0.0,0.0,0.0,0.0,0.0,0.0,0.0,0.0,0.0,0.0,0.0,0.0,0.0,0.0,0.0,0.0,0.0,0.0,0.0,0.0,0.0,0.0,0.0,0.0,0.0,0.0,0.0,0.0,0.0,0.0,0.0,0.0,0.0,2.1466,2.1818,0.0,2.1776,2.1631,2.1673,2.1983,2.2439,2.2956,2.3495,2.3805,2.4219,2.4654,2.4674,2.484,2.515,2.4881,2.4964,2.5399,2.4776,2.4652,2.4941,2.4631,2.4507,2.4507,2.4507,2.4404,2.4281,2.395,2.3101,2.1983,2.1673,2.1466,2.13,2.1135,2.1362,2.1673,0.0,0.0,0.0,0.0,0.0,0.0,0.0,0.0,0.0,0.0,0.0,2.4012,2.628,2.6708,2.74,2.8959,2.8703,2.8,2.6915,0.0,0.0,0.0,0.0,0.0,0.0,2.6931,2.8483,2.9539,3.1836,3.3037,3.3182,3.3182,3.3099,3.2913,3.2168,3.1567,3.1008,2.8856,2.7158,2.5792,2.426,2.3453,2.308,0.0,0.0,0.0,0.0,0.0,0.0,0.0,0.0,0.0,0.0,0.0,0.0,0.0,0.0,0.0,0.0,0.0,0.0,0.0,0.0,0.0,0.0,0.0,0.0,0.0,0.0,0.0,0.0,0.0,0.0,0.0,0.0,0.0,0.0,0.0,2.2211,2.2666,2.3143,2.337,2.3205,2.306,2.3101,2.3391,2.3846,2.4364,2.4964,2.5275,2.5585,2.5875,2.5875,2.5875,2.5875,2.5585,2.5585,2.5875,2.5275,2.515,2.544,2.4941,2.4735,2.4735,2.4569,2.4507,2.4507,2.4507,2.397,2.3143,2.2687,2.2418,2.2273,2.2273,2.2459,2.2687,0.0,0.0,0.0,0.0,0.0,0.0,0.0,0.0,0.0,0.0,2.3369,2.487,2.595,2.7541,2.8949,3.0015,2.9732,2.8858,2.7488,2.553,0.0,0.0,0.0,0.0,2.5982,2.8235,3.0077,3.1422,3.2768,3.3679,3.4113,3.4152,3.3865,3.341,3.2975,3.2463,3.1967,3.1133,2.9456,2.7268,2.5378,2.4569,2.4383,0.0,0.0,0.0,0.0,0.0,0.0,0.0,0.0,0.0,0.0,0.0,0.0,0.0,0.0,0.0,0.0,0.0,0.0,0.0,0.0,0.0,0.0,0.0,0.0,0.0,0.0,0.0,0.0,0.0,0.0,0.0,0.0,0.0,2.1197,2.2749,2.3743,2.337,2.4488,2.5086,2.4652,2.5003,2.5251,2.5272,2.5709,2.5982,2.5958,2.5958,2.5958,2.5937,2.5937,2.5937,2.5937,2.5962,2.5962,2.5937,2.5941,2.5941,2.5941,2.544,2.5189,2.5168,2.4693,2.4507,2.4507,2.4507,2.4507,2.4466,2.4074,2.3619,2.3225,2.3225,2.3225,2.3225,0.0,0.0,0.0,0.0,0.0,0.0,0.0,0.0,0.0,0.0,2.4992,2.6173,2.8986,2.9174,3.0026,3.2383,2.9986,2.8473,2.889,0.0,0.0,0.0,0.0,0.0,2.7841,3.045,3.1981,3.2354,3.4031,3.4921,3.5045,3.4714,3.4672,3.4817,3.4051,3.343,3.2975,3.2416,3.1422,3.0056,2.7862,2.616,2.4921,0.0,0.0,0.0,0.0,0.0,0.0,0.0,0.0,0.0,0.0,0.0,0.0,0.0,0.0,0.0,0.0,0.0,0.0,0.0,0.0,0.0,0.0,0.0,0.0,0.0,0.0,0.0,0.0,0.0,0.0,0.0,0.0,2.3122,2.3122,2.3846,2.4799,2.6044,2.6521,2.6786,2.6972,2.6827,2.6827,2.7158,2.7303,2.751,2.7841,2.7862,2.7717,2.7365,2.7365,2.7365,2.7365,2.6703,2.6703,2.7345,2.6351,2.6107,2.6397,2.5585,2.5189,2.5168,2.4693,2.4507,2.4507,2.4507,2.4507,2.4487,2.4363,2.4281,2.4135,2.4135,2.4135,2.4135,0.0,0.0,0.0,0.0,0.0,0.0,0.0,0.0,0.0,0.0,2.5854,2.6998,2.948,2.9111,2.9518,3.1593,2.9189,2.7605,2.769,0.0,0.0,0.0,0.0,2.8747,2.9456,3.1981,3.3389,3.3575,3.5004,3.5707,3.5707,3.5645,3.5645,3.5687,3.4962,3.4383,3.3986,3.3492,3.2768,3.1816,3.047,2.8731,2.6848,2.5999,2.5357,2.4819,2.4157,2.4178,2.4383,2.3577,0.0,0.0,0.0,0.0,0.0,0.0,0.0,0.0,0.0,0.0,0.0,0.0,0.0,0.0,0.0,0.0,0.0,0.0,0.0,0.0,0.0,0.0,0.0,0.0,2.4115,2.4923,2.5482,2.5627,2.6144,2.7386,2.7696,2.7924,2.8193,2.7986,2.7924,2.8193,2.8214,2.8338,2.8607,2.8607,2.8483,2.8214,2.8214,2.811,2.7924,2.7407,2.7303,2.7634,2.6848,2.6646,2.6874,2.6123,2.5689,2.5482,2.4983,2.4673,2.4507,2.4507,2.4507,0.0,0.0,0.0,0.0,0.0,2.4507,2.4507,0.0,0.0,0.0,0.0,0.0,0.0,0.0,0.0,0.0,0.0,0.0,2.7502,2.8649,2.8222,2.8328,2.9488,2.7926,2.6403,0.0,0.0,0.0,2.5808,2.9252,3.1116,3.0959,3.3078,3.4424,3.4899,3.5687,3.6163,3.6287,3.6639,3.6618,3.6246,3.5728,3.5252,3.4857,3.4341,3.3658,3.2892,3.2892,3.1485,2.9249,2.8077,2.7558,2.733,2.6418,2.5627,2.5003,2.4797,0.0,0.0,0.0,0.0,0.0,0.0,0.0,0.0,0.0,0.0,0.0,0.0,0.0,0.0,0.0,0.0,0.0,0.0,0.0,0.0,0.0,0.0,0.0,0.0,2.5523,2.6579,2.7903,2.7738,2.7683,2.8028,2.8483,2.8773,2.8773,2.8773,2.8773,2.8773,2.8773,2.8773,2.8773,0.0,0.0,0.0,0.0,2.8504,2.809,2.7966,2.7759,2.7455,2.7351,2.7309,2.7289,2.6832,2.6397,2.5937,2.544,2.4962,2.4569,2.4507,2.4507,2.4507,2.4507,2.4507,2.4507,2.4507,2.4507,2.4507,0.0,0.0,0.0,0.0,0.0,0.0,0.0,0.0,0.0,2.6631,2.7191,2.8027,2.9506,2.8749,2.9088,3.1437,2.7778,2.5497,0.0,0.0,2.8271,2.9189,3.1796,3.2942,3.2313,3.4196,3.5211,3.5293,3.5852,3.6494,3.7218,3.6929,3.6949,3.7198,3.6349,3.5728,3.5273,3.4817,3.432,3.3803,3.3803,3.223,2.9829,2.9559,2.9001,2.8235,2.7372,2.7593,2.8152,2.6682,2.6248,2.6144,2.5047,0.0,0.0,0.0,0.0,0.0,0.0,0.0,0.0,0.0,0.0,0.0,0.0,0.0,0.0,0.0,0.0,0.0,0.0,0.0,0.0,2.602,2.6931,2.7883,2.8897,2.8959,2.8938,2.9021,2.9456,2.9725,2.9725,2.9725,2.9725,2.9725,2.9725,2.9725,2.9725,2.9725,2.9559,2.9187,2.9166,2.9125,2.9042,2.8297,2.8069,2.8338,0.0,0.0,2.7289,2.6832,2.6563,2.6438,2.5585,2.5148,2.5024,2.4652,2.4507,2.4507,2.4507,2.4507,2.4507,2.4507,2.4507,2.4507,0.0,0.0,0.0,0.0,0.0,0.0,0.0,0.0,0.0,0.0,2.6954,2.747,2.8491,2.7436,2.7392,2.9262,2.6872,0.0,0.0,2.9364,3.1043,3.2203,3.4477,3.5288,3.4353,3.5246,3.5769,3.5769,3.6701,3.726,3.7508,3.7715,3.7839,3.7819,3.7115,3.6556,3.608,3.6347,3.5976,3.5338,3.5338,3.4417,3.2904,3.1746,3.0801,2.9932,2.9477,2.9311,2.9166,2.8255,2.7683,2.7143,2.6185,2.513,2.4074,0.0,0.0,0.0,0.0,0.0,0.0,0.0,0.0,0.0,0.0,0.0,0.0,0.0,0.0,2.4012,0.0,0.0,2.6537,2.7448,2.8173,2.8938,2.987,2.9994,2.9911,2.9684,2.9849,2.9994,2.9994,2.9994,2.9994,2.9994,2.9994,2.9994,2.9994,2.9994,2.9891,2.9663,2.9642,2.9539,2.9311,2.8607,2.838,2.8607,2.7745,2.7434,2.7572,2.7164,2.6708,2.6206,2.5751,2.5295,2.4817,2.459,2.4507,2.4507,2.4507,2.4507,2.4507,2.4507,2.4507,2.4507,0.0,0.0,0.0,0.0,0.0,0.0,0.0,0.0,0.0,0.0,2.6463,2.6706,2.7338,2.6155,2.5535,0.0,0.0,0.0,0.0,3.1389,3.3292,3.4704,3.6538,3.7032,3.6031,3.6183,3.6287,3.639,3.7508,3.7902,3.7653,3.8378,3.8523,3.8171,3.7612,3.7198,3.6972,3.7441,3.7414,3.7025,3.6638,3.6432,3.6027,3.3849,3.2437,3.1609,3.1443,3.0429,2.9187,2.927,2.84,2.7247,2.6978,2.6206,2.5316,2.4405,2.3681,0.0,0.0,0.0,0.0,0.0,0.0,0.0,0.0,0.0,2.3267,2.4095,2.4695,2.5295,2.602,2.6957,2.7821,2.8731,2.927,2.987,3.0698,3.0822,3.0657,3.018,3.0201,3.0222,3.0139,3.0139,3.0098,2.9994,2.9994,2.9994,2.9994,2.9994,2.9994,2.9994,2.9994,2.9808,2.9435,2.898,2.8711,2.8607,2.7779,2.7531,2.7779,2.7475,2.6895,2.619,2.6003,2.542,2.4631,2.4528,2.4507,2.4507,2.4507,2.4507,2.4507,2.4507,2.4507,2.4507,0.0,0.0,0.0,0.0,0.0,0.0,0.0,0.0,0.0,0.0,0.0,0.0,0.0,0.0,0.0,0.0,0.0,0.0,3.07,3.1832,3.3618,3.6297,3.6911,3.685,3.6123,3.6495,3.6929,3.7343,3.7488,3.7757,3.8109,3.8212,3.8233,3.815,3.726,3.7074,3.7363,3.6601,3.719,3.8404,3.6791,3.6635,3.7046,3.4774,3.3368,3.2478,3.1671,3.0222,2.8752,2.9166,2.84,2.7372,2.7655,2.7158,2.6248,2.5337,0.0,2.308,2.2563,2.2149,2.2066,2.2832,2.277,2.2915,0.0,0.0,2.5068,2.5564,2.6397,2.704,2.7123,2.7841,2.8773,2.9684,3.0222,3.0719,3.1236,3.1298,3.1133,3.0657,3.0967,3.1071,3.0657,3.0615,3.045,3.0036,2.9994,2.9994,2.9994,2.9994,2.9994,2.9994,2.9994,2.9973,2.9911,2.9456,2.9021,2.8607,2.809,2.7676,2.7372,2.733,2.7247,2.7102,2.6273,2.5606,2.5086,2.4673,2.4507,2.4507,2.4507,2.4507,2.4507,2.4507,2.4507,2.4507,0.0,0.0,0.0,0.0,0.0,0.0,0.0,0.0,0.0,0.0,0.0,0.0,0.0,0.0,0.0,0.0,0.0,0.0,3.1404,3.3225,3.5743,3.9195,3.8413,3.8045,3.8275,3.7298,3.6908,3.7094,3.7881,3.8109,3.7798,3.8316,3.844,3.815,3.7508,3.7322,3.7491,3.7297,3.7665,3.823,3.7197,3.6846,3.6725,3.4248,3.2561,3.1464,3.0801,2.9559,0.0,0.0,2.7786,2.733,2.7469,2.691,2.6041,2.542,2.4447,0.0,2.3018,2.2749,0.0,0.0,2.3846,2.4426,2.5709,2.5999,2.6206,2.6931,2.7593,2.8131,2.84,2.9208,2.9953,0.0,3.0781,3.1257,3.1692,3.1547,3.1298,3.1112,3.1257,3.1195,3.0739,3.045,3.0305,3.0387,3.0139,2.9994,2.9994,2.9994,2.9994,2.9994,2.9994,2.9994,2.9994,2.9539,2.9352,2.9415,2.84,2.7966,2.8028,2.7537,2.7019,2.6459,2.5771,2.5254,2.4797,2.4879,2.4735,2.4507,2.4507,2.4507,2.4507,2.4507,2.4507,2.4507,0.0,0.0,0.0,0.0,0.0,0.0,0.0,0.0,0.0,0.0,0.0,0.0,0.0,0.0,0.0,0.0,0.0,0.0,0.0,3.3301,3.5909,3.9501,3.8237,3.8063,3.9419,3.7586,3.6851,3.736,3.793,3.7943,3.7322,3.7984,3.8109,3.7777,3.7322,3.7177,3.7304,3.7423,3.7681,3.7986,3.714,3.6573,3.6005,3.3218,3.1236,2.9891,2.9539,2.8297,0.0,0.0,2.6501,2.6252,2.6579,2.6227,2.5647,2.5272,2.4488,2.3619,2.3287,0.0,0.0,2.426,2.5026,2.5834,2.6744,2.7034,2.7365,2.8131,2.8669,2.9104,2.9435,3.0036,3.0574,3.0843,3.1153,3.1526,3.1926,3.165,3.1278,3.1029,3.0884,3.0719,3.0512,3.0305,3.0263,3.047,3.018,2.9994,2.9994,2.9994,2.9994,2.9994,2.9994,2.9994,2.9994,2.9663,2.9601,2.9787,2.8649,2.8214,2.84,2.7614,2.6874,2.6086,2.5606,2.5213,2.4879,2.5106,2.5065,2.4859,2.4735,2.4693,2.4673,2.4549,2.4507,2.4507,0.0,0.0,0.0,0.0,0.0,0.0,0.0,0.0,0.0,0.0,0.0,0.0,0.0,0.0,0.0,0.0,0.0,0.0,0.0,3.1089,3.2553,3.5346,3.5119,3.5936,3.8192,3.686,3.696,3.8625,3.7466,3.6846,3.6825,3.6846,3.6867,3.6825,3.637,3.6411,3.6784,3.6371,3.6958,3.8008,3.6202,3.5431,3.5072,3.1969,2.9601,2.8007,2.7986,0.0,0.0,0.0,2.4405,2.3536,2.4838,2.523,0.0,2.5189,2.4281,0.0,0.0,0.0,2.4178,2.5482,2.621,2.6812,2.7676,2.8235,2.869,2.9166,2.9622,2.9953,2.9973,2.9994,3.0305,3.1215,3.136,3.1526,3.1926,3.165,3.105,3.0139,2.9642,2.9539,0.0,3.0408,3.0491,3.0056,2.9994,2.9994,2.9994,2.9994,2.9994,2.9994,2.9994,2.9994,2.9994,2.9973,2.9766,2.9311,2.8835,2.8359,2.7924,2.7469,2.704,2.6563,2.6061,2.5854,2.5813,2.5399,2.5482,2.5792,2.5378,2.5168,2.5106,2.4673,2.4507,2.4507,0.0,0.0,0.0,0.0,0.0,0.0,0.0,0.0,0.0,0.0,0.0,0.0,0.0,0.0,0.0,0.0,0.0,0.0,0.0,3.0018,3.1557,3.3933,3.383,3.4555,3.636,3.54,3.5291,3.6273,3.5739,3.5128,3.4548,3.5148,3.5293,3.4983,3.4817,3.5004,3.5418,3.4941,3.4703,3.445,3.3522,3.2448,3.1127,2.9182,2.7655,2.6372,0.0,0.0,0.0,0.0,0.0,0.0,2.3536,0.0,0.0,2.3784,0.0,0.0,0.0,0.0,2.6356,2.7055,2.8048,2.9001,2.9622,2.987,2.9953,2.9787,2.9394,2.898,2.8669,2.8876,2.9373,3.0305,3.0967,3.1526,3.1926,3.165,3.0926,2.9684,2.9663,0.0,0.0,0.0,0.0,3.0408,3.018,2.9994,2.9994,2.9994,2.9994,2.9994,2.9994,2.9994,2.9994,2.9994,2.9911,2.9766,2.898,2.8214,2.7469,2.7061,2.677,2.6584,2.6082,2.5875,2.5854,2.542,2.5272,2.5399,2.49,2.4735,2.4755,2.49,2.4755,2.4507,0.0,0.0,0.0,0.0,0.0,0.0,0.0,0.0,0.0,0.0,0.0,0.0,0.0,0.0,0.0,0.0,0.0,0.0,0.0,0.0,3.0196,3.2,3.2013,3.2672,3.4173,3.299,3.2705,3.3377,3.3036,3.2499,3.194,3.2706,3.2892,3.2602,3.2602,3.308,3.3822,3.3281,3.2756,3.2167,3.1536,3.0068,2.8173,2.6806,2.5709,0.0,0.0,0.0,0.0,0.0,0.0,0.0,0.0,0.0,0.0,0.0,0.0,0.0,0.0,2.6703,2.7903,2.8504,2.958,3.0532,3.0657,3.0553,3.0263,2.9622,2.8897,2.8235,2.7779,2.7924,2.8421,2.9352,2.9994,3.0657,3.1443,3.1029,3.0367,2.9642,2.9518,2.9332,0.0,0.0,0.0,3.0387,3.0325,3.018,2.9994,3.016,3.016,2.9994,2.9994,2.9994,2.9994,2.9994,2.9829,2.9497,2.8897,2.8131,2.7289,2.6998,2.677,2.6604,2.6293,2.6169,2.6082,2.5647,2.5564,2.5668,2.5192,2.5026,2.5047,2.5357,2.5275,2.5006,0.0,0.0,0.0,0.0,0.0,0.0,0.0,0.0,0.0,0.0,0.0,0.0,0.0,0.0,0.0,0.0,0.0,0.0,0.0,0.0,0.0,2.9565,2.9609,3.0271,3.1676,3.0008,2.951,3.0408,2.9579,2.9155,2.9113,2.9539,2.9746,2.9725,2.9746,3.0495,3.1741,3.1278,3.104,3.094,3.0002,2.8338,2.6252,2.4902,0.0,0.0,0.0,0.0,0.0,0.0,0.0,0.0,0.0,0.0,0.0,0.0,0.0,2.5502,2.6475,2.7738,2.9001,2.9891,3.0781,3.1319,3.0801,3.0305,2.9704,2.8773,2.8173,2.7676,0.0,0.0,2.7537,2.8421,2.8628,2.9166,3.0532,2.9973,2.9601,0.0,0.0,0.0,0.0,0.0,0.0,3.0036,0.0,3.0491,3.0015,3.0429,3.047,3.0015,2.9994,2.9994,2.9994,2.9994,2.9539,2.8607,2.8607,2.8131,2.7309,2.7309,2.7061,2.6646,2.6625,2.6625,2.6625,2.6082,2.619,2.6609,2.6152,2.5965,2.5965,2.5986,2.5986,2.5903,0.0,0.0,0.0,0.0,0.0,0.0,0.0,0.0,0.0,0.0,0.0,0.0,0.0,0.0,0.0,0.0,0.0,0.0,0.0,0.0,0.0,0.0,0.0,0.0,0.0,0.0,0.0,0.0,0.0,2.7262,2.6533,2.6455,2.6268,2.5892,2.6289,2.6822,2.7474,2.7704,2.7201,2.6256,0.0,2.493,2.3453,0.0,0.0,0.0,0.0,0.0,0.0,0.0,0.0,0.0,0.0,0.0,2.3391,0.0,0.0,2.6662,2.8587,3.0118,3.1161,3.1409,3.1961,3.2085,3.0946,3.0056,2.9208,2.8297,2.72,2.6268,0.0,0.0,0.0,2.7903,2.8959,0.0,3.105,3.1278,0.0,3.0574,0.0,3.0594,3.0346,3.0657,0.0,0.0,3.0822,3.0491,3.0015,3.0429,3.047,3.0015,2.9994,2.9994,2.9994,2.9994,2.9539,2.8607,2.8607,2.8131,2.7309,2.7309,2.7247,2.7102,2.677,2.6812,2.7061,2.6252,2.6599,2.7597,2.7146,2.6951,2.7016,2.7317,2.723,2.6994,0.0,0.0,0.0,0.0,0.0,0.0,0.0,0.0,0.0,0.0,0.0,0.0,0.0,0.0,0.0,0.0,0.0,0.0,0.0,0.0,0.0,0.0,0.0,0.0,0.0,0.0,0.0,0.0,0.0,0.0,0.0,2.4941,2.4695,2.4173,2.4345,2.5083,2.6173,2.6173,0.0,0.0,0.0,0.0,0.0,0.0,0.0,0.0,0.0,0.0,0.0,0.0,0.0,2.3143,2.3329,2.3991,2.4902,2.6061,0.0,2.8442,3.0139,3.1588,3.2582,3.2339,3.254,3.2256,3.0739,2.9663,2.8628,2.7303,2.6268,0.0,0.0,0.0,0.0,0.0,0.0,0.0,3.0864,3.1112,3.1174,0.0,3.134,0.0,3.1008,3.1236,3.1381,0.0,3.1319,3.0988,3.0325,3.0739,3.0677,3.0015,2.9994,2.9994,2.9994,2.9994,2.9539,2.8607,2.8607,2.8131,2.7309,2.7309,2.7309,2.7289,0.0,2.7061,2.7247,2.6521,2.6676,2.739,2.7563,2.7633,2.7721,2.8633,2.8813,2.8567,0.0,0.0,0.0,0.0,0.0,0.0,0.0,0.0,0.0,0.0,0.0,0.0,0.0,0.0,0.0,0.0,0.0,0.0,0.0,0.0,0.0,0.0,0.0,0.0,0.0,0.0,0.0,0.0,0.0,0.0,0.0,0.0,0.0,0.0,0.0,0.0,0.0,0.0,0.0,0.0,0.0,0.0,0.0,0.0,0.0,0.0,0.0,0.0,0.0,0.0,2.3577,2.4136,2.4571,2.5606,2.6915,2.7903,2.9042,3.0243,3.1422,3.2582,3.3389,3.2996,3.2727,3.2085,3.0305,2.9001,2.7696,2.6041,0.0,2.4879,2.4487,0.0,2.5544,2.6542,0.0,2.8263,3.047,3.0491,3.0739,3.1926,3.1795,3.1547,3.1547,3.1547,3.1547,3.1547,3.1919,3.1712,3.0739,3.1071,3.0884,3.0015,2.9994,2.9994,2.9994,2.9994,2.9559,2.8711,2.8649,2.8173,2.7392,2.733,2.7309,2.7309,2.7309,2.7309,2.7268,2.6874,2.6755,2.6987,2.7772,2.8181,2.8452,2.9738,3.026,3.0326,0.0,0.0,0.0,0.0,0.0,0.0,0.0,0.0,0.0,0.0,2.6499,2.6499,0.0,0.0,0.0,0.0,0.0,0.0,0.0,0.0,0.0,0.0,0.0,0.0,0.0,0.0,0.0,0.0,0.0,0.0,0.0,0.0,0.0,0.0,0.0,0.0,0.0,0.0,0.0,0.0,0.0,0.0,0.0,0.0,0.0,0.0,0.0,0.0,0.0,0.0,2.3991,2.5024,2.5502,2.6376,2.7517,2.9145,2.9808,3.0512,3.2954,3.3782,3.3986,3.3844,3.2706,3.1236,2.9766,2.7552,0.0,0.0,0.0,2.4095,2.4012,2.4674,0.0,2.6978,0.0,0.0,0.0,0.0,3.1864,0.0,0.0,0.0,0.0,0.0,0.0,0.0,0.0,3.2043,3.076,3.076,3.0553,3.0015,2.9994,2.9994,2.9994,2.9994,2.9725,2.9187,2.8794,2.8338,2.78,2.7427,2.7309,2.7309,2.7309,0.0,2.7309,2.7226,2.7636,2.8361,2.85,2.91,2.9874,3.0102,3.0666,3.1335,0.0,0.0,0.0,0.0,0.0,0.0,0.0,0.0,2.66,2.6876,2.6675,2.6499,2.6499,2.6499,0.0,0.0,0.0,0.0,0.0,0.0,0.0,0.0,0.0,0.0,0.0,0.0,0.0,0.0,0.0,0.0,0.0,0.0,0.0,0.0,0.0,0.0,0.0,0.0,0.0,0.0,0.0,0.0,0.0,0.0,0.0,0.0,0.0,0.0,0.0,0.0,2.4095,2.5292,2.602,2.72,2.8545,2.9663,3.0677,3.1754,3.3285,3.4238,3.461,3.3886,3.252,3.0884,2.9001,0.0,0.0,0.0,0.0,2.395,2.4178,0.0,0.0,0.0,0.0,0.0,0.0,0.0,0.0,0.0,0.0,0.0,0.0,0.0,0.0,0.0,0.0,3.1981,3.1091,3.0594,3.0222,2.9994,2.9994,2.9994,2.9994,2.9994,2.9766,2.929,2.8835,2.8359,2.7903,2.7469,2.7309,2.7309,2.7309,0.0,2.7593,2.7593,2.8028,2.8721,2.925,2.955,2.9937,3.0926,3.1418,3.1669,0.0,0.0,0.0,0.0,0.0,0.0,0.0,2.66,2.6826,2.7218,2.6927,2.6675,2.6675,2.6575,2.6499,0.0,0.0,0.0,0.0,0.0,0.0,0.0,0.0,0.0,0.0,0.0,0.0,0.0,0.0,0.0,0.0,0.0,0.0,0.0,0.0,0.0,0.0,0.0,0.0,0.0,0.0,0.0,0.0,0.0,0.0,0.0,0.0,0.0,0.0,0.0,2.3826,2.4943,2.573,2.7386,2.9125,2.9684,3.1153,3.2727,3.3348,3.4383,3.4983,3.3699,3.2126,3.0314,2.8255,2.631,0.0,0.0,2.4053,2.3991,2.4301,0.0,0.0,0.0,0.0,0.0,0.0,0.0,0.0,0.0,0.0,0.0,0.0,0.0,0.0,0.0,0.0,0.0,3.1257,3.045,2.9994,2.9994,2.9994,2.9994,2.9994,2.9994,2.9808,2.9456,2.898,2.8566,2.8193,2.7655,2.7496,2.76,2.7496,0.0,0.0,2.8069,2.8297,2.8657,2.9451,2.985,3.0075,3.1623,3.2115,3.2215,0.0,0.0,0.0,0.0,0.0,0.0,0.0,2.6927,2.7218,2.7268,2.7278,2.7253,2.7253,2.6801,2.6499,0.0,0.0,0.0,0.0,0.0,0.0,0.0,0.0,0.0,0.0,0.0,0.0,0.0,0.0,0.0,0.0,0.0,0.0,0.0,0.0,0.0,0.0,0.0,0.0,0.0,0.0,0.0,0.0,0.0,0.0,0.0,0.0,0.0,0.0,0.0,0.0,2.3453,2.4012,2.5937,2.8214,2.9104,0.0,0.0,3.3658,3.4463,3.465,3.3617,3.1422,2.9104,2.7703,0.0,0.0,0.0,2.3619,2.3888,2.3929,2.4302,2.4838,0.0,0.0,0.0,0.0,0.0,0.0,0.0,0.0,0.0,0.0,0.0,0.0,0.0,0.0,0.0,3.0801,3.0263,2.9994,2.9994,2.9994,2.9994,2.9994,2.9994,2.9973,2.9932,2.9456,2.9208,2.9145,2.8255,2.809,2.8462,2.8048,0.0,0.0,2.8545,2.8566,2.8607,2.8707,2.9829,3.1521,3.1711,3.2574,3.369,0.0,0.0,0.0,0.0,0.0,0.0,0.0,2.6675,2.7052,2.7695,2.7228,2.7077,2.7695,2.7027,2.6499,0.0,0.0,0.0,0.0,0.0,0.0,0.0,0.0,0.0,0.0,0.0,0.0,0.0,0.0,0.0,0.0,0.0,0.0,0.0,0.0,0.0,0.0,0.0,0.0,0.0,0.0,0.0,0.0,0.0,0.0,0.0,0.0,0.0,0.0,0.0,0.0,0.0,2.2335,2.3722,0.0,0.0,2.8959,3.0698,3.2064,3.3161,3.3699,3.2789,3.0926,2.8876,2.7268,0.0,0.0,2.3639,2.3743,2.3971,2.4219,2.4383,2.4611,0.0,0.0,0.0,0.0,0.0,0.0,0.0,0.0,0.0,0.0,0.0,0.0,0.0,0.0,0.0,3.1133,3.0657,3.0284,2.9994,2.9994,2.9994,2.9994,2.9994,2.9994,2.9994,2.9518,2.9311,2.929,2.8628,2.8442,2.8607,2.8421,0.0,0.0,2.9985,3.0556,3.1368,3.1368,3.1484,3.178,3.2324,3.2522,3.2582,0.0,0.0,0.0,0.0,0.0,2.6499,2.6499,2.6625,2.7027,2.777,2.7228,2.7027,2.777,2.7052,2.6499,2.6499,0.0,0.0,0.0,0.0,0.0,0.0,0.0,0.0,0.0,0.0,0.0,0.0,0.0,0.0,0.0,0.0,0.0,0.0,0.0,0.0,0.0,0.0,0.0,0.0,0.0,0.0,0.0,0.0,0.0,0.0,0.0,0.0,0.0,0.0,0.0,0.0,0.0,0.0,0.0,0.0,2.7262,2.9187,3.052,3.1836,3.2602,3.1836,3.0263,2.8421,0.0,0.0,2.3991,2.3764,2.3888,2.4157,2.4445,2.4507,2.4507,0.0,0.0,0.0,0.0,0.0,0.0,0.0,0.0,0.0,0.0,0.0,0.0,0.0,0.0,0.0,3.1402,3.1071,3.0615,3.0015,2.9994,2.9994,2.9994,2.9994,2.9994,2.9994,2.9663,2.9518,2.9497,2.8897,2.8773,2.9001,2.9061,0.0,0.0,3.1462,3.2212,3.3178,3.304,3.273,3.2464,3.2886,3.2747,3.2352,0.0,0.0,0.0,0.0,0.0,0.0,0.0,2.6952,2.7304,2.7329,2.7293,2.7304,2.7329,2.6826,2.6499,2.6499,0.0,0.0,0.0,0.0,0.0,0.0,0.0,0.0,0.0,0.0,2.6499,2.6499,2.6499,0.0,0.0,0.0,0.0,0.0,0.0,0.0,0.0,0.0,0.0,0.0,0.0,0.0,0.0,0.0,0.0,0.0,0.0,0.0,0.0,0.0,0.0,0.0,0.0,0.0,0.0,0.0,2.5813,2.8235,2.9622,3.0677,3.1278,3.0822,2.9311,2.7421,0.0,0.0,2.4239,2.337,2.3908,2.4487,2.4507,2.4507,2.4507,2.4507,0.0,0.0,0.0,0.0,0.0,0.0,0.0,0.0,0.0,0.0,0.0,0.0,0.0,0.0,3.1422,3.1381,3.0946,3.0036,2.9994,2.9994,2.9994,2.9994,2.9994,2.9994,2.9994,2.9994,2.9953,2.9042,2.9125,2.9984,0.0,0.0,0.0,3.2728,3.3201,3.3155,3.2601,3.3025,3.3909,3.3334,3.3399,3.3897,0.0,0.0,0.0,0.0,0.0,0.0,0.0,2.665,2.6876,2.7243,2.6977,2.6901,2.7278,2.6826,2.6499,2.6499,0.0,0.0,0.0,0.0,0.0,0.0,0.0,0.0,0.0,0.0,2.6499,2.6499,2.6499,2.6499,2.6499,0.0,0.0,0.0,0.0,0.0,0.0,0.0,0.0,0.0,0.0,0.0,0.0,0.0,0.0,0.0,0.0,0.0,0.0,0.0,0.0,0.0,0.0,0.0,0.0,0.0,0.0,0.0,2.6889,2.7862,2.8512,2.8035,2.72,2.6144,2.4654,0.0,2.3908,2.3308,2.366,2.4178,2.4445,2.4507,2.4507,2.4507,2.4507,0.0,0.0,0.0,0.0,0.0,0.0,0.0,0.0,0.0,0.0,0.0,0.0,0.0,3.1422,3.1381,3.0946,3.0036,2.9994,2.9994,2.9994,2.9994,2.9994,2.9994,2.9994,2.9994,2.9973,2.9684,2.9725,0.0,0.0,0.0,0.0,3.3051,3.4042,3.533,3.4745,3.4492,3.44,3.383,3.3532,3.3345,0.0,0.0,0.0,0.0,0.0,0.0,0.0,2.6499,2.6625,2.6952,2.67,2.6625,2.6977,2.67,2.6499,2.6499,0.0,0.0,0.0,0.0,0.0,0.0,0.0,0.0,0.0,2.6499,2.6499,2.6499,2.67,2.6801,2.6801,2.6801,2.6801,0.0,0.0,0.0,0.0,0.0,0.0,0.0,0.0,0.0,2.5335,0.0,0.0,0.0,0.0,0.0,0.0,0.0,0.0,0.0,0.0,0.0,0.0,0.0,0.0,0.0,0.0,2.5916,2.6434,2.6144,2.5709,0.0,0.0,0.0,2.3577,2.3474,2.3722,2.4012,2.4425,2.4507,2.4507,2.4507,2.4507,0.0,0.0,0.0,0.0,0.0,0.0,0.0,0.0,0.0,0.0,0.0,0.0,0.0,3.1153,3.1112,3.0781,3.0015,2.9994,2.9994,2.9994,2.9994,2.9994,2.9994,2.9994,2.9994,2.9973,2.9622,2.9663,0.0,0.0,0.0,0.0,3.3499,3.4581,3.5736,3.5344,3.4981,3.4625,3.3872,3.337,3.3111,0.0,0.0,0.0,0.0,0.0,0.0,0.0,0.0,0.0,2.6499,2.6499,2.6499,2.6499,2.6499,2.6499,0.0,0.0,0.0,0.0,0.0,0.0,0.0,0.0,0.0,0.0,2.6499,2.6499,2.6499,2.7002,2.7218,2.7218,2.7218,2.7218,2.7228,2.6725,2.6499,2.6499,2.6449,2.6147,2.5711,2.6273,2.606,0.0,0.0,0.0,0.0,0.0,0.0,0.0,0.0,0.0,0.0,0.0,0.0,0.0,0.0,0.0,0.0,0.0,0.0,0.0,0.0,0.0,0.0,0.0,0.0,0.0,2.3826,2.3846,2.3971,2.4404,2.4507,2.4507,2.4507,0.0,0.0,0.0,0.0,0.0,0.0,0.0,0.0,0.0,0.0,0.0,0.0,0.0,0.0,3.0719,3.0677,3.047,3.0015,2.9994,2.9994,2.9994,2.9994,2.9994,2.9994,2.9994,2.9994,2.9973,2.9104,2.9187,0.0,0.0,0.0,0.0,3.3798,3.4679,3.4727,3.4715,3.47,3.4525,3.347,3.3111,3.3111,0.0,0.0,0.0,0.0,0.0,0.0,0.0,0.0,0.0,0.0,2.6499,2.6499,2.6499,2.6499,2.6499,0.0,0.0,0.0,0.0,0.0,0.0,0.0,0.0,0.0,0.0,2.6499,2.6499,2.6499,2.6625,2.67,2.67,2.67,2.67,2.6675,2.6549,2.6499,2.6474,2.6021,2.6021,2.6298,2.6449,2.6396,0.0,0.0,0.0,0.0,2.4945,2.4045,0.0,0.0,0.0,0.0,0.0,0.0,0.0,0.0,2.188,0.0,2.2356,0.0,2.306,2.2708,0.0,0.0,0.0,0.0,0.0,0.0,0.0,0.0,0.0,0.0,0.0,0.0,0.0,0.0,0.0,0.0,0.0,0.0,0.0,0.0,0.0,0.0,0.0,0.0,0.0,3.1174,3.0719,3.0677,3.047,3.0015,2.9994,2.9994,2.9994,2.9994,2.9994,2.9994,2.9994,2.9994,2.9994,2.9766,2.9787,0.0,0.0,0.0,3.1644,3.2617,3.3478,3.4197,3.4566,3.4474,3.3997,3.3319,3.3111,3.3111,0.0,0.0,0.0,0.0,0.0,0.0,0.0,0.0,0.0,0.0,0.0,0.0,0.0,0.0,0.0,0.0,0.0,0.0,0.0,0.0,0.0,0.0,0.0,0.0,2.6499,2.6499,2.6499,2.6499,2.6751,2.7002,2.7253,2.6977,2.7002,2.7228,2.6725,2.6499,2.6474,2.6147,2.6197,2.6499,2.6499,0.0,0.0,0.0,0.0,0.0,2.53,2.4299,0.0,2.3001,2.2478,2.1797,0.0,0.0,0.0,0.0,2.1797,2.1797,2.1797,2.2149,2.2439,2.219,2.2315,2.2563,0.0,0.0,0.0,0.0,0.0,0.0,0.0,0.0,0.0,0.0,0.0,0.0,0.0,0.0,0.0,0.0,0.0,0.0,0.0,0.0,0.0,0.0,0.0,3.1391,3.1137,3.1115,3.1218,3.1454,3.0991,3.0733,3.0733,3.0256,3.0495,3.1454,3.0443,3.0495,3.1432,3.0461,3.03,0.0,0.0,0.0,3.1265,3.1867,3.2722,3.3666,3.4119,3.4173,3.3847,3.3294,3.3111,3.3111,0.0,0.0,0.0,0.0,0.0,0.0,0.0,0.0,0.0,0.0,0.0,0.0,0.0,0.0,0.0,0.0,0.0,0.0,0.0,0.0,0.0,0.0,0.0,2.6499,2.6499,2.6499,2.6499,2.6499,2.7052,2.7519,2.7971,2.7595,2.762,2.7921,2.6952,2.6499,2.6499,2.6499,2.6499,2.6499,2.6499,0.0,0.0,0.0,0.0,0.0,0.0,0.0,0.0,2.3372,2.274,2.1987,2.2138,0.0,0.0,0.0,0.0,0.0,2.1901,2.2252,2.2563,2.2418,2.2501,2.2708,0.0,0.0,0.0,0.0,0.0,0.0,0.0,0.0,0.0,0.0,0.0,0.0,0.0,0.0,0.0,0.0,0.0,0.0,0.0,0.0,0.0,0.0,0.0,3.1688,3.1841,3.1819,3.2246,3.3151,3.2348,3.1898,3.1961,3.0949,3.1403,3.3201,3.1265,3.1345,3.3013,3.1149,3.08,3.1532,0.0,0.0,3.096,3.1586,3.2254,3.3066,3.3648,3.3847,3.3721,3.3244,3.3111,3.3111,0.0,0.0,0.0,0.0,0.0,0.0,0.0,0.0,0.0,0.0,0.0,0.0,0.0,0.0,0.0,0.0,0.0,0.0,0.0,0.0,0.0,0.0,2.6499,2.6499,2.6499,2.6499,2.6499,2.6499,2.7052,2.7318,2.7419,2.7795,2.777,2.7394,2.6776,2.6499,2.6499,2.6499,2.6499,2.6499,2.6499,0.0,0.0,0.0,0.0,0.0,0.0,0.0,0.0,2.4945,2.4009,2.2905,2.3548,0.0,0.0,0.0,0.0,0.0,2.2273,2.2729,2.2894,2.2108,2.2501,2.3101,0.0,0.0,0.0,0.0,0.0,0.0,0.0,0.0,0.0,0.0,0.0,0.0,0.0,0.0,0.0,0.0,0.0,0.0,0.0,0.0,0.0,0.0,0.0,3.1993,3.2901,3.2951,3.3051,3.3201,3.3051,3.3192,3.3624,3.3043,3.2851,3.3201,3.2419,3.2215,3.2486,3.1649,3.1371,3.1485,0.0,3.092,3.1445,3.2064,3.2333,3.2539,3.3524,3.3621,3.3194,3.3119,3.3111,3.3154,0.0,0.0,0.0,0.0,0.0,0.0,0.0,0.0,0.0,0.0,0.0,0.0,0.0,0.0,0.0,0.0,0.0,0.0,0.0,0.0,0.0,2.6499,2.6499,2.6499,2.6499,2.6776,2.6927,2.6927,2.7444,2.7871,2.8172,2.8122,2.7645,2.6876,2.66,2.6499,2.6499,2.6499,2.6499,2.6499,0.0,0.0,0.0,0.0,0.0,0.0,0.0,0.0,0.0,0.0,2.4551,2.3658,2.3963,0.0,0.0,0.0,0.0,0.0,2.2182,2.2459,2.2708,2.2294,2.2873,2.3494,0.0,0.0,0.0,0.0,0.0,0.0,0.0,0.0,0.0,0.0,0.0,0.0,0.0,0.0,0.0,0.0,0.0,0.0,0.0,0.0,0.0,0.0,0.0,0.0,3.4042,3.4042,3.4169,3.4414,3.3909,3.3863,3.4388,3.4143,3.4173,3.439,3.2694,3.2648,3.4029,3.2582,3.2066,3.2324,0.0,3.1503,3.1925,3.1953,3.2253,3.2764,3.3271,3.3294,3.3111,3.3111,3.3111,3.3154,0.0,0.0,0.0,0.0,0.0,0.0,0.0,0.0,0.0,0.0,0.0,0.0,0.0,0.0,0.0,0.0,0.0,0.0,0.0,0.0,2.6499,2.6499,2.6499,2.6549,2.6675,2.7102,2.7344,2.7469,2.8021,2.8524,2.8888,2.8373,2.7595,2.6675,2.6549,2.6499,2.6499,2.6533,2.6533,2.6499,0.0,0.0,0.0,0.0,0.0,0.0,0.0,0.0,0.0,0.0,0.0,0.0,0.0,0.0,0.0,2.3423,2.3239,2.3113,2.2416,2.2636,2.3066,2.3066,0.0,0.0,0.0,0.0,0.0,0.0,0.0,0.0,0.0,0.0,0.0,0.0,0.0,0.0,0.0,0.0,0.0,0.0,0.0,0.0,0.0,0.0,0.0,0.0,0.0,0.0,3.5162,3.5065,3.5155,3.5508,3.4637,3.4271,3.448,3.4525,3.4756,3.5307,3.3121,3.3119,3.5082,3.3273,3.2738,3.3053,3.2297,3.2176,3.245,3.2127,3.2394,3.3111,3.3111,3.3111,3.3154,3.3154,3.3273,3.346,0.0,0.0,0.0,0.0,0.0,0.0,0.0,0.0,0.0,0.0,0.0,0.0,0.0,0.0,0.0,0.0,0.0,0.0,0.0,0.0,2.6499,2.6499,2.6499,2.6725,2.7253,2.7268,2.7519,2.8047,2.8562,2.8838,2.8888,2.8373,2.7795,2.7228,2.6725,2.6499,2.6499,2.6611,2.6611,2.6499,2.6645,0.0,0.0,0.0,0.0,0.0,0.0,0.0,0.0,0.0,0.0,0.0,0.0,0.0,2.4072,2.4036,2.4,2.3968,2.3655,2.4113,2.4627,2.4627,2.3937,0.0,2.4218,2.4404,0.0,2.678,0.0,0.0,0.0,0.0,0.0,0.0,0.0,0.0,0.0,0.0,0.0,0.0,0.0,0.0,0.0,0.0,0.0,0.0,0.0,0.0,3.6216,3.574,3.5487,3.5508,3.4961,3.4435,3.3972,3.3947,3.4248,3.4731,3.409,3.384,3.3997,3.3351,3.3057,3.3107,3.3007,3.3007,3.3032,3.3007,3.3025,3.3111,3.3111,3.3197,3.3386,3.3386,3.387,3.4469,0.0,0.0,0.0,0.0,0.0,0.0,0.0,0.0,0.0,0.0,0.0,0.0,0.0,0.0,0.0,0.0,0.0,0.0,0.0,0.0,2.6499,2.6499,2.6499,2.6751,2.7268,2.762,2.8072,2.8624,2.929,2.9391,2.8888,2.8458,2.8001,2.7445,2.6864,2.6705,2.6807,2.6875,2.6875,2.6807,2.6875,2.6875,0.0,0.0,0.0,0.0,0.0,0.0,0.0,0.0,2.6302,2.6094,0.0,2.6094,2.5511,2.4992,2.485,2.4718,2.4104,2.4414,2.4958,2.5241,2.5047,0.0,0.0,2.6061,2.6715,2.8025,0.0,0.0,0.0,0.0,0.0,0.0,0.0,0.0,0.0,0.0,0.0,0.0,0.0,0.0,0.0,0.0,0.0,0.0,0.0,0.0,3.5834,3.5608,3.5182,3.455,3.4324,3.3947,3.3395,3.3395,3.3495,3.3696,3.3495,3.3571,3.3872,3.3319,3.3111,3.3111,3.3111,3.3111,3.3111,3.3111,3.3111,3.3111,3.3111,3.324,3.3386,3.3386,3.3666,3.4076,0.0,0.0,0.0,0.0,0.0,0.0,0.0,0.0,0.0,0.0,0.0,0.0,0.0,0.0,0.0,0.0,0.0,0.0,2.6499,2.6533,2.6533,2.6499,2.6499,2.6785,2.7374,2.7929,2.8483,2.9001,2.9732,2.9631,2.8749,2.867,2.8297,2.7682,2.7274,2.7165,2.7267,2.7156,2.7045,2.7011,2.7079,2.7079,0.0,0.0,0.0,0.0,0.0,0.0,0.0,0.0,2.6533,0.0,0.0,0.0,0.0,0.0,2.55,2.5476,2.4707,2.4966,2.5585,2.6032,0.0,0.0,2.7538,2.7847,2.836,0.0,0.0,0.0,0.0,0.0,0.0,0.0,0.0,0.0,0.0,0.0,0.0,0.0,0.0,0.0,0.0,0.0,0.0,0.0,0.0,0.0,0.0,3.5082,3.4675,3.3922,3.3721,3.3445,3.3111,3.3111,3.3111,3.3111,3.2893,3.3093,3.3621,3.3244,3.3111,3.3111,3.3111,3.3111,3.3111,3.3111,3.3111,3.3111,3.3111,3.3283,3.3471,3.3471,3.3811,3.4194,0.0,0.0,0.0,0.0,0.0,0.0,0.0,0.0,0.0,0.0,0.0,0.0,0.0,0.0,0.0,0.0,0.0,0.0,2.6499,2.6611,2.6645,2.6499,2.6499,2.682,2.7576,2.8145,2.8642,2.92,2.9783,2.9504,2.8402,2.8946,2.8726,2.7892,2.7892,2.7927,2.7875,2.748,2.718,2.7011,2.7214,2.7315,2.7315,0.0,0.0,0.0,0.0,0.0,0.0,0.0,0.0,0.0,0.0,0.0,0.0,2.5571,2.5886,2.6327,2.5535,2.5886,2.6625,0.0,0.0,0.0,3.0034,2.9677,2.9666,0.0,0.0,0.0,0.0,0.0,0.0,0.0,0.0,0.0,0.0,0.0,0.0,0.0,0.0,0.0,0.0,0.0,0.0,0.0,0.0,0.0,0.0,3.4198,3.3897,3.3897,3.337,3.3111,3.3111,3.3111,3.3111,3.3068,3.2491,3.2516,3.3111,3.3111,3.3111,3.3111,3.3111,3.3111,3.3111,3.3111,3.3111,3.3111,3.3111,3.3368,3.3725,3.3725,3.4383,3.5208,0.0,0.0,0.0,0.0,0.0,0.0,0.0,0.0,0.0,0.0,0.0,0.0,0.0,0.0,0.0,0.0,0.0,0.0,2.6645,2.6679,2.6679,2.6645,2.6645,2.6815,2.7165,2.784,2.8585,2.9411,2.9739,2.9431,2.8569,2.8903,2.8934,2.8686,2.8695,2.8533,2.8222,2.8134,2.7788,2.7382,2.7423,2.7423,2.7423,0.0,0.0,0.0,0.0,0.0,0.0,0.0,0.0,0.0,0.0,0.0,0.0,2.6198,2.6302,2.6465,2.6198,2.6602,0.0,0.0,0.0,0.0,0.0,0.0,0.0,0.0,0.0,0.0,0.0,0.0,0.0,0.0,0.0,0.0,0.0,0.0,0.0,0.0,0.0,0.0,0.0,0.0,0.0,0.0,0.0,0.0,0.0,3.3997,3.3721,3.3345,3.3169,3.3111,3.3111,3.3111,3.2867,3.2466,3.229,3.2516,3.3111,3.2641,3.2692,3.3111,3.3111,3.3111,3.3111,3.3111,3.3111,3.3111,3.3111,3.3368,3.3725,3.3725,3.4124,3.4633,0.0,0.0,0.0,0.0,0.0,0.0,0.0,0.0,0.0,0.0,0.0,0.0,0.0,0.0,0.0,0.0,0.0,0.0,0.0,2.6884,2.6884,2.6841,2.6841,2.7011,2.7447,2.8187,2.8714,2.9073,2.9342,2.9125,2.8415,2.9057,2.9269,2.9123,2.933,2.9168,2.876,2.8525,2.8177,2.7863,2.7863,2.7863,2.7863,0.0,0.0,0.0,0.0,0.0,0.0,0.0,0.0,0.0,0.0,0.0,0.0,2.6705,2.6705,2.6705,2.6705,0.0,0.0,0.0,0.0,0.0,0.0,0.0,0.0,0.0,0.0,0.0,0.0,0.0,0.0,0.0,0.0,0.0,0.0,0.0,0.0,0.0,0.0,0.0,0.0,0.0,0.0,0.0,0.0,0.0,0.0,3.3571,3.342,3.3136,3.3111,3.3111,3.3111,3.3111,3.2792,3.2215,3.1989,3.2064,3.239,3.2265,3.2416,3.2742,3.3011,3.2943,3.2742,3.2742,3.2742,3.2742,3.2742,3.3098,3.3725,3.3725,3.4021,3.4397,0.0,0.0,0.0,0.0,0.0,0.0,0.0,0.0,0.0,0.0,0.0,0.0,0.0,0.0,0.0,0.0,0.0,0.0,0.0,0.0,2.7214,2.7045,2.7096,2.7447,2.8187,2.889,2.897,2.842,2.8759,2.8627,2.8058,2.9233,2.9564,2.9301,2.9839,2.9823,2.9284,2.8682,2.8394,2.8307,2.8307,2.8307,2.8307,2.8307,0.0,0.0,0.0,0.0,0.0,0.0,0.0,0.0,0.0,2.7011,2.6977,2.6977,2.6977,2.6977,2.6977,0.0,0.0,0.0,0.0,0.0,0.0,0.0,0.0,0.0,0.0,0.0,0.0,0.0,0.0,0.0,0.0,0.0,0.0,0.0,0.0,0.0,0.0,0.0,0.0,0.0,0.0,0.0,0.0,0.0,0.0,3.2993,3.2993,3.2993,3.2943,3.2943,3.2993,3.2943,3.2641,3.2064,3.1562,3.1286,3.1301,3.1813,3.2089,3.2164,3.2792,3.2742,3.2215,3.2265,3.229,3.229,3.229,3.2845,3.3725,3.3725,3.4021,3.4397,0.0,0.0,0.0,0.0,0.0,0.0,0.0,0.0,0.0,0.0,0.0,0.0,0.0,0.0,0.0,0.0,0.0,0.0,0.0,0.0,2.7281,2.7248,2.7798,2.8387,2.9056,2.8752,2.8551,2.842,2.8482,2.8213,2.7631,2.8838,2.9369,2.9301,2.9839,2.9823,2.9284,2.8682,2.8124,2.7673,2.7673,2.7673,2.7673,2.7673,2.7594,0.0,0.0,0.0,0.0,0.0,0.0,0.0,2.7248,2.7113,2.6977,2.6977,2.6977,2.6977,0.0,2.7387,0.0,0.0,0.0,0.0,0.0,0.0,0.0,0.0,0.0,0.0,0.0,0.0,0.0,0.0,0.0,0.0,0.0,0.0,0.0,0.0,0.0,0.0,0.0,0.0,0.0,0.0,0.0,0.0,3.2441,3.239,3.239,3.239,3.1989,3.1964,3.239,3.1964,3.1486,0.0,3.0834,3.0637,3.0404,3.0788,3.1185,3.1612,3.2641,3.2742,3.224,3.2692,3.2893,3.2893,3.2893,3.3242,3.3725,3.3725,3.4021,3.4397,0.0,0.0,0.0,0.0,0.0,0.0,0.0,0.0,0.0,0.0,0.0,0.0,0.0,0.0,0.0,0.0,0.0,0.0,0.0,0.0,0.0,2.7814,2.8456,2.8865,2.8891,2.8865,2.8543,2.7968,2.7968,2.7968,2.7941,2.8856,2.9431,2.9693,2.997,2.9823,2.9284,2.8682,2.8386,2.8333,2.8046,2.8098,2.8333,2.8046,2.7758,2.749,0.0,0.0,0.0,0.0,0.0,0.0,0.0,0.0,2.7248,2.7248,2.7248,2.7248,0.0,0.0,0.0,0.0,0.0,0.0,0.0,0.0,0.0,0.0,0.0,0.0,0.0,0.0,0.0,0.0,0.0,0.0,0.0,0.0,0.0,0.0,0.0,0.0,0.0,0.0,0.0,0.0,0.0,3.2416,3.1863,3.2064,3.2089,3.1838,3.1537,3.1537,3.1813,3.1537,3.1135,3.0608,3.0608,3.0424,3.0088,3.0553,3.1084,3.1721,3.2221,3.2239,3.1987,3.229,3.2609,3.2836,3.2836,3.3284,3.3894,3.3894,3.4105,3.4397,0.0,0.0,0.0,0.0,0.0,0.0,0.0,0.0,0.0,0.0,0.0,0.0,0.0,0.0,0.0,0.0,0.0,0.0,0.0,0.0,0.0,2.8551,2.9118,2.9248,2.8865,2.9222,2.8908,2.7803,2.7803,0.0,0.0,0.0,2.9588,3.01,3.01,2.9823,2.9284,2.8682,2.8656,2.8935,2.8438,2.8543,2.8908,2.8412,2.7941,2.749,2.749,0.0,0.0,0.0,0.0,0.0,0.0,0.0,2.749,2.749,2.749,2.749,0.0,0.0,0.0,0.0,0.0,0.0,0.0,0.0,0.0,0.0,0.0,0.0,0.0,0.0,0.0,0.0,0.0,0.0,0.0,0.0,0.0,0.0,0.0,0.0,0.0,0.0,0.0,0.0,0.0,3.1879,3.1286,3.1729,3.1779,3.126,3.116,3.116,3.126,3.116,3.0909,3.0482,3.0536,3.0427,3.0164,3.0648,3.1185,3.1712,3.1741,3.1686,3.165,3.1686,3.2107,3.2657,3.2657,3.3239,3.4131,3.4131,3.423,3.4397,0.0,0.0,0.0,0.0,0.0,0.0,0.0,0.0,0.0,0.0,0.0,0.0,0.0,0.0,0.0,0.0,0.0,0.0,0.0,0.0,0.0,2.9144,2.9719,3.0215,3.0634,3.0241,2.9693,2.9039,0.0,0.0,0.0,0.0,0.0,3.01,0.0,2.9823,2.9284,2.8682,2.815,2.7725,2.7646,2.7646,2.7725,2.7646,2.7568,0.0,0.0,0.0,0.0,0.0,0.0,0.0,0.0,0.0,0.0,2.749,2.749,2.749,0.0,0.0,0.0,0.0,0.0,0.0,0.0,0.0,0.0,0.0,0.0,0.0,0.0,0.0,0.0,0.0,0.0,0.0,0.0,0.0,0.0,0.0,0.0,0.0,0.0,0.0,0.0,0.0,3.165,3.1448,3.0758,3.0943,3.0983,3.0708,3.0256,3.0231,3.0708,3.0256,2.998,2.9905,3.0266,3.0407,3.0368,3.0623,3.0701,3.0689,3.1584,3.1698,3.1328,3.1775,3.2311,3.2848,3.2848,3.3389,3.4131,3.4131,3.423,3.4397,0.0,0.0,0.0,0.0,0.0,0.0,0.0,0.0,0.0,0.0,0.0,0.0,0.0,0.0,0.0,0.0,0.0,0.0,0.0,0.0,0.0,0.0,2.951,2.9928,3.0503,2.9954,2.9353,2.8813,0.0,0.0,0.0,2.931,2.9771,0.0,0.0,0.0,0.0,2.8682,2.8229,2.7968,2.762,2.7673,0.0,0.0,0.0,0.0,0.0,0.0,0.0,0.0,0.0,0.0,0.0,0.0,0.0,0.0,0.0,0.0,0.0,0.0,0.0,0.0,0.0,0.0,0.0,0.0,0.0,0.0,0.0,0.0,0.0,0.0,0.0,0.0,0.0,0.0,0.0,0.0,0.0,0.0,0.0,0.0,0.0,0.0,0.0,0.0,3.1196,3.1145,3.0507,3.0865,3.0865,3.0482,3.0137,3.0137,3.0482,3.0021,2.9856,2.9972,3.0254,3.0444,3.0558,3.0773,3.0823,3.0736,3.1138,3.1319,3.1396,3.1614,3.2232,3.307,3.307,3.353,3.4272,3.4272,3.4314,3.4397,0.0,0.0,0.0,0.0,0.0,0.0,0.0,0.0,0.0,0.0,0.0,0.0,0.0,0.0,0.0,0.0,0.0,0.0,0.0,0.0,0.0,0.0,0.0,2.9693,3.01,2.9719,2.9118,0.0,0.0,0.0,2.9336,2.9624,3.02,0.0,3.0529,3.0032,0.0,0.0,0.0,0.0,0.0,0.0,0.0,0.0,0.0,0.0,0.0,0.0,0.0,0.0,0.0,0.0,0.0,0.0,0.0,0.0,0.0,0.0,0.0,0.0,0.0,0.0,0.0,0.0,0.0,0.0,0.0,0.0,0.0,0.0,0.0,0.0,0.0,0.0,0.0,0.0,0.0,0.0,0.0,0.0,0.0,0.0,0.0,0.0,0.0,0.0,3.083,3.0881,3.0432,3.0855,3.0881,3.0406,3.0254,3.0254,3.0406,3.0126,3.0049,3.0177,3.0368,3.052,3.0698,3.0924,3.0973,3.0973,3.0849,3.1007,3.1384,3.1513,3.2083,3.2861,3.299,3.3528,3.4188,3.4188,3.4267,3.4397,0.0,0.0,0.0,0.0,0.0,0.0,0.0,0.0,0.0,0.0,0.0,0.0,0.0,0.0,2.9839,2.9327,0.0,0.0,0.0,0.0,0.0,0.0,0.0,0.0,3.01,3.0074,0.0,0.0,0.0,0.0,2.9301,3.0398,3.0921,3.0973,3.0947,3.0634,3.0022,0.0,0.0,0.0,0.0,0.0,0.0,0.0,0.0,0.0,0.0,0.0,0.0,0.0,0.0,0.0,0.0,0.0,0.0,0.0,0.0,0.0,0.0,0.0,0.0,0.0,0.0,0.0,0.0,0.0,0.0,0.0,0.0,0.0,0.0,0.0,0.0,0.0,0.0,0.0,0.0,0.0,0.0,0.0,0.0,0.0,0.0,0.0,0.0,0.0,3.0584,3.0648,3.0406,3.061,3.0648,3.0406,3.0406,3.0406,3.0406,3.0368,3.0368,3.0406,3.0584,3.0698,3.0698,3.0924,3.0973,3.0973,3.0973,3.0999,3.1078,3.1562,3.1823,3.1954,3.2476,3.3117,3.3639,3.3639,3.3953,3.4397,0.0,0.0,0.0,0.0,0.0,0.0,0.0,0.0,0.0,0.0,0.0,0.0,0.0,3.0686,3.0607,3.0398,2.951,0.0,0.0,0.0,0.0,0.0,0.0,0.0,0.0,0.0,0.0,0.0,0.0,2.8752,2.9336,2.9729,3.0294,3.0973,3.0973,3.066,3.0074,2.9865,0.0,0.0,0.0,0.0,0.0,0.0,0.0,0.0,0.0,0.0,0.0,0.0,0.0,0.0,0.0,0.0,0.0,0.0,0.0,0.0,0.0,0.0,0.0,0.0,0.0,0.0,0.0,0.0,0.0,0.0,0.0,0.0,0.0,0.0,0.0,0.0,0.0,0.0,0.0,0.0,0.0,0.0,0.0,0.0,0.0,0.0,0.0,0.0,0.0,3.0887,3.0785,3.0823,3.0887,3.0785,3.0634,3.052,3.0406,3.052,3.0584,3.0584,3.066,3.0773,3.0887,3.0999,3.0973,3.0973,3.0973,3.0973,3.0999,3.1209,3.1731,3.2411,3.262,3.3064,3.3639,3.3979,3.4005,3.3927,0.0,0.0,0.0,0.0,0.0,0.0,0.0,0.0,0.0,0.0,0.0,0.0,0.0,0.0,3.0921,3.0712,3.0006,2.9301,2.876,2.8333,0.0,0.0,0.0,0.0,0.0,0.0,0.0,0.0,0.0,0.0,0.0,2.9483,3.0085,3.0973,3.0973,3.079,0.0,0.0,0.0,2.9562,0.0,0.0,2.9284,0.0,0.0,0.0,0.0,0.0,0.0,0.0,0.0,0.0,0.0,0.0,0.0,0.0,0.0,0.0,0.0,0.0,0.0,0.0,0.0,0.0,0.0,0.0,0.0,0.0,0.0,0.0,0.0,0.0,0.0,0.0,0.0,0.0,0.0,0.0,0.0,0.0,0.0,0.0,0.0,0.0,0.0,0.0,0.0,0.0,3.0973,3.0973,3.0973,3.0973,3.0887,3.0736,3.0596,3.071,3.0811,3.0811,3.0811,3.0887,3.0973,3.0973,3.0973,3.0973,3.0973,3.0973,3.0999,3.1182,3.1705,3.2437,3.262,3.2934,3.3352,3.3927,3.3901,3.3666,0.0,0.0,0.0,0.0,0.0,0.0,0.0,0.0,0.0,0.0,0.0,0.0,0.0,0.0,0.0,3.0179,3.01,2.9902,2.9388,2.9336,0.0,0.0,0.0,0.0,0.0,0.0,0.0,0.0,0.0,0.0,0.0,0.0,3.0424,3.0973,3.0973,3.0973,3.0947,0.0,3.0127,3.01,0.0,2.9388,2.9388,0.0,0.0,0.0,2.9336,2.9336,0.0,0.0,0.0,0.0,0.0,0.0,0.0,0.0,0.0,0.0,0.0,0.0,0.0,0.0,0.0,0.0,0.0,0.0,0.0,0.0,0.0,0.0,0.0,0.0,0.0,0.0,0.0,0.0,0.0,0.0,0.0,0.0,0.0,0.0,0.0,0.0,0.0,0.0,3.0973,3.0973,3.0973,3.0973,3.0973,3.0973,3.0973,3.0973,3.0973,3.0973,3.0973,3.0973,3.0973,3.0973,3.0973,3.0973,3.0973,3.0973,3.0973,3.0973,3.1026,3.1536,3.1797,3.185,3.2437,3.2672,3.2751,3.3378,3.3587,3.3666,0.0,0.0,0.0,0.0,0.0,0.0,0.0,0.0,0.0,0.0,0.0,0.0,0.0,0.0,3.0921,3.0764,3.0335,3.0022,2.9865,2.951,2.9536,3.0074,3.01,3.0283,0.0,0.0,0.0,0.0,0.0,0.0,0.0,0.0,0.0,0.0,3.0973,3.0973,3.0973,3.0817,0.0,0.0,3.0738,3.0764,0.0,0.0,0.0,0.0,0.0,2.9536,2.9823,0.0,2.9457,2.951,0.0,0.0,0.0,0.0,0.0,0.0,2.749,0.0,0.0,0.0,0.0,0.0,0.0,0.0,0.0,0.0,0.0,0.0,0.0,0.0,0.0,0.0,0.0,0.0,0.0,0.0,0.0,0.0,0.0,0.0,0.0,0.0,0.0,0.0,3.0973,3.0973,3.0973,3.0973,3.0973,3.0973,3.0973,3.0973,3.0973,3.0973,3.0973,3.0973,3.0973,3.0973,3.0973,3.0973,3.0973,3.0973,3.0973,3.0973,3.0999,3.1156,3.147,3.1823,3.198,3.2333,3.2751,3.3378,3.3587,3.3666,0.0,0.0,0.0,0.0,0.0,0.0,0.0,0.0,0.0,0.0,0.0,0.0,0.0,0.0,0.0,3.0973,3.0686,3.0503,3.0503,3.0163,3.0137,3.0477,3.0503,3.0634,3.0973,0.0,0.0,0.0,0.0,0.0,0.0,0.0,0.0,0.0,0.0,0.0,0.0,0.0,0.0,0.0,3.113,0.0,0.0,3.0738,3.0503,0.0,0.0,0.0,3.0451,3.0111,3.0059,0.0,0.0,0.0,0.0,0.0,0.0,0.0,0.0,0.0,0.0,0.0,0.0,0.0,2.8656,2.8865,2.8987,0.0,0.0,0.0,0.0,0.0,0.0,0.0,0.0,0.0,0.0,0.0,0.0,0.0,0.0,0.0,0.0,3.0973,3.0973,3.0973,3.0973,3.0973,3.0973,3.0973,3.0973,3.0973,3.0973,3.0973,3.0973,3.0973,3.0973,3.0973,3.0973,3.0973,3.0973,3.0973,3.0973,3.0973,3.0973,3.0973,3.0973,3.0973,3.1339,3.1797,3.1797,3.2163,3.2751,3.3378,3.3587,3.3666,0.0,0.0,0.0,0.0,0.0,0.0,0.0,0.0,0.0,0.0,0.0,0.0,0.0,0.0,0.0,0.0,3.0973,3.0973,3.0973,3.0973,3.0973,3.0973,3.0973,3.0973,3.0973,3.0477,0.0,0.0,0.0,0.0,0.0,0.0,0.0,0.0,0.0,0.0,0.0,0.0,0.0,3.0973,3.0973,3.1026,0.0,0.0,3.0973,0.0,3.0973,3.0973,3.0973,3.0973,3.0607,0.0,0.0,0.0,0.0,0.0,2.8464,0.0,0.0,0.0,0.0,0.0,0.0,0.0,2.91,2.8865,2.8499,2.8386,0.0,0.0,0.0,0.0,0.0,0.0,0.0,0.0,0.0,0.0,0.0,0.0,0.0,0.0,3.0973,3.0973,3.0973,3.0973,3.0973,3.0973,3.0973,3.0973,3.0973,3.0973,3.0973,3.0973,3.0973,3.0973,3.0973,3.0973,3.0973,3.0973,3.0973,3.0973,3.0973,3.0973,3.0973,3.0973,3.0973,3.0973,3.1287,3.1719,3.1719,3.2123,3.2751,3.33,3.3561,3.3744,0.0,0.0,0.0,0.0,0.0,0.0,0.0,0.0,0.0,0.0,0.0,0.0,0.0,0.0,0.0,0.0,3.0973,3.0973,3.0973,3.0973,3.0973,3.0973,3.0973,3.0973,3.0973,3.0869,3.0607,0.0,0.0,0.0,0.0,0.0,0.0,0.0,0.0,0.0,0.0,0.0,0.0,3.0973,3.0973,0.0,3.1588,3.1156,3.0973,3.0973,3.0973,3.0973,3.0973,0.0,3.0607,3.0048,0.0,0.0,0.0,0.0,0.0,0.0,0.0,0.0,0.0,0.0,0.0,0.0,2.8682,2.8865,2.8996,0.0,0.0,0.0,0.0,0.0,0.0,0.0,0.0,0.0,0.0,0.0,0.0,0.0,0.0,0.0,3.0973,3.0973,3.0973,3.0973,3.0973,3.0973,3.0973,3.0973,3.0973,3.0973,3.0973,3.0973,3.0973,3.0973,3.0973,3.0973,3.0973,3.0973,3.0973,3.0973,3.0973,3.0973,3.0973,3.0973,3.0973,3.0973,3.1052,3.1156,3.1156,3.1784,3.2698,3.2829,3.3456,3.4267,0.0,0.0,0.0,0.0,0.0,0.0,0.0,0.0,0.0,0.0,0.0,0.0,0.0,0.0,0.0,0.0,0.0,0.0,0.0,0.0,3.1287,3.0999,3.0973,3.113,3.1392,3.113,3.0999,3.0962,0.0,0.0,0.0,0.0,0.0,0.0,0.0,0.0,0.0,0.0,3.0973,3.0973,3.0973,0.0,3.1392,3.1104,3.0973,3.0973,3.0973,3.0973,3.0973,3.0973,3.079,0.0,0.0,3.0137,3.0043,0.0,2.9693,3.0059,0.0,0.0,0.0,3.0137,0.0,0.0,0.0,2.9039,2.8865,0.0,0.0,0.0,0.0,0.0,0.0,0.0,0.0,0.0,0.0,0.0,0.0,0.0,0.0,0.0,3.0973,3.0973,3.0973,3.0973,3.0973,3.0973,3.0973,3.0973,3.0973,3.0973,3.0973,3.0973,3.0973,3.0973,3.0973,3.0973,3.0973,3.0973,3.0973,3.0973,3.0973,3.0973,3.0973,3.0973,3.0973,3.0973,3.0973,3.0973,3.0973,3.1679,3.2698,3.2698,3.3404,3.4397,0.0,0.0,0.0,0.0,0.0,0.0,0.0,0.0,0.0,0.0,0.0,0.0,0.0,0.0,0.0,0.0,0.0,0.0,0.0,0.0,3.1432,3.0999,3.0973,3.1209,3.1641,3.1235,3.1209,3.1641,0.0,0.0,0.0,0.0,0.0,0.0,0.0,0.0,0.0,0.0,0.0,3.113,0.0,3.0973,3.0973,3.0973,3.0973,3.0973,3.0973,3.0973,3.0973,3.0973,0.0,3.0895,3.0451,3.0607,0.0,0.0,0.0,0.0,0.0,0.0,0.0,0.0,0.0,3.0231,0.0,0.0,0.0,0.0,0.0,0.0,0.0,0.0,0.0,0.0,0.0,0.0,0.0,0.0,0.0,0.0,0.0,0.0,0.0,3.0973,3.0973,3.0973,3.0973,3.0973,3.0973,3.0973,3.0973,3.0973,3.0973,3.0973,3.0973,3.0973,3.0973,3.0973,3.0973,3.0973,3.0973,3.0973,3.0973,3.0973,3.0973,3.0973,3.0973,3.0973,3.0973,3.0973,3.0973,3.1627,3.2542,3.2646,3.3352,3.4267,3.4312,3.3185,0.0,0.0,0.0,0.0,0.0,0.0,0.0,0.0,0.0,0.0,0.0,0.0,0.0,0.0,0.0,0.0,3.1667,0.0,0.0,3.0973,3.0973,3.1026,3.1078,3.1026,3.1026,3.1078,0.0,0.0,0.0,0.0,0.0,0.0,3.0973,0.0,0.0,0.0,3.1287,0.0,3.1182,3.0973,0.0,3.0973,3.0973,3.0973,3.0973,3.0973,3.0973,0.0,3.0973,3.0973,0.0,3.0921,0.0,0.0,0.0,0.0,0.0,0.0,0.0,0.0,3.0947,0.0,0.0,0.0,2.9787,0.0,0.0,0.0,0.0,0.0,0.0,0.0,0.0,0.0,0.0,0.0,0.0,0.0,0.0,0.0,0.0,3.0973,3.0973,3.0973,3.0973,3.0973,3.0973,3.0973,3.0973,3.0973,3.0973,3.0973,3.0973,3.0973,3.0973,3.0973,3.0973,3.0973,3.0973,3.0973,3.0973,3.0973,3.0973,3.0973,3.0973,3.0973,3.0973,3.0973,3.0973,3.1365,3.1954,3.2515,3.3117,3.3744,0.0,0.0,0.0,0.0,0.0,0.0,0.0,0.0,0.0,0.0,0.0,0.0,0.0,0.0,0.0,0.0,0.0,3.2306,0.0,0.0,0.0,0.0,3.1967,0.0,3.1967,3.1653,3.1432,3.1432,3.1156,0.0,0.0,0.0,0.0,0.0,3.113,0.0,3.1797,0.0,0.0,0.0,0.0,0.0,0.0,3.0973,3.0973,3.0973,3.0973,3.0973,3.0973,0.0,3.0973,0.0,0.0,0.0,0.0,0.0,0.0,0.0,0.0,0.0,0.0,0.0,0.0,0.0,3.0686,0.0,3.0127,0.0,0.0,0.0,0.0,0.0,0.0,0.0,0.0,0.0,0.0,0.0,0.0,0.0,0.0,0.0,0.0,0.0,0.0,0.0,3.0644,3.0843,3.0503,3.0817,3.0973,3.0973,3.0973,3.0973,3.0973,3.0973,3.0973,3.0973,3.0973,3.0973,3.0973,3.0973,3.0973,3.0973,3.0973,3.0973,3.0973,3.0973,3.0973,3.0973,3.0973,3.1339,3.1876,3.2489,3.3064,3.3666,0.0,0.0,0.0,0.0,0.0,0.0,0.0,0.0,0.0,0.0,0.0,0.0,3.5809,3.5521,0.0,0.0,3.3901,3.3378,0.0,0.0,3.2542,0.0,0.0,0.0,0.0,3.2006,3.1797,3.1797,3.1261,0.0,0.0,0.0,0.0,0.0,0.0,3.1548,3.2032,0.0,0.0,3.1235,3.1496,3.1365,3.0973,3.0973,3.0973,3.0973,3.0973,3.0973,3.0973,3.0973,3.0973,0.0,3.0973,0.0,0.0,0.0,0.0,0.0,3.0973,0.0,0.0,0.0,0.0,0.0,0.0,0.0,0.0,0.0,0.0,0.0,0.0,0.0,0.0,0.0,0.0,0.0,0.0,0.0,0.0,0.0,0.0,0.0,0.0,0.0,0.0,2.9562,3.0294,3.0581,3.0127,3.0529,3.0817,3.0973,3.0973,3.0973,3.0973,3.0973,3.0973,3.0973,3.0973,3.0973,3.0973,3.0973,3.0973,3.0973,3.0973,3.0973,3.0973,3.0973,3.0973,3.0999,3.1156,3.147,3.1876,3.2489,3.3064,3.3666,3.5326,3.424,0.0,0.0,0.0,0.0,0.0,0.0,0.0,0.0,0.0,0.0,0.0,0.0,0.0,0.0,0.0,3.4136,3.3561,0.0,3.2202,0.0,0.0,3.2437,0.0,0.0,0.0,3.1797,0.0,0.0,0.0,0.0,0.0,0.0,0.0,3.2123,3.262,3.2032,3.1797,3.1719,3.1235,3.0999,3.0973,0.0,3.0973,3.0973,3.0973,0.0,0.0,3.0973,3.0973,0.0,0.0,0.0,0.0,0.0,0.0,0.0,0.0,0.0,0.0,3.0973,0.0,0.0,0.0,0.0,3.0973,0.0,0.0,0.0,0.0,0.0,0.0,0.0,0.0,0.0,0.0,0.0,0.0,0.0,0.0,0.0,0.0,0.0,0.0,3.01,3.01,3.0127,3.01,3.0127,3.0388,3.0973,3.0973,3.0973,3.0973,3.0973,3.0973,3.0973,3.0973,3.0973,3.0973,3.0973,3.0973,3.0973,3.0973,3.0973,3.0973,3.0973,3.0973,3.1026,3.1562,3.1771,3.1876,3.2489,3.3064,3.3666,0.0,0.0,0.0,0.0,0.0,0.0,0.0,3.3926,0.0,0.0,0.0,0.0,0.0,3.8161,3.7848,0.0,0.0,3.6305,3.5312,3.5051,0.0,0.0,0.0,3.4162,0.0,0.0,0.0,0.0,0.0,0.0,0.0,0.0,0.0,0.0,0.0,3.2881,0.0,0.0,0.0,0.0,0.0,3.1209,3.1496,0.0,0.0,3.0973,3.0973,3.0973,0.0,3.0973,3.0973,3.0973,3.0973,3.0973,3.0973,3.0973,3.0973,0.0,0.0,0.0,3.0973,3.0973,0.0,0.0,0.0,0.0,0.0,0.0,0.0,0.0,0.0,0.0,0.0,0.0,0.0,0.0,0.0,0.0,0.0,0.0,0.0,0.0,0.0,0.0,0.0,2.8456,2.9118,2.9562,2.9562,2.9892,3.0361,3.0973,3.0973,3.0973,3.0973,3.0973,3.0973,3.0973,3.0973,3.0973,3.0973,3.0973,3.0973,3.0973,3.0973,3.0973,3.0973,3.0973,3.0973,3.1052,3.1588,3.2032,3.2463,3.3064,3.3404,3.3666,3.6497,0.0,0.0,0.0,0.0,0.0,0.0,0.0,0.0,0.0,3.7978,0.0,4.0069,0.0,4.0043,0.0,3.8789,3.8214,3.6828,3.6541,0.0,3.4763,3.5208,0.0,0.0,0.0,0.0,0.0,0.0,3.33,0.0,0.0,0.0,0.0,0.0,0.0,3.2437,0.0,3.2385,0.0,0.0,3.1209,0.0,0.0,3.1104,3.1261,0.0,3.0973,3.0973,3.0973,3.0973,3.0973,3.0973,3.0973,3.0973,3.0973,3.0973,3.0973,3.0973,3.0973,0.0,3.0973,3.0973,0.0,3.0973,0.0,0.0,0.0,0.0,0.0,0.0,0.0,0.0,0.0,0.0,0.0,0.0,0.0,0.0,0.0,0.0,0.0,0.0,0.0,2.9091,2.7915,2.8726,2.931,0.0,0.0,3.0361,3.0973,3.0973,3.0973,3.0973,3.0973,3.0973,3.0973,3.0973,3.0973,3.0973,3.0973,3.0973,3.0973,3.0973,3.0973,3.0973,3.0973,3.0973,3.1052,3.1836,3.2359,3.2751,3.3378,3.3718,3.3927,0.0,0.0,0.0,0.0,3.6365,0.0,0.0,0.0,3.9069,0.0,3.9756,4.0697,4.1324,4.1899,4.1768,4.0644,4.0514,0.0,3.8187,3.7508,0.0,0.0,3.4868,3.4267,3.3639,0.0,0.0,0.0,0.0,0.0,0.0,0.0,0.0,0.0,3.3901,0.0,3.1876,3.2489,3.2071,3.0973,3.0973,3.0999,3.1026,3.0999,3.1339,3.1719,3.1182,3.0973,3.0973,3.0973,3.0973,3.0973,3.0973,3.0973,3.0973,3.0973,3.0973,3.0973,3.0973,3.0973,3.0973,3.0973,0.0,0.0,0.0,0.0,3.0973,0.0,0.0,0.0,0.0,0.0,0.0,0.0,0.0,0.0,0.0,0.0,0.0,0.0,0.0,0.0,0.0,0.0,2.9526,2.8446,2.8917,0.0,0.0,0.0,3.0372,3.0973,3.0973,3.0973,3.0973,3.0973,3.0973,3.0973,3.0973,3.0973,3.0973,3.0973,3.0973,3.0973,3.0973,3.0973,3.0973,3.0973,3.0973,3.1104,3.2254,3.2725,3.2855,3.343,3.3953,3.4397,3.8644,3.8876,3.8871,0.0,3.7097,3.6401,0.0,0.0,0.0,0.0,4.0383,4.1455,4.2474,4.2709,4.2683,4.2369,4.1951,0.0,0.0,0.0,0.0,3.6645,3.6854,3.6123,3.4241,3.4633,0.0,3.5234,0.0,0.0,3.5652,0.0,0.0,0.0,0.0,0.0,3.2515,3.3117,3.2437,3.0973,3.0973,3.1235,0.0,0.0,3.1339,3.1719,3.1182,3.0973,3.0973,3.0973,3.0973,3.0973,3.0973,3.0973,3.0973,3.0973,3.0973,3.0973,3.0973,3.0973,3.0973,3.0973,3.0973,3.0973,0.0,0.0,0.0,0.0,0.0,0.0,0.0,0.0,0.0,0.0,0.0,0.0,0.0,0.0,0.0,0.0,0.0,0.0,0.0,0.0,2.8516,2.7811,2.7855,0.0,0.0,0.0,0.0,3.0947,3.0973,3.0973,3.0973,3.0973,3.0973,3.0973,3.0973,3.0973,3.0973,3.0973,3.0973,3.0973,3.0973,3.0973,3.0973,3.0973,3.0973,3.1104,3.2254,3.3221,3.3979,3.4136,3.4267,3.4397,3.9439,0.0,0.0,3.9798,0.0,0.0,3.8596,0.0,0.0,4.0687,4.1716,0.0,4.2971,4.3258,4.318,4.2683,4.2343,0.0,4.135,0.0,0.0,3.8214,3.7743,3.6645,3.4816,3.4868,0.0,3.4999,0.0,0.0,3.573,0.0,0.0,0.0,0.0,3.4084,0.0,3.2777,3.2254,3.1339,3.1078,0.0,0.0,3.1104,3.1182,3.1418,3.1104,3.0973,3.0973,3.0973,3.0973,3.0973,3.0973,3.0973,3.0973,3.0973,3.0973,3.0973,3.0973,3.0973,3.0973,3.0973,3.0973,3.0973,3.0973,3.0973,3.0973,0.0,0.0,0.0,0.0,0.0,0.0,0.0,0.0,0.0,0.0,0.0,0.0,0.0,0.0,0.0,0.0,0.0,2.815,0.0,0.0,0.0,0.0,0.0,0.0,3.0973,3.1235,3.1235,3.0973,3.1235,3.1235,3.0973,3.0973,3.0973,3.0973,3.0973,3.113,3.1365,3.1365,3.1365,3.1365,3.1365,3.1365,3.147,3.2646,3.3613,3.4397,3.4397,3.4397,3.4397,0.0,0.0,0.0,0.0,0.0,0.0,0.0,4.1221,0.0,4.2261,0.0,4.3807,4.331,4.3624,4.352,4.2525,0.0,4.1951,4.1455,4.0853,4.0252,3.9651,3.8083,3.6645,3.5443,3.4816,0.0,0.0,0.0,0.0,0.0,0.0,0.0,0.0,0.0,0.0,0.0,3.2215,3.1928,3.1771,3.1287,3.1104,3.1078,3.1026,3.0973,3.0973,3.0973,3.0973,3.0973,3.0973,3.0973,3.0973,3.0973,3.0973,3.0973,3.0973,3.0973,3.0973,3.0973,3.0973,3.0973,3.0973,3.0973,3.0973,3.0973,3.0973,3.0973,3.0973,3.0973,3.0973,0.0,0.0,0.0,0.0,0.0,0.0,0.0,0.0,0.0,0.0,0.0,0.0,0.0,0.0,0.0,0.0,0.0,0.0,0.0,0.0,0.0,3.0973,3.1432,3.151,3.1209,0.0,3.1548,3.1209,3.113,3.1104,3.1104,3.1182,3.1496,3.1928,3.1928,3.1928,3.1928,3.1928,3.1954,3.2137,3.3195,3.3927,3.4397,3.4397,3.4397,3.4397,0.0,0.0,0.0,0.0,0.0,4.2814,4.29,4.2016,4.176,4.2709,4.3859,4.4539,4.438,4.4095,4.3834,4.3651,4.2761,0.0,0.0,0.0,0.0,3.9651,3.8841,3.7639,3.5992,3.5417,3.5312,0.0,0.0,0.0,0.0,0.0,0.0,0.0,0.0,0.0,3.2725,3.3117,0.0,3.1797,3.1693,3.1641,3.1588,3.1156,3.0973,3.0973,3.0973,3.0973,3.0973,3.0973,3.0973,3.0973,3.0973,3.0973,3.0973,3.0973,3.0973,3.0973,3.0973,3.0973,3.0973,3.0973,3.0973,3.0973,3.0973,3.0973,3.0973,3.0973,3.0973,3.0973,3.0973,0.0,0.0,0.0,0.0,0.0,0.0,0.0,0.0,0.0,0.0,0.0,0.0,0.0,0.0,0.0,0.0,0.0,0.0,0.0,0.0,0.0,3.1078,0.0,0.0,0.0,3.1548,3.2385,3.1914,3.1641,3.1667,3.2176,3.2437,3.2542,3.2542,3.2542,3.2542,3.2542,3.2829,3.33,3.3509,3.3927,3.4397,3.4397,3.4397,3.4397,0.0,0.0,0.0,0.0,0.0,0.0,0.0,4.265,0.0,4.2944,4.3755,4.3938,4.3049,4.3232,4.3206,4.2605,4.2056,4.1716,4.1716,4.1455,4.0801,3.9651,3.9337,0.0,3.6149,3.526,3.5103,3.5678,0.0,0.0,0.0,0.0,0.0,0.0,0.0,3.3666,0.0,0.0,0.0,3.228,3.228,3.228,3.2228,3.1653,3.1418,3.1392,3.1078,3.0973,3.0973,3.0973,3.0973,3.0973,3.0973,3.0973,3.0973,3.0973,3.0973,3.0973,3.0973,3.0973,3.0973,3.0973,3.0973,3.0973,3.0973,3.0973,3.0973,3.0973,3.0973,3.0973,3.0973,3.0973,0.0,0.0,0.0,0.0,0.0,0.0,0.0,0.0,0.0,0.0,0.0,0.0,0.0,0.0,0.0,0.0,0.0,0.0,0.0,0.0,0.0,0.0,0.0,0.0,0.0,3.2254,3.1928,3.1954,3.2306,3.2568,3.2855,3.3169,3.3169,3.3169,3.3169,3.3169,3.3326,3.3613,3.3901,3.4162,3.4397,3.4397,3.4397,3.4397,0.0,4.5905,0.0,0.0,4.4598,0.0,4.3204,4.3127,4.3232,4.3363,4.3572,4.3232,4.2004,4.2448,4.2474,4.1585,4.1376,4.1324,4.1324,4.1193,4.0671,3.9651,3.9494,3.8449,3.6332,3.5286,3.4868,0.0,0.0,0.0,0.0,0.0,0.0,0.0,0.0,0.0,0.0,0.0,3.3117,3.2881,3.2881,3.2881,3.2829,3.2215,3.1902,3.1745,3.1339,3.1078,3.0973,3.0973,3.0973,3.0973,3.0973,3.0973,3.0973,3.0973,3.0973,3.0973,3.0973,3.0973,3.0973,3.0973,3.0973,3.0973,3.0973,3.0973,3.0973,3.0973,3.0973,3.0973,3.0973,3.0973,0.0,0.0,0.0,0.0,0.0,0.0,0.0,0.0,0.0,0.0,0.0,0.0,0.0,0.0,0.0,0.0,0.0,0.0,0.0,0.0,0.0,3.1548,3.1339,0.0,3.1797,3.2163,3.2032,3.2333,3.2881,3.3012,3.33,3.377,3.377,3.377,3.377,3.377,3.377,3.3796,3.4241,3.4397,3.4397,3.4397,3.4397,3.4397,0.0,0.0,0.0,0.0,0.0,0.0,4.3153,4.3467,4.399,4.4513,4.3702,4.3232,4.3598,4.2866,4.2213,4.2159,4.1611,4.1324,4.1324,4.0801,4.0226,3.9651,3.9076,3.8214,3.6959,3.6279,3.5469,0.0,0.0,0.0,0.0,0.0,0.0,0.0,0.0,0.0,0.0,3.4397,3.445,3.3509,3.3509,3.3509,3.343,3.2855,3.2306,3.1797,3.1745,3.1418,3.0973,3.0973,3.0973,3.0973,3.0973,3.0973,3.0973,3.0973,3.0973,3.0973,3.0973,3.0973,3.0973,3.0973,3.0973,3.0973,3.0973,3.0973,3.0973,3.0973,3.0973,3.0973,3.0973,3.0973,3.0973,0.0,0.0,0.0,0.0,0.0,0.0,0.0,0.0,0.0,0.0,0.0,0.0,0.0,0.0,0.0,0.0,0.0,0.0,3.0973,0.0,3.1548,3.2515,3.1548,3.1862,3.3404,3.2881,3.2934,3.3509,3.4005,3.4267,3.4319,3.4319,3.4319,3.4319,3.4319,3.4319,3.4319,3.4371,3.4397,3.4397,3.4397,3.4397,3.4397,0.0,0.0,0.0,0.0,0.0,0.0,0.0,4.3154,4.3049,4.3624,4.331,4.284,4.2396,4.2239,4.2081,4.169,4.1455,4.1324,4.1324,4.1089,4.054,3.9651,3.939,3.8553,3.7037,3.6096,3.5547,0.0,0.0,0.0,0.0,0.0,0.0,0.0,0.0,3.3875,3.3273,3.3979,3.4005,3.3613,3.3953,3.4084,3.4005,3.3456,3.3091,3.2855,3.2489,3.1993,3.1496,3.1496,3.1261,3.0973,3.0973,3.0973,3.1052,3.1392,3.1261,3.1052,3.1392,3.1261,3.0973,3.0973,3.0973,3.0973,3.0973,3.0973,3.0973,3.0973,3.0973,3.0973,3.0973,3.0973,3.0973,0.0,0.0,0.0,0.0,0.0,0.0,0.0,0.0,0.0,0.0,0.0,0.0,0.0,0.0,0.0,0.0,0.0,0.0,3.0973,0.0,3.1209,3.1653,3.1548,3.2019,3.3064,3.3169,3.3535,3.4084,3.4293,3.4397,3.4397,3.4397,3.4397,3.4397,3.4397,3.4397,3.4397,3.4397,3.4397,3.445,3.4816,3.4711,3.445,4.4359,0.0,4.3815,0.0,4.3486,4.3261,4.3415,4.2735,4.2265,4.2474,4.2526,4.2265,4.1638,4.1768,4.1742,4.135,4.1324,4.1324,4.1324,4.1141,4.0618,3.9651,3.9442,0.0,3.7299,3.6305,3.5809,3.5861,3.5809,0.0,0.0,0.0,0.0,0.0,3.4005,3.3744,3.3613,3.377,3.3822,3.3875,3.4241,3.4397,3.4345,3.3979,3.3718,3.3535,3.3117,3.2463,3.1823,3.198,3.1601,3.1026,3.1182,3.113,3.113,3.1888,3.1679,3.1339,3.1693,3.151,3.1235,3.1235,3.1104,3.1026,3.1209,3.1104,3.0973,3.0973,3.0973,3.0973,3.0973,3.0973,3.0973,3.0973,0.0,0.0,0.0,0.0,0.0,0.0,0.0,3.0973,3.0973,0.0,0.0,0.0,0.0,0.0,0.0,0.0,0.0,0.0,0.0,0.0,3.0973,3.151,3.2084,3.2698,3.33,3.3875,3.4397,3.4397,3.4397,3.4397,3.4397,3.4397,3.4397,3.4397,3.4397,3.4397,3.4397,3.4397,3.4476,3.5077,3.492,3.4502,4.4499,4.3511,4.269,4.231,4.2211,4.2211,4.2238,4.2238,4.1977,4.1402,4.1324,4.1533,4.2159,4.1664,4.1324,4.1324,4.1324,4.1324,4.1324,4.0749,4.0174,0.0,0.0,3.8449,3.79,3.7299,3.6436,3.5312,0.0,0.0,3.2751,0.0,3.3901,3.4397,3.4397,3.4084,3.3613,3.4162,3.4397,3.4397,3.4397,3.4397,3.4397,3.4397,3.4058,3.3587,3.3587,3.2829,3.1876,3.2489,3.194,3.1078,3.1615,3.1444,3.1209,3.2359,3.228,3.1797,3.1797,3.1797,3.1797,3.1797,3.1392,3.113,3.1667,3.1392,3.0973,3.0973,3.0973,3.0973,3.0973,3.0973,3.0973,3.0973,0.0,0.0,0.0,0.0,0.0,0.0,3.0973,3.0973,3.0973,0.0,0.0,0.0,0.0,0.0,0.0,0.0,0.0,3.0973,3.0973,0.0,3.0973,3.151,3.2084,3.2698,3.33,3.3875,3.4397,3.4397,3.4397,3.4397,3.4397,3.4397,3.4397,3.4397,3.4397,3.4397,3.4397,3.4397,3.4476,3.5077,3.492,3.4554,4.4359,4.4031,4.3704,4.326,4.2896,4.2762,4.3164,4.2275,4.1758,4.2262,4.1746,4.1376,4.1559,4.1428,4.1324,0.0,4.1324,4.1324,0.0,4.0749,4.0174,3.9625,3.9024,3.8449,3.7926,3.7299,3.6828,3.6462,0.0,0.0,0.0,3.5417,3.4972,3.4397,3.4397,3.4293,3.4162,3.4319,3.4397,3.4397,3.4397,3.4397,3.4397,3.4397,3.4293,3.4136,3.4136,3.3666,3.3064,3.3247,3.2803,3.2254,3.2855,3.2359,3.181,3.296,3.2881,3.2515,3.2934,3.2725,3.2411,3.2411,3.228,3.2202,3.2385,3.1967,3.1444,3.1078,3.0973,3.0973,3.0973,3.0973,3.0973,3.0973,3.0973,0.0,0.0,0.0,0.0,0.0,3.0973,3.0973,0.0,3.0973,0.0,0.0,0.0,0.0,0.0,0.0,0.0,0.0,3.0973,0.0,3.1536,3.2123,3.2725,3.33,3.3875,3.445,3.4999,3.4999,3.4999,3.4999,3.4999,3.4763,3.4397,3.4397,3.4397,3.4397,3.4397,3.4397,3.4528,3.5495,3.5495,3.5182,4.5006,4.5015,4.4662,4.3341,4.317,4.3101,4.2847,4.1934,4.1547,4.2137,4.167,4.1324,4.1324,4.1324,0.0,4.1324,4.1324,4.1324,4.1324,4.0958,4.0409,3.9651,3.9259,3.8684,3.7926,3.7534,0.0,3.7011,3.7168,3.7037,3.6645,3.6279,3.56,3.4737,3.4737,3.4607,3.4397,3.4397,3.4397,3.4397,3.4397,3.4397,3.4397,3.4397,3.4397,3.4397,3.4397,3.4058,3.3613,3.3822,3.3352,3.2829,3.3639,3.3247,3.2672,3.3613,3.3483,3.3117,3.3483,3.33,3.3038,3.3038,3.2855,3.2698,3.2698,3.2411,3.2045,3.1705,3.1627,3.1548,3.1339,3.1313,3.1235,3.1026,3.0973,3.0973,3.0973,0.0,0.0,0.0,0.0,0.0,0.0,3.0973,3.113,0.0,0.0,0.0,0.0,0.0,0.0,3.1287,3.1313,0.0,3.2111,3.2751,3.3221,3.3613,3.4371,3.492,3.5312,3.5495,3.5495,3.5286,3.5286,3.4946,3.4397,3.4397,3.4397,3.4397,3.4397,3.4528,3.4842,3.5757,3.5757,3.5469,4.6356,4.6373,4.5595,0.0,4.3214,0.0,4.1726,4.1424,4.1324,4.1398,4.1348,4.1324,4.1324,4.1324,4.1324,4.1324,0.0,0.0,0.0,4.1272,4.0749,3.9651,3.9573,3.9024,3.7926,3.79,3.7612,3.7063,3.6462,3.6175,3.6175,3.6123,3.5809,3.5286,3.5286,3.4972,3.4397,3.4397,3.4397,3.4397,3.4397,3.4397,3.4397,3.4397,3.4397,3.4397,3.4397,3.4084,3.3718,3.4214,3.3692,3.2986,3.4058,3.4058,3.3744,3.4241,3.4031,3.3639,3.3639,3.3639,3.3639,3.3639,3.3221,3.2803,3.2751,3.2751,3.2751,3.2698,3.2698,3.2542,3.1954,3.1823,3.1641,3.113,3.0999,3.0973,3.0973,0.0,0.0,0.0,0.0,0.0,0.0,3.0973,3.0999,0.0,0.0,0.0,0.0,0.0,3.1287,3.1771,3.185,3.2137,3.2751,3.33,3.3639,3.3718,3.4816,3.5391,3.5443,3.594,3.5887,3.5417,3.5417,3.5051,3.445,3.445,3.4424,3.4397,3.445,3.4816,3.5365,3.594,3.5835,3.5574,0.0,0.0,4.7206,4.5274,4.4509,4.4057,4.3634,4.2311,4.1597,4.2333,4.1769,4.1324,4.1324,4.1324,4.1324,4.1324,4.1324,4.1324,4.1324,4.088,4.0331,3.9651,3.9181,3.8606,3.7926,3.79,3.7821,3.7691,3.709,3.6802,3.6776,3.6332,3.5809,3.5286,3.5286,3.4972,3.4397,3.4397,3.4397,3.4397,3.4397,3.4397,3.4397,3.4397,3.4397,3.4397,3.4397,3.4319,3.4214,3.4345,3.4214,3.4031,3.4319,3.4319,3.4241,3.4371,3.4319,3.4214,3.4214,3.4214,3.4214,3.4214,3.411,3.3875,3.3483,3.3378,3.3247,3.2777,3.2698,3.2646,3.2515,3.2084,3.1771,3.1615,3.1261,3.0973,3.0973,3.0973,0.0,0.0,3.0973,3.0973,3.0973,3.0973,3.1156,0.0,0.0,0.0,0.0,3.1588,3.1667,3.1797,3.2254,3.2777,3.3378,3.3509,3.4031,3.4894,3.5574,3.6149,3.6593,3.6724,3.6724,3.6593,3.6593,3.6018,3.5077,3.5077,3.4816,3.445,3.4894,3.5182,3.5417,3.641,3.6698,3.6645,4.887,4.866,4.7846,4.6016,4.5191,4.4511,4.3476,4.2415,4.1786,4.2092,4.1647,4.1324,4.1324,4.1324,4.1324,4.1324,4.1324,4.1324,4.1324,4.101,4.0566,3.9991,3.9442,3.8867,3.8292,3.8031,3.79,3.79,3.7586,3.7403,3.7403,3.709,3.6619,3.607,3.5783,3.5338,3.4789,3.4528,3.4397,3.4397,3.4397,3.4397,3.4397,3.4397,3.4397,3.4397,3.4397,3.4397,3.4397,3.4397,3.4397,3.445,3.4711,3.4633,3.445,3.4737,3.4607,3.4397,3.4397,3.4397,3.4397,3.4397,3.4397,3.4319,3.4031,3.3953,3.3875,3.3535,3.3483,3.3404,3.3143,3.262,3.2111,3.185,3.1365,3.0973,3.0973,3.0973,0.0,3.1339,3.1392,3.147,3.1731,3.1757,3.1784,3.1797,3.181,0.0,3.1797,3.2554,3.2777,3.2254,3.3038,3.377,3.4371,3.4607,3.5051,3.5678,3.6253,3.6698,3.7011,3.7299,3.7273,3.7011,3.7011,3.6358,3.5286,3.5286,3.5103,3.4842,3.5182,3.5626,3.6149,3.6776,3.7011,3.7011,4.9677,4.9222,4.8259,4.6406,4.5871,4.5084,4.3178,4.2664,4.2351,4.1799,4.1647,4.1547,4.1547,4.1398,4.1324,4.1324,4.1324,4.1324,4.1324,4.1324,4.1036,4.0435,3.9965,3.9416,3.8736,3.8187,3.79,3.79,3.79,3.79,3.79,3.79,3.7586,3.6985,3.6462,3.594,3.5391,3.4789,3.4528,3.4528,3.4424,3.4397,3.4397,3.4397,3.445,3.4528,3.4528,3.458,3.4659,3.4659,3.4659,3.4737,3.526,3.5077,3.4763,3.526,3.5051,3.4633,3.4554,3.458,3.4633,3.4554,3.4607,3.4659,3.4659,3.458,3.4528,3.4528,3.445,3.4267,3.3796,3.3221,3.2672,3.2137,3.1548,3.1104,3.1104,0.0,3.1287,3.1745,3.1876,3.2111,3.2646,3.2698,3.2542,3.2084,3.2463,3.2542,3.2215,3.3613,3.4005,3.3117,3.411,3.4894,3.5417,3.5966,3.6253,3.6253,3.6854,3.7142,3.7168,3.7665,3.7612,3.7142,3.7142,3.6541,3.5547,3.5547,3.5495,3.5443,3.5521,3.6149,3.7011,3.7116,3.7142,3.7116,5.01,4.9994,4.9664,4.887,4.7573,4.6487,4.6146,4.4884,4.3954,4.3843,4.3081,4.255,4.255,4.1819,4.1324,4.1324,4.1324,4.1324,4.1324,4.1324,4.1036,4.0435,4.0331,3.9782,3.8736,3.8187,3.79,3.79,3.79,3.79,3.79,3.79,3.7586,3.7011,3.6907,3.6541,3.594,3.5391,3.5155,3.5129,3.4607,3.4397,3.4397,3.4397,3.4711,3.5155,3.5155,3.5443,3.5835,3.5835,3.5835,3.5861,3.594,3.5913,3.5861,3.594,3.5913,3.573,3.5286,3.5495,3.573,3.526,3.5495,3.5835,3.5835,3.5495,3.5155,3.5155,3.4737,3.4371,3.4293,3.3822,3.343,3.3326,3.2411,3.1667,3.1667,0.0,3.1693,3.1797,3.2254,3.2594,3.2672,3.2698,3.2855,3.33,3.2934,3.3064,3.3953,3.4241,3.4554,3.4894,3.5521,3.5887,3.5966,3.6567,3.6854,3.6881,3.7482,3.7769,3.7769,3.7874,3.7848,3.7769,3.7769,3.7377,3.675,3.675,3.6436,3.6044,3.6541,3.6854,3.7063,3.7586,3.7769,3.7691,5.0644,4.9986,4.9345,4.9481,4.8335,4.7233,4.65,4.5779,4.5071,4.4397,4.389,4.3416,4.284,4.2382,4.1868,4.1374,4.1324,4.1324,4.1324,4.1324,4.1193,4.0906,4.0592,3.9886,3.8736,3.8187,3.79,3.79,3.79,3.79,3.79,3.79,3.7743,3.7482,3.7142,3.6854,3.6541,3.5966,3.573,3.5704,3.5443,3.5312,3.5312,3.5312,3.5495,3.573,3.573,3.5887,3.6096,3.6096,3.6096,3.6149,3.6488,3.6358,3.6175,3.6488,3.6358,3.6044,3.5809,3.5913,3.6044,3.5783,3.5913,3.6096,3.6096,3.5913,3.573,3.573,3.5521,3.5234,3.4946,3.4424,3.4031,3.4031,3.3064,0.0,0.0,3.2515,3.2411,3.2751,3.3012,3.343,3.4031,3.4084,3.4214,3.4476,3.4528,3.4633,3.4868,3.5469,3.594,3.6201,3.6462,3.675,3.7063,3.7351,3.7482,3.7482,3.7769,3.79,3.79,3.79,3.79,3.79,3.79,3.756,3.7011,3.7011,3.6854,3.6619,3.6907,3.7194,3.7534,3.7795,3.79,3.7874,5.1109,5.0094,4.9366,4.9863,4.8977,4.7801,4.6648,4.6172,4.5597,4.4779,4.4452,4.4125,4.3531,4.3321,4.2744,4.1746,4.1647,4.1547,4.1324,4.1324,4.1324,4.1324,4.0618,3.9808,3.8945,3.8266,3.79,3.79,3.79,3.79,3.79,3.79,3.79,3.7874,3.7429,3.722,3.7168,3.6567,3.6305,3.6305,3.6149,3.6096,3.6096,3.6096,3.6201,3.6305,3.6305,3.641,3.6515,3.6515,3.6515,3.6593,3.7063,3.6907,3.6619,3.7063,3.6881,3.6462,3.6175,3.6305,3.6488,3.6358,3.641,3.6515,3.6515,3.641,3.6305,3.6305,3.6201,3.5966,3.5547,3.5103,3.4763,3.4633,0.0,0.0,0.0,3.3378,3.33,3.3927,3.411,3.4528,3.5391,3.5495,3.5495,3.5495,3.5861,3.5992,3.5704,3.6515,3.7063,3.722,3.722,3.7429,3.79,3.79,3.79,3.79,3.79,3.79,3.79,3.79,3.79,3.79,3.79,3.7639,3.722,3.722,3.722,3.722,3.722,3.7508,3.79,3.79,3.79,3.79,5.1199,5.1075,5.0999,5.1058,4.9692,4.8383,4.7764,4.6282,4.5374,4.564,4.4869,4.4638,4.5508,4.4776,4.3796,4.2792,4.2695,4.2284,4.1348,4.1324,4.1324,4.1324,4.0252,3.9625,3.9547,3.8475,3.79,3.79,3.79,3.79,3.79,3.79,3.79,3.79,3.7848,3.7848,3.7795,3.7194,3.6933,3.6881,3.6332,3.6096,3.6096,3.6096,3.6462,3.6933,3.6933,3.7299,3.7769,3.7769,3.7769,3.7769,3.7821,3.7795,3.7769,3.7821,3.7795,3.7534,3.641,3.6933,3.7639,3.7063,3.7351,3.7769,3.7769,3.7325,3.6933,3.6933,3.6488,3.6096,3.6044,3.5992,3.5809,3.5312,0.0,0.0,3.4319,3.4293,3.4502,3.5103,3.56,3.594,3.6044,3.6044,3.6044,3.6044,3.607,3.6332,3.6854,3.6959,3.7246,3.7821,3.7848,3.7874,3.79,3.79,3.79,3.79,3.79,3.79,3.79,3.79,3.79,3.79,3.79,3.7874,3.7848,3.7848,3.7848,3.7848,3.7848,3.7874,3.79,3.79,3.79,3.79,5.1229,5.1229,5.1229,5.1229,5.0662,5.0011,4.939,4.874,4.8236,4.8028,4.7015,4.6379,4.6401,4.5513,4.4517,4.3823,4.3748,4.3321,4.2284,4.2235,4.1967,4.1324,4.054,3.9939,3.9625,3.8815,3.824,3.79,3.79,3.79,3.79,3.79,3.79,3.79,3.79,3.79,3.7874,3.7665,3.756,3.7534,3.7299,3.722,3.722,3.722,3.7351,3.756,3.756,3.7717,3.79,3.79,3.79,3.79,3.79,3.79,3.79,3.79,3.79,3.7795,3.7351,3.756,3.7848,3.7612,3.7743,3.79,3.79,3.7717,3.756,3.756,3.7377,3.7116,3.6724,3.6671,3.6593,3.6384,0.0,3.5574,3.5966,3.5678,3.5547,3.5783,3.5992,3.6253,3.6619,3.6671,3.6802,3.7194,3.722,3.7325,3.756,3.756,3.7665,3.79,3.79,3.79,3.79,3.79,3.79,3.79,3.79,3.79,3.79,3.79,3.79,3.79,3.79,3.79,3.79,3.79,3.79,3.79,3.79,3.79,3.79,3.79,3.79,3.79,5.1229,5.1229,5.1229,5.1229,5.0917,5.049,4.9868,4.9439,4.911,4.886,4.8143,4.7521,4.7114,4.6529,4.573,4.4697,4.4705,4.4331,4.3368,4.2985,4.2479,4.1769,4.1214,4.0856,4.0763,3.9894,3.9276,3.8905,3.8608,3.8449,3.8423,3.824,3.8266,3.8423,3.824,3.8266,3.8423,3.824,3.8161,3.8135,3.7978,3.79,3.79,3.79,3.79,3.79,3.79,3.79,3.79,3.79,3.79,3.79,3.79,3.79,3.79,3.79,3.79,3.79,3.79,3.79,3.79,3.79,3.79,3.79,3.79,3.79,3.79,3.79,3.79,3.7769,3.7351,3.7273,3.722,3.7037,3.6645,3.6541,3.6959,3.6645,3.6462,3.6645,3.6671,3.6828,3.7246,3.7273,3.7456,3.7874,3.79,3.79,3.79,3.79,3.79,3.79,3.79,3.79,3.79,3.79,3.79,3.79,3.79,3.79,3.79,3.79,3.79,3.79,3.79,3.79,3.79,3.7992,3.7965,3.7965,3.7965,3.7965,3.7965,3.79,3.7946,3.7965,5.1229,5.1229,5.1229,5.1229,5.0316,4.9407,4.8894,4.7881,4.7283,4.7764,4.7846,4.7771,4.7619,4.8042,4.7478,4.5402,4.558,4.5372,4.4359,4.3368,4.284,4.284,4.2222,4.2367,4.3357,4.1902,4.1121,4.1121,4.0097,3.9599,3.9599,3.8998,3.9024,3.9573,3.8972,3.905,3.9573,3.8972,3.871,3.8684,3.8135,3.7926,3.7926,3.7926,3.79,3.79,3.79,3.79,3.79,3.79,3.79,3.79,3.79,3.7926,3.7926,3.7926,3.7926,3.7926,3.7926,3.7926,3.7926,3.79,3.79,3.79,3.79,3.79,3.7926,3.7926,3.7926,3.7926,3.7926,3.7926,3.7717,3.7116,3.7011,3.7011,3.7011,3.7011,3.722,3.7821,3.79,3.79,3.79,3.79,3.79,3.79,3.79,3.79,3.79,3.79,3.79,3.79,3.79,3.79,3.79,3.79,3.79,3.79,3.79,3.79,3.79,3.79,3.79,3.79,3.79,3.79,3.79,3.8122,3.8213,3.8213,3.8213,3.8213,3.8167,3.7992,3.8011,3.8213,5.1229,5.1229,5.1229,5.1229,5.0917,5.0668,5.0508,5.0165,5.0011,5.0164,4.9538,4.8997,4.8814,4.8198,4.747,4.6726,4.6801,4.6462,4.5417,4.4377,4.4144,4.4886,4.3365,4.2474,4.2367,4.2593,4.2516,4.2171,4.1854,4.1718,4.1672,4.0792,4.0495,4.0609,3.9723,3.9442,3.9599,3.9416,3.9337,3.9337,3.9181,3.8841,3.8475,3.8475,3.824,3.79,3.79,3.79,3.79,3.79,3.79,3.7978,3.8344,3.8475,3.8553,3.8972,3.8789,3.8553,3.8998,3.8789,3.837,3.8004,3.79,3.79,3.79,3.8187,3.8475,3.8475,3.8815,3.9102,3.9102,3.8762,3.8423,3.824,3.7874,3.7639,3.7639,3.7639,3.7736,3.8076,3.7992,3.7946,3.8103,3.7965,3.79,3.79,3.79,3.79,3.79,3.79,3.79,3.79,3.79,3.79,3.79,3.79,3.79,3.79,3.8057,3.8057,3.79,3.8057,3.8011,3.79,3.79,3.7965,3.8122,3.8167,3.8304,3.8512,3.8512,3.8349,3.8213,3.833,3.833,3.8213,5.1229,5.1229,5.1229,5.1229,5.1229,5.1229,5.1229,5.1229,5.1229,5.1229,5.0632,5.0022,4.9491,4.8715,4.8051,4.7465,4.736,4.6887,4.5869,4.5235,4.5007,4.519,4.4424,4.3836,4.3473,4.4043,4.401,4.3234,4.3234,4.3234,4.3234,4.2389,4.2141,4.2315,4.1489,4.1234,4.145,4.1207,4.0891,4.0511,4.0272,3.9744,3.9076,3.9076,3.8867,3.8579,3.8579,3.8579,3.8579,3.8579,3.8579,3.8632,3.8972,3.9076,3.9128,3.9494,3.9337,3.9155,3.952,3.9337,3.8998,3.8658,3.8579,3.8579,3.8579,3.8841,3.9076,3.9076,3.9364,3.9599,3.9743,3.9454,3.9239,3.9333,3.9023,3.8641,3.8378,3.826,3.8181,3.8083,3.8057,3.8136,3.853,3.8444,3.8411,3.8553,3.837,3.8214,3.8214,3.8031,3.79,3.79,3.79,3.79,3.79,3.7965,3.8011,3.8011,3.8122,3.8167,3.8175,3.833,3.8285,3.8175,3.8175,3.8239,3.8349,3.844,3.8575,3.8711,3.8711,3.8621,3.8459,3.8557,3.853,3.8504,5.1229,5.1229,5.1229,5.1229,5.1229,5.1229,5.1229,5.1229,5.1229,5.1229,5.1229,5.0793,4.9795,4.9419,4.8832,4.7748,4.7436,4.6931,4.5958,4.5913,4.5508,4.4591,4.5463,4.5869,4.5779,4.5869,4.5508,4.4591,4.4591,4.4591,4.4517,4.3878,4.3934,4.4424,4.3694,4.3704,4.4284,4.362,4.2888,4.2065,4.1474,4.0649,3.9821,3.9725,3.9651,3.9599,3.9599,3.9599,3.9599,3.9599,3.9599,3.9625,3.9677,3.9677,3.9677,3.9756,3.973,3.9677,3.9756,3.973,3.9677,3.9756,3.9756,3.973,3.9625,3.9651,3.9677,3.9677,3.973,3.9804,4.0092,4.0087,4.0156,4.0414,4.0198,3.9817,3.921,3.8944,3.8574,3.8077,3.8181,3.8503,3.913,3.921,3.9354,3.9669,3.915,3.8836,3.8836,3.8364,3.8057,3.8057,3.8004,3.7978,3.8024,3.8175,3.8213,3.8213,3.8258,3.8395,3.8602,3.8602,3.8602,3.8602,3.8602,3.8602,3.8647,3.8819,3.8908,3.8953,3.8953,3.8908,3.8863,3.8711,3.8756,3.8908,5.1229,5.1229,5.1229,5.1229,5.1229,5.1229,5.1229,5.1229,5.1229,5.1229,5.1229,5.0926,5.0156,4.9596,4.9,4.8194,4.7627,4.7222,4.6975,4.6975,4.6887,4.6638,4.6887,4.6594,4.5824,4.6594,4.6887,4.6638,4.6638,4.6638,4.6638,4.5678,4.5364,4.5417,4.3676,4.3421,4.4266,4.3298,4.3243,4.3714,4.2801,4.2045,4.1307,4.0518,3.9991,3.9599,3.9599,3.9599,3.9599,3.9599,3.9599,3.9677,4.0095,4.0252,4.0331,4.0801,4.0618,4.0357,4.0827,4.0592,4.0357,4.0827,4.108,4.0943,3.9856,3.9939,4.0252,4.0252,4.0618,4.0958,4.0981,4.0811,4.0641,4.0689,4.0511,4.0074,3.9488,3.9362,3.9263,3.9084,3.8945,3.9183,3.9953,4.01,4.0153,4.0239,4.0133,3.9959,3.9723,3.9617,3.947,3.9233,3.8789,3.8647,3.8833,3.8405,3.8213,3.8213,3.8549,3.8711,3.8602,3.8756,3.8756,3.8602,3.8602,3.8666,3.8819,3.8863,3.8997,3.9203,3.9203,3.9087,3.8908,3.9069,3.9069,3.8908,5.1229,5.1229,5.1229,5.1229,5.1229,5.1229,5.1229,5.1229,5.1229,5.1229,5.1229,5.1079,5.0704,5.0122,4.9344,4.8356,4.7698,4.7309,4.7309,4.7309,4.7309,4.7309,4.7309,4.7062,4.655,4.7019,4.7062,4.6594,4.7062,4.7309,4.7309,4.677,4.6255,4.5734,4.4702,4.4517,4.4961,4.3909,4.3843,4.4266,4.3748,4.3033,4.2331,4.2283,4.2093,4.1849,4.1849,4.1516,4.1063,4.0556,4.0435,4.0461,4.0749,4.0853,4.0906,4.1219,4.1089,4.0906,4.1219,4.1089,4.0932,4.1246,4.1498,4.1489,4.0615,4.0743,4.0975,4.0853,4.1089,4.1374,4.1448,4.1459,4.1444,4.159,4.1469,4.1164,4.0623,4.0401,4.0201,3.9907,3.9881,4.0121,4.0849,4.1096,4.1208,4.1208,4.0968,4.0712,4.0569,4.0351,4.0076,3.979,3.9475,3.9365,3.9532,3.9018,3.8971,3.9401,3.9042,3.8908,3.8962,3.9024,3.9024,3.8917,3.8917,3.898,3.9114,3.9114,3.9158,3.9292,3.9292,3.9203,3.9114,3.9247,3.9203,3.9114,5.1229,5.1229,5.1229,5.1229,5.1229,5.1229,5.1229,5.1229,5.1229,5.1229,5.1229,5.1229,5.1229,5.0584,4.9703,4.8386,4.7788,4.7429,4.7309,4.7309,4.7309,4.7309,4.7309,4.7309,4.7309,4.7309,4.6887,4.6077,4.6887,4.7309,4.7309,4.7309,4.6887,4.6077,4.5869,4.5913,4.5958,4.5007,4.4545,4.4545,4.4359,4.3701,4.2889,4.3748,4.4031,4.4078,4.4266,4.3748,4.2889,4.1918,4.1547,4.1547,4.1348,4.1324,4.1324,4.1324,4.1324,4.1324,4.1374,4.1374,4.1374,4.1374,4.1547,4.1696,4.1398,4.1597,4.1696,4.1448,4.1398,4.1448,4.1647,4.1895,4.2141,4.2413,4.2462,4.2296,4.1773,4.1501,4.1122,4.0689,4.0857,4.1221,4.1731,4.207,4.2239,4.2239,4.1785,4.1469,4.1421,4.1015,4.0653,4.0367,4.0261,4.0208,4.0256,3.9834,4.0014,4.0756,3.9733,3.9357,3.9454,3.9346,3.9292,3.9292,3.9292,3.9292,3.9292,3.9292,3.9292,3.9292,3.9292,3.9292,3.9292,3.9292,3.9292,3.9292,5.1229,5.1229,5.1229,5.1229,5.1229,5.1229,5.1229,5.1229,5.1229,5.1229,5.1229,5.1229,5.1229,5.0584,4.9703,4.8386,4.8207,4.7908,4.7339,4.7309,4.7309,4.7309,4.7309,4.7309,4.7309,4.7309,4.7222,4.7106,4.7222,4.7309,4.7309,4.7309,4.7222,4.7062,4.6211,4.6299,4.7019,4.6032,4.5598,4.5508,4.4638,4.3701,4.2792,4.2937,4.2985,4.3129,4.3984,4.4219,4.3937,4.2937,4.2598,4.2479,4.1597,4.1324,4.1324,4.1324,4.1324,4.1374,4.1597,4.1647,4.1647,4.1647,4.1845,4.1993,4.1696,4.1845,4.2016,4.1993,4.1796,4.1647,4.1696,4.1746,4.1845,4.2141,4.2338,4.2345,4.1991,4.191,4.1761,4.1463,4.1947,4.2296,4.2377,4.2652,4.2776,4.2776,4.2722,4.2571,4.2328,4.2247,4.2096,4.1852,4.1298,4.1128,4.1367,4.0824,4.0676,4.1017,4.09,4.0548,4.0051,3.9536,3.9292,3.9292,3.9292,3.9292,3.9292,3.9292,3.9292,3.9292,3.9292,3.9292,3.9292,3.9292,3.9292,3.9292,5.1229,5.1229,5.1229,5.1229,5.1229,5.1229,5.1229,5.1229,5.1229,5.1229,5.1229,5.1229,5.1229,5.0584,4.9853,4.897,4.8506,4.8147,4.7878,4.7848,4.7848,4.7848,4.7848,4.7668,4.7309,4.7309,4.7309,4.7309,4.7309,4.7309,4.7309,4.7309,4.7019,4.6432,4.6003,4.6077,4.6417,4.5372,4.5281,4.5779,4.5326,4.4545,4.3748,4.4915,4.4932,4.4517,4.5007,4.5144,4.5007,4.3984,4.3654,4.3464,4.2479,4.2137,4.2065,4.1448,4.1324,4.1324,4.1448,4.1597,4.1696,4.1696,4.1993,4.2289,4.2141,4.2749,4.3108,4.2262,4.2043,4.1895,4.1746,4.1845,4.1895,4.1895,4.2239,4.2479,4.2307,4.2397,4.2445,4.2322,4.2447,4.256,4.2706,4.2706,4.2755,4.29,4.29,4.2852,4.2755,4.2706,4.2609,4.2338,4.2096,4.1962,4.2108,4.1489,4.1524,4.2114,4.1435,4.0974,4.0703,4.0431,4.0323,4.0296,3.9943,3.978,3.978,3.9427,3.9292,3.9292,3.9292,3.9292,3.9292,3.9292,3.9292,3.9292]}]]